﻿<?xml version="1.0" encoding="utf-8"?><gpx version="1.1" creator="izvne.com" xmlns="http://www.topografix.com/GPX/1/1"><trk><name>valencia-overview</name><trkseg><trkpt lat="39.48237268" lon="-0.38795446"><ele>20.6</ele><time>2022-10-30T10:52:37.0000000+00:00</time></trkpt><trkpt lat="39.4822436" lon="-0.38817046"><ele>19.4</ele><time>2022-10-30T10:52:41.0000000+00:00</time></trkpt><trkpt lat="39.48242289" lon="-0.38818706"><ele>21.1</ele><time>2022-10-30T10:52:48.0000000+00:00</time></trkpt><trkpt lat="39.48245105" lon="-0.38840457"><ele>23.2</ele><time>2022-10-30T10:53:23.0000000+00:00</time></trkpt><trkpt lat="39.48177924" lon="-0.38992379"><ele>20.9</ele><time>2022-10-30T10:55:18.0000000+00:00</time></trkpt><trkpt lat="39.48154933" lon="-0.38994684"><ele>19.8</ele><time>2022-10-30T10:55:45.0000000+00:00</time></trkpt><trkpt lat="39.48148856" lon="-0.38954937"><ele>19.6</ele><time>2022-10-30T10:57:03.0000000+00:00</time></trkpt><trkpt lat="39.48111263" lon="-0.39004868"><ele>23.6</ele><time>2022-10-30T10:57:34.0000000+00:00</time></trkpt><trkpt lat="39.48000287" lon="-0.38883448"><ele>17.6</ele><time>2022-10-30T10:59:07.0000000+00:00</time></trkpt><trkpt lat="39.48028634" lon="-0.3882956"><ele>18.7</ele><time>2022-10-30T10:59:44.0000000+00:00</time></trkpt><trkpt lat="39.48069974" lon="-0.38807985"><ele>22.8</ele><time>2022-10-30T11:00:21.0000000+00:00</time></trkpt><trkpt lat="39.48070116" lon="-0.38789973"><ele>22.6</ele><time>2022-10-30T11:00:54.0000000+00:00</time></trkpt><trkpt lat="39.48044887" lon="-0.38803183"><ele>19.5</ele><time>2022-10-30T11:06:05.0000000+00:00</time></trkpt><trkpt lat="39.48032867" lon="-0.38794507"><ele>17.6</ele><time>2022-10-30T11:06:10.0000000+00:00</time></trkpt><trkpt lat="39.48038341" lon="-0.38772421"><ele>16.8</ele><time>2022-10-30T11:06:14.0000000+00:00</time></trkpt><trkpt lat="39.47992835" lon="-0.38753654"><ele>17.9</ele><time>2022-10-30T11:06:47.0000000+00:00</time></trkpt><trkpt lat="39.47990103" lon="-0.38769077"><ele>18.0</ele><time>2022-10-30T11:06:53.0000000+00:00</time></trkpt><trkpt lat="39.47977731" lon="-0.38746789"><ele>18.6</ele><time>2022-10-30T11:06:59.0000000+00:00</time></trkpt><trkpt lat="39.47972476" lon="-0.3880294"><ele>17.4</ele><time>2022-10-30T11:07:21.0000000+00:00</time></trkpt><trkpt lat="39.47982366" lon="-0.38761013"><ele>18.6</ele><time>2022-10-30T11:07:31.0000000+00:00</time></trkpt><trkpt lat="39.48003279" lon="-0.38775321"><ele>17.0</ele><time>2022-10-30T11:08:01.0000000+00:00</time></trkpt><trkpt lat="39.47993766" lon="-0.3880563"><ele>17.0</ele><time>2022-10-30T11:08:08.0000000+00:00</time></trkpt><trkpt lat="39.47971361" lon="-0.38779562"><ele>18.3</ele><time>2022-10-30T11:08:24.0000000+00:00</time></trkpt><trkpt lat="39.48031803" lon="-0.38764475"><ele>16.4</ele><time>2022-10-30T11:08:59.0000000+00:00</time></trkpt><trkpt lat="39.48025407" lon="-0.38741433"><ele>15.6</ele><time>2022-10-30T11:09:04.0000000+00:00</time></trkpt><trkpt lat="39.48075498" lon="-0.38695802"><ele>17.0</ele><time>2022-10-30T11:09:54.0000000+00:00</time></trkpt><trkpt lat="39.48217646" lon="-0.38781901"><ele>20.4</ele><time>2022-10-30T11:11:57.0000000+00:00</time></trkpt><trkpt lat="39.48261014" lon="-0.38779202"><ele>20.6</ele><time>2022-10-30T11:12:55.0000000+00:00</time></trkpt><trkpt lat="39.48283805" lon="-0.38752615"><ele>21.6</ele><time>2022-10-30T11:13:46.0000000+00:00</time></trkpt><trkpt lat="39.48287174" lon="-0.38696967"><ele>18.1</ele><time>2022-10-30T11:14:11.0000000+00:00</time></trkpt><trkpt lat="39.48296243" lon="-0.38707319"><ele>17.7</ele><time>2022-10-30T11:14:15.0000000+00:00</time></trkpt><trkpt lat="39.48278407" lon="-0.38744266"><ele>21.5</ele><time>2022-10-30T11:14:33.0000000+00:00</time></trkpt><trkpt lat="39.48427236" lon="-0.38630448"><ele>22.7</ele><time>2022-10-30T11:15:14.0000000+00:00</time></trkpt><trkpt lat="39.4840587" lon="-0.38647908"><ele>20.7</ele><time>2022-10-30T11:15:15.0000000+00:00</time></trkpt><trkpt lat="39.4833765" lon="-0.3864417"><ele>18.1</ele><time>2022-10-30T11:16:13.0000000+00:00</time></trkpt><trkpt lat="39.48346979" lon="-0.38639274"><ele>18.4</ele><time>2022-10-30T11:16:14.0000000+00:00</time></trkpt><trkpt lat="39.48310358" lon="-0.38690639"><ele>16.0</ele><time>2022-10-30T11:16:16.0000000+00:00</time></trkpt><trkpt lat="39.4830548" lon="-0.38738642"><ele>18.5</ele><time>2022-10-30T11:21:13.0000000+00:00</time></trkpt><trkpt lat="39.48284777" lon="-0.38705626"><ele>18.4</ele><time>2022-10-30T11:21:28.0000000+00:00</time></trkpt><trkpt lat="39.4825461" lon="-0.38694654"><ele>18.8</ele><time>2022-10-30T11:21:55.0000000+00:00</time></trkpt><trkpt lat="39.48333417" lon="-0.38517041"><ele>19.9</ele><time>2022-10-30T11:24:18.0000000+00:00</time></trkpt><trkpt lat="39.48295372" lon="-0.3846628"><ele>23.7</ele><time>2022-10-30T11:25:26.0000000+00:00</time></trkpt><trkpt lat="39.48237453" lon="-0.38458904"><ele>21.1</ele><time>2022-10-30T11:26:25.0000000+00:00</time></trkpt><trkpt lat="39.48221041" lon="-0.3839749"><ele>18.4</ele><time>2022-10-30T11:26:49.0000000+00:00</time></trkpt><trkpt lat="39.48174655" lon="-0.38415846"><ele>14.9</ele><time>2022-10-30T11:27:15.0000000+00:00</time></trkpt><trkpt lat="39.4814407" lon="-0.38403751"><ele>15.2</ele><time>2022-10-30T11:27:35.0000000+00:00</time></trkpt><trkpt lat="39.48154941" lon="-0.38418286"><ele>14.9</ele><time>2022-10-30T11:27:47.0000000+00:00</time></trkpt><trkpt lat="39.48146937" lon="-0.38442233"><ele>16.3</ele><time>2022-10-30T11:28:02.0000000+00:00</time></trkpt><trkpt lat="39.48102856" lon="-0.38505801"><ele>17.4</ele><time>2022-10-30T11:29:00.0000000+00:00</time></trkpt><trkpt lat="39.48110987" lon="-0.384783"><ele>16.7</ele><time>2022-10-30T11:29:23.0000000+00:00</time></trkpt><trkpt lat="39.48078708" lon="-0.38364449"><ele>14.2</ele><time>2022-10-30T11:30:39.0000000+00:00</time></trkpt><trkpt lat="39.48102722" lon="-0.38367625"><ele>14.6</ele><time>2022-10-30T11:30:50.0000000+00:00</time></trkpt><trkpt lat="39.48109486" lon="-0.38261586"><ele>15.8</ele><time>2022-10-30T11:31:47.0000000+00:00</time></trkpt><trkpt lat="39.48204068" lon="-0.38068827"><ele>12.2</ele><time>2022-10-30T11:34:17.0000000+00:00</time></trkpt><trkpt lat="39.48209398" lon="-0.37993172"><ele>14.7</ele><time>2022-10-30T11:35:14.0000000+00:00</time></trkpt><trkpt lat="39.48065992" lon="-0.37524775"><ele>10.5</ele><time>2022-10-30T11:40:38.0000000+00:00</time></trkpt><trkpt lat="39.4797753" lon="-0.37381017"><ele>9.1</ele><time>2022-10-30T11:43:06.0000000+00:00</time></trkpt><trkpt lat="39.47984168" lon="-0.37482756"><ele>9.8</ele><time>2022-10-30T11:44:12.0000000+00:00</time></trkpt><trkpt lat="39.47960984" lon="-0.37502688"><ele>13.5</ele><time>2022-10-30T11:44:48.0000000+00:00</time></trkpt><trkpt lat="39.47987731" lon="-0.3755821"><ele>12.1</ele><time>2022-10-30T11:45:40.0000000+00:00</time></trkpt><trkpt lat="39.47941873" lon="-0.37624997"><ele>19.4</ele><time>2022-10-30T11:47:14.0000000+00:00</time></trkpt><trkpt lat="39.47920416" lon="-0.37641627"><ele>22.1</ele><time>2022-10-30T11:47:46.0000000+00:00</time></trkpt><trkpt lat="39.47891951" lon="-0.37603623"><ele>25.4</ele><time>2022-10-30T11:48:24.0000000+00:00</time></trkpt><trkpt lat="39.47801258" lon="-0.37666161"><ele>30.2</ele><time>2022-10-30T11:50:06.0000000+00:00</time></trkpt><trkpt lat="39.47754328" lon="-0.37657963"><ele>27.0</ele><time>2022-10-30T11:50:43.0000000+00:00</time></trkpt><trkpt lat="39.47747656" lon="-0.37696897"><ele>28.2</ele><time>2022-10-30T11:51:00.0000000+00:00</time></trkpt><trkpt lat="39.47741739" lon="-0.37681793"><ele>27.0</ele><time>2022-10-30T11:51:12.0000000+00:00</time></trkpt><trkpt lat="39.4770262" lon="-0.37698121"><ele>30.1</ele><time>2022-10-30T11:51:43.0000000+00:00</time></trkpt><trkpt lat="39.47666226" lon="-0.37677954"><ele>30.3</ele><time>2022-10-30T11:52:02.0000000+00:00</time></trkpt><trkpt lat="39.47684272" lon="-0.3764384"><ele>29.3</ele><time>2022-10-30T11:52:55.0000000+00:00</time></trkpt><trkpt lat="39.47672504" lon="-0.37639213"><ele>29.7</ele><time>2022-10-30T11:53:00.0000000+00:00</time></trkpt><trkpt lat="39.4766885" lon="-0.37564379"><ele>19.7</ele><time>2022-10-30T11:53:49.0000000+00:00</time></trkpt><trkpt lat="39.4765191" lon="-0.3753086"><ele>21.6</ele><time>2022-10-30T11:54:36.0000000+00:00</time></trkpt><trkpt lat="39.47580001" lon="-0.37523777"><ele>29.4</ele><time>2022-10-30T11:59:54.0000000+00:00</time></trkpt><trkpt lat="39.47521697" lon="-0.37568612"><ele>20.7</ele><time>2022-10-30T12:02:09.0000000+00:00</time></trkpt><trkpt lat="39.47535083" lon="-0.37569693"><ele>20.9</ele><time>2022-10-30T12:02:37.0000000+00:00</time></trkpt><trkpt lat="39.47530012" lon="-0.37545084"><ele>20.7</ele><time>2022-10-30T12:03:24.0000000+00:00</time></trkpt><trkpt lat="39.47485864" lon="-0.37539016"><ele>19.4</ele><time>2022-10-30T12:11:45.0000000+00:00</time></trkpt><trkpt lat="39.47510306" lon="-0.37535143"><ele>22.9</ele><time>2022-10-30T12:11:55.0000000+00:00</time></trkpt><trkpt lat="39.47500289" lon="-0.37526066"><ele>23.8</ele><time>2022-10-30T12:12:09.0000000+00:00</time></trkpt><trkpt lat="39.47410477" lon="-0.37532285"><ele>23.6</ele><time>2022-10-30T12:13:54.0000000+00:00</time></trkpt><trkpt lat="39.47374662" lon="-0.3755355"><ele>30.6</ele><time>2022-10-30T12:14:37.0000000+00:00</time></trkpt><trkpt lat="39.47403948" lon="-0.37629272"><ele>24.2</ele><time>2022-10-30T12:15:59.0000000+00:00</time></trkpt><trkpt lat="39.47389196" lon="-0.37683997"><ele>21.3</ele><time>2022-10-30T12:16:51.0000000+00:00</time></trkpt><trkpt lat="39.47364519" lon="-0.37706696"><ele>22.6</ele><time>2022-10-30T12:18:06.0000000+00:00</time></trkpt><trkpt lat="39.47339935" lon="-0.37694148"><ele>27.6</ele><time>2022-10-30T12:18:49.0000000+00:00</time></trkpt><trkpt lat="39.47347848" lon="-0.37719503"><ele>26.2</ele><time>2022-10-30T12:19:38.0000000+00:00</time></trkpt><trkpt lat="39.47330455" lon="-0.37758496"><ele>26.6</ele><time>2022-10-30T12:20:22.0000000+00:00</time></trkpt><trkpt lat="39.47382624" lon="-0.37838392"><ele>23.5</ele><time>2022-10-30T12:22:05.0000000+00:00</time></trkpt><trkpt lat="39.47456444" lon="-0.37895473"><ele>24.5</ele><time>2022-10-30T12:23:54.0000000+00:00</time></trkpt><trkpt lat="39.47470643" lon="-0.37932068"><ele>20.7</ele><time>2022-10-30T12:24:59.0000000+00:00</time></trkpt><trkpt lat="39.47457533" lon="-0.37953928"><ele>16.1</ele><time>2022-10-30T12:25:15.0000000+00:00</time></trkpt><trkpt lat="39.47323314" lon="-0.37952302"><ele>26.0</ele><time>2022-10-30T12:27:13.0000000+00:00</time></trkpt><trkpt lat="39.47262864" lon="-0.37974757"><ele>25.3</ele><time>2022-10-30T12:28:06.0000000+00:00</time></trkpt><trkpt lat="39.47263124" lon="-0.38028594"><ele>21.3</ele><time>2022-10-30T12:28:36.0000000+00:00</time></trkpt><trkpt lat="39.47285252" lon="-0.38047663"><ele>24.5</ele><time>2022-10-30T12:29:25.0000000+00:00</time></trkpt><trkpt lat="39.47272888" lon="-0.38033137"><ele>22.4</ele><time>2022-10-30T12:31:12.0000000+00:00</time></trkpt><trkpt lat="39.47273986" lon="-0.37978428"><ele>27.1</ele><time>2022-10-30T12:31:58.0000000+00:00</time></trkpt><trkpt lat="39.4730567" lon="-0.37948086"><ele>29.2</ele><time>2022-10-30T12:32:28.0000000+00:00</time></trkpt><trkpt lat="39.4729163" lon="-0.37892975"><ele>31.6</ele><time>2022-10-30T12:32:58.0000000+00:00</time></trkpt><trkpt lat="39.47329156" lon="-0.37844217"><ele>25.3</ele><time>2022-10-30T12:33:56.0000000+00:00</time></trkpt><trkpt lat="39.47332693" lon="-0.37772493"><ele>25.9</ele><time>2022-10-30T12:35:15.0000000+00:00</time></trkpt><trkpt lat="39.47207702" lon="-0.37675356"><ele>32.3</ele><time>2022-10-30T12:37:07.0000000+00:00</time></trkpt><trkpt lat="39.47047491" lon="-0.37635181"><ele>13.6</ele><time>2022-10-30T12:39:45.0000000+00:00</time></trkpt><trkpt lat="39.47012991" lon="-0.37661157"><ele>13.5</ele><time>2022-10-30T12:41:44.0000000+00:00</time></trkpt><trkpt lat="39.46978139" lon="-0.37588033"><ele>19.3</ele><time>2022-10-30T12:43:02.0000000+00:00</time></trkpt><trkpt lat="39.47019629" lon="-0.37605006"><ele>17.7</ele><time>2022-10-30T12:43:44.0000000+00:00</time></trkpt><trkpt lat="39.47034717" lon="-0.37572652"><ele>25.3</ele><time>2022-10-30T13:36:13.0000000+00:00</time></trkpt><trkpt lat="39.47003285" lon="-0.37568637"><ele>24.9</ele><time>2022-10-30T13:36:16.0000000+00:00</time></trkpt><trkpt lat="39.47033711" lon="-0.37592769"><ele>20.5</ele><time>2022-10-30T13:36:26.0000000+00:00</time></trkpt><trkpt lat="39.46976018" lon="-0.37631979"><ele>13.0</ele><time>2022-10-30T13:37:48.0000000+00:00</time></trkpt><trkpt lat="39.46955399" lon="-0.37600354"><ele>18.7</ele><time>2022-10-30T13:38:15.0000000+00:00</time></trkpt><trkpt lat="39.46899676" lon="-0.37600765"><ele>38.5</ele><time>2022-10-30T13:38:50.0000000+00:00</time></trkpt><trkpt lat="39.46903657" lon="-0.3757546"><ele>35.5</ele><time>2022-10-30T13:39:21.0000000+00:00</time></trkpt><trkpt lat="39.46866266" lon="-0.3754184"><ele>31.2</ele><time>2022-10-30T13:39:34.0000000+00:00</time></trkpt><trkpt lat="39.46826066" lon="-0.37593967"><ele>33.2</ele><time>2022-10-30T13:40:30.0000000+00:00</time></trkpt><trkpt lat="39.46773201" lon="-0.37594303"><ele>25.7</ele><time>2022-10-30T13:41:27.0000000+00:00</time></trkpt><trkpt lat="39.46736933" lon="-0.37615408"><ele>13.1</ele><time>2022-10-30T13:41:56.0000000+00:00</time></trkpt><trkpt lat="39.46717319" lon="-0.37603196"><ele>16.6</ele><time>2022-10-30T13:42:27.0000000+00:00</time></trkpt><trkpt lat="39.46711678" lon="-0.37697769"><ele>19.0</ele><time>2022-10-30T13:44:20.0000000+00:00</time></trkpt><trkpt lat="39.46696482" lon="-0.37691047"><ele>17.0</ele><time>2022-10-30T13:45:01.0000000+00:00</time></trkpt><trkpt lat="39.46722466" lon="-0.37688431"><ele>15.5</ele><time>2022-10-30T13:45:33.0000000+00:00</time></trkpt><trkpt lat="39.4652653" lon="-0.37777933"><ele>17.9</ele><time>2022-10-30T13:49:43.0000000+00:00</time></trkpt><trkpt lat="39.46538944" lon="-0.37825358"><ele>17.1</ele><time>2022-10-30T13:50:12.0000000+00:00</time></trkpt><trkpt lat="39.46477203" lon="-0.37851895"><ele>14.4</ele><time>2022-10-30T13:51:10.0000000+00:00</time></trkpt><trkpt lat="39.46490446" lon="-0.37841099"><ele>14.1</ele><time>2022-10-30T13:51:32.0000000+00:00</time></trkpt><trkpt lat="39.46503354" lon="-0.37879648"><ele>16.6</ele><time>2022-10-30T14:00:03.0000000+00:00</time></trkpt><trkpt lat="39.46512583" lon="-0.37866673"><ele>15.3</ele><time>2022-10-30T14:00:05.0000000+00:00</time></trkpt><trkpt lat="39.46459953" lon="-0.37862146"><ele>14.8</ele><time>2022-10-30T14:00:44.0000000+00:00</time></trkpt><trkpt lat="39.46473322" lon="-0.3786192"><ele>15.0</ele><time>2022-10-30T14:00:59.0000000+00:00</time></trkpt><trkpt lat="39.46478175" lon="-0.37885599"><ele>19.5</ele><time>2022-10-30T14:01:35.0000000+00:00</time></trkpt><trkpt lat="39.46496607" lon="-0.37877418"><ele>17.0</ele><time>2022-10-30T14:01:57.0000000+00:00</time></trkpt><trkpt lat="39.46486322" lon="-0.37933384"><ele>16.5</ele><time>2022-10-30T14:02:46.0000000+00:00</time></trkpt><trkpt lat="39.46415596" lon="-0.37954314"><ele>23.1</ele><time>2022-10-30T14:03:56.0000000+00:00</time></trkpt><trkpt lat="39.46374441" lon="-0.37994346"><ele>17.2</ele><time>2022-10-30T14:04:51.0000000+00:00</time></trkpt><trkpt lat="39.46385337" lon="-0.3804716"><ele>21.8</ele><time>2022-10-30T14:05:31.0000000+00:00</time></trkpt><trkpt lat="39.46425545" lon="-0.38076371"><ele>25.2</ele><time>2022-10-30T14:06:13.0000000+00:00</time></trkpt><trkpt lat="39.46466717" lon="-0.38077612"><ele>18.7</ele><time>2022-10-30T14:06:49.0000000+00:00</time></trkpt><trkpt lat="39.46491519" lon="-0.38120535"><ele>20.5</ele><time>2022-10-30T14:07:34.0000000+00:00</time></trkpt><trkpt lat="39.46515282" lon="-0.38106781"><ele>18.5</ele><time>2022-10-30T14:11:14.0000000+00:00</time></trkpt><trkpt lat="39.46524929" lon="-0.38068517"><ele>17.9</ele><time>2022-10-30T14:11:56.0000000+00:00</time></trkpt><trkpt lat="39.46644195" lon="-0.38029064"><ele>22.5</ele><time>2022-10-30T14:14:29.0000000+00:00</time></trkpt><trkpt lat="39.46655226" lon="-0.38017673"><ele>21.1</ele><time>2022-10-30T14:14:39.0000000+00:00</time></trkpt><trkpt lat="39.46649996" lon="-0.37956158"><ele>21.7</ele><time>2022-10-30T14:15:30.0000000+00:00</time></trkpt><trkpt lat="39.4669737" lon="-0.37908054"><ele>21.3</ele><time>2022-10-30T14:16:14.0000000+00:00</time></trkpt><trkpt lat="39.46751266" lon="-0.37888155"><ele>23.1</ele><time>2022-10-30T14:17:03.0000000+00:00</time></trkpt><trkpt lat="39.46759949" lon="-0.37861015"><ele>27.0</ele><time>2022-10-30T14:17:18.0000000+00:00</time></trkpt><trkpt lat="39.46792941" lon="-0.37884886"><ele>22.7</ele><time>2022-10-30T14:17:40.0000000+00:00</time></trkpt><trkpt lat="39.46774693" lon="-0.37837654"><ele>23.6</ele><time>2022-10-30T14:18:35.0000000+00:00</time></trkpt><trkpt lat="39.4677906" lon="-0.37789567"><ele>16.5</ele><time>2022-10-30T14:19:05.0000000+00:00</time></trkpt><trkpt lat="39.46756144" lon="-0.37763567"><ele>14.6</ele><time>2022-10-30T14:19:43.0000000+00:00</time></trkpt><trkpt lat="39.4673565" lon="-0.37675624"><ele>11.9</ele><time>2022-10-30T14:20:40.0000000+00:00</time></trkpt><trkpt lat="39.46719054" lon="-0.37656731"><ele>14.1</ele><time>2022-10-30T14:21:12.0000000+00:00</time></trkpt><trkpt lat="39.46715819" lon="-0.37538161"><ele>26.9</ele><time>2022-10-30T14:22:30.0000000+00:00</time></trkpt><trkpt lat="39.4672871" lon="-0.37496586"><ele>27.0</ele><time>2022-10-30T14:23:01.0000000+00:00</time></trkpt><trkpt lat="39.46713824" lon="-0.37484894"><ele>30.6</ele><time>2022-10-30T14:23:14.0000000+00:00</time></trkpt><trkpt lat="39.46844649" lon="-0.37319787"><ele>27.6</ele><time>2022-10-30T14:26:14.0000000+00:00</time></trkpt><trkpt lat="39.46898955" lon="-0.37168787"><ele>28.4</ele><time>2022-10-30T14:28:22.0000000+00:00</time></trkpt><trkpt lat="39.46936548" lon="-0.37150548"><ele>30.8</ele><time>2022-10-30T14:28:51.0000000+00:00</time></trkpt><trkpt lat="39.46877556" lon="-0.37159399"><ele>25.5</ele><time>2022-10-30T14:36:31.0000000+00:00</time></trkpt><trkpt lat="39.4690095" lon="-0.37158838"><ele>26.8</ele><time>2022-10-30T14:36:33.0000000+00:00</time></trkpt><trkpt lat="39.46888209" lon="-0.37153222"><ele>24.8</ele><time>2022-10-30T14:36:36.0000000+00:00</time></trkpt><trkpt lat="39.46906742" lon="-0.37124296"><ele>25.7</ele><time>2022-10-30T14:36:54.0000000+00:00</time></trkpt><trkpt lat="39.47022261" lon="-0.37085127"><ele>21.4</ele><time>2022-10-30T14:38:33.0000000+00:00</time></trkpt><trkpt lat="39.47032093" lon="-0.37110751"><ele>19.8</ele><time>2022-10-30T14:39:05.0000000+00:00</time></trkpt><trkpt lat="39.47068336" lon="-0.3708159"><ele>30.9</ele><time>2022-10-30T14:39:46.0000000+00:00</time></trkpt><trkpt lat="39.47099375" lon="-0.37082168"><ele>30.6</ele><time>2022-10-30T14:40:15.0000000+00:00</time></trkpt><trkpt lat="39.47114118" lon="-0.37051583"><ele>28.3</ele><time>2022-10-30T14:40:35.0000000+00:00</time></trkpt><trkpt lat="39.47139231" lon="-0.37074122"><ele>23.0</ele><time>2022-10-30T14:40:55.0000000+00:00</time></trkpt><trkpt lat="39.471871" lon="-0.37072923"><ele>12.6</ele><time>2022-10-30T14:41:29.0000000+00:00</time></trkpt><trkpt lat="39.47196999" lon="-0.37054961"><ele>13.6</ele><time>2022-10-30T14:41:51.0000000+00:00</time></trkpt><trkpt lat="39.47222865" lon="-0.370703"><ele>18.4</ele><time>2022-10-30T14:42:11.0000000+00:00</time></trkpt><trkpt lat="39.47269619" lon="-0.37041198"><ele>12.2</ele><time>2022-10-30T14:43:10.0000000+00:00</time></trkpt><trkpt lat="39.4727697" lon="-0.36975869"><ele>16.7</ele><time>2022-10-30T14:44:30.0000000+00:00</time></trkpt><trkpt lat="39.47257508" lon="-0.36941419"><ele>19.7</ele><time>2022-10-30T14:45:13.0000000+00:00</time></trkpt><trkpt lat="39.47238355" lon="-0.36941839"><ele>19.0</ele><time>2022-10-30T14:46:36.0000000+00:00</time></trkpt><trkpt lat="39.4725563" lon="-0.36955409"><ele>19.8</ele><time>2022-10-30T14:47:30.0000000+00:00</time></trkpt><trkpt lat="39.4722605" lon="-0.37028943"><ele>16.6</ele><time>2022-10-30T14:51:43.0000000+00:00</time></trkpt><trkpt lat="39.4723201" lon="-0.36945518"><ele>18.1</ele><time>2022-10-30T14:56:55.0000000+00:00</time></trkpt><trkpt lat="39.47239168" lon="-0.36958049"><ele>19.2</ele><time>2022-10-30T14:57:16.0000000+00:00</time></trkpt><trkpt lat="39.47227081" lon="-0.36974176"><ele>18.4</ele><time>2022-10-30T14:57:23.0000000+00:00</time></trkpt><trkpt lat="39.47222471" lon="-0.36920993"><ele>14.0</ele><time>2022-10-30T14:57:42.0000000+00:00</time></trkpt><trkpt lat="39.47247298" lon="-0.36950271"><ele>19.4</ele><time>2022-10-30T14:58:49.0000000+00:00</time></trkpt><trkpt lat="39.47231649" lon="-0.369712"><ele>18.9</ele><time>2022-10-30T15:02:54.0000000+00:00</time></trkpt><trkpt lat="39.47242127" lon="-0.36955467"><ele>19.3</ele><time>2022-10-30T15:09:00.0000000+00:00</time></trkpt><trkpt lat="39.47242202" lon="-0.36975509"><ele>19.0</ele><time>2022-10-30T15:11:34.0000000+00:00</time></trkpt><trkpt lat="39.47243812" lon="-0.36942341"><ele>19.2</ele><time>2022-10-30T15:17:40.0000000+00:00</time></trkpt><trkpt lat="39.47218599" lon="-0.36909711"><ele>12.5</ele><time>2022-10-30T15:18:09.0000000+00:00</time></trkpt><trkpt lat="39.47238657" lon="-0.36875362"><ele>11.6</ele><time>2022-10-30T15:19:39.0000000+00:00</time></trkpt><trkpt lat="39.47218213" lon="-0.36848338"><ele>14.0</ele><time>2022-10-30T15:20:21.0000000+00:00</time></trkpt><trkpt lat="39.47238154" lon="-0.36768979"><ele>17.0</ele><time>2022-10-30T15:21:03.0000000+00:00</time></trkpt><trkpt lat="39.47220267" lon="-0.3673043"><ele>25.7</ele><time>2022-10-30T15:21:26.0000000+00:00</time></trkpt><trkpt lat="39.47246594" lon="-0.36687523"><ele>14.5</ele><time>2022-10-30T15:21:44.0000000+00:00</time></trkpt><trkpt lat="39.47293424" lon="-0.36697791"><ele>9.4</ele><time>2022-10-30T15:22:13.0000000+00:00</time></trkpt><trkpt lat="39.47342165" lon="-0.36630359"><ele>8.9</ele><time>2022-10-30T15:23:22.0000000+00:00</time></trkpt><trkpt lat="39.47518705" lon="-0.36769322"><ele>11.9</ele><time>2022-10-30T15:26:40.0000000+00:00</time></trkpt><trkpt lat="39.47541151" lon="-0.36747286"><ele>13.1</ele><time>2022-10-30T15:27:06.0000000+00:00</time></trkpt><trkpt lat="39.47602825" lon="-0.3681098"><ele>12.9</ele><time>2022-10-30T15:28:22.0000000+00:00</time></trkpt><trkpt lat="39.47685471" lon="-0.36861439"><ele>12.2</ele><time>2022-10-30T15:29:51.0000000+00:00</time></trkpt><trkpt lat="39.47701396" lon="-0.36890172"><ele>12.6</ele><time>2022-10-30T15:30:14.0000000+00:00</time></trkpt><trkpt lat="39.47728939" lon="-0.36819127"><ele>12.4</ele><time>2022-10-30T15:31:28.0000000+00:00</time></trkpt><trkpt lat="39.47843847" lon="-0.36859201"><ele>18.2</ele><time>2022-10-30T15:34:02.0000000+00:00</time></trkpt><trkpt lat="39.47936542" lon="-0.36864038"><ele>14.8</ele><time>2022-10-30T15:35:36.0000000+00:00</time></trkpt><trkpt lat="39.47918898" lon="-0.36871749"><ele>14.3</ele><time>2022-10-30T15:37:06.0000000+00:00</time></trkpt><trkpt lat="39.47917859" lon="-0.36859252"><ele>14.6</ele><time>2022-10-30T15:38:03.0000000+00:00</time></trkpt><trkpt lat="39.47930256" lon="-0.36884381"><ele>14.7</ele><time>2022-10-30T15:38:50.0000000+00:00</time></trkpt><trkpt lat="39.47928613" lon="-0.36855329"><ele>15.0</ele><time>2022-10-30T15:39:13.0000000+00:00</time></trkpt><trkpt lat="39.47953851" lon="-0.36844826"><ele>15.5</ele><time>2022-10-30T15:39:49.0000000+00:00</time></trkpt><trkpt lat="39.47941035" lon="-0.36806328"><ele>16.0</ele><time>2022-10-30T15:40:52.0000000+00:00</time></trkpt><trkpt lat="39.47922452" lon="-0.36806714"><ele>16.1</ele><time>2022-10-30T15:44:49.0000000+00:00</time></trkpt><trkpt lat="39.47943885" lon="-0.36774536"><ele>16.8</ele><time>2022-10-30T15:47:31.0000000+00:00</time></trkpt><trkpt lat="39.47962996" lon="-0.36765106"><ele>16.6</ele><time>2022-10-30T15:47:57.0000000+00:00</time></trkpt><trkpt lat="39.47985618" lon="-0.36834357"><ele>16.3</ele><time>2022-10-30T15:49:00.0000000+00:00</time></trkpt><trkpt lat="39.48109746" lon="-0.36771242"><ele>20.3</ele><time>2022-10-30T15:51:18.0000000+00:00</time></trkpt><trkpt lat="39.48164689" lon="-0.36792775"><ele>19.4</ele><time>2022-10-30T15:52:24.0000000+00:00</time></trkpt><trkpt lat="39.48251057" lon="-0.36708386"><ele>15.6</ele><time>2022-10-30T15:54:01.0000000+00:00</time></trkpt><trkpt lat="39.48257879" lon="-0.366777"><ele>14.3</ele><time>2022-10-30T15:54:25.0000000+00:00</time></trkpt><trkpt lat="39.48309939" lon="-0.36660316"><ele>15.1</ele><time>2022-10-30T16:17:30.0000000+00:00</time></trkpt><trkpt lat="39.48313854" lon="-0.36616059"><ele>13.9</ele><time>2022-10-30T16:18:27.0000000+00:00</time></trkpt><trkpt lat="39.48329251" lon="-0.36622941"><ele>13.8</ele><time>2022-10-30T16:18:53.0000000+00:00</time></trkpt><trkpt lat="39.48335898" lon="-0.36605288"><ele>13.6</ele><time>2022-10-30T16:19:12.0000000+00:00</time></trkpt><trkpt lat="39.48304609" lon="-0.36474606"><ele>14.5</ele><time>2022-10-30T16:21:23.0000000+00:00</time></trkpt><trkpt lat="39.48288322" lon="-0.36482083"><ele>16.0</ele><time>2022-10-30T16:21:36.0000000+00:00</time></trkpt><trkpt lat="39.48438241" lon="-0.36396571"><ele>13.6</ele><time>2022-10-30T16:23:47.0000000+00:00</time></trkpt><trkpt lat="39.48440001" lon="-0.3637984"><ele>15.1</ele><time>2022-10-30T16:24:07.0000000+00:00</time></trkpt><trkpt lat="39.48446548" lon="-0.36398171"><ele>12.8</ele><time>2022-10-30T16:24:31.0000000+00:00</time></trkpt><trkpt lat="39.48496982" lon="-0.36365666"><ele>17.2</ele><time>2022-10-30T16:25:20.0000000+00:00</time></trkpt><trkpt lat="39.48510937" lon="-0.36303858"><ele>13.6</ele><time>2022-10-30T16:25:55.0000000+00:00</time></trkpt><trkpt lat="39.4852382" lon="-0.3634679"><ele>16.3</ele><time>2022-10-30T16:26:32.0000000+00:00</time></trkpt><trkpt lat="39.48562067" lon="-0.36373529"><ele>20.4</ele><time>2022-10-30T16:27:11.0000000+00:00</time></trkpt><trkpt lat="39.48543945" lon="-0.36417576"><ele>14.2</ele><time>2022-10-30T16:27:34.0000000+00:00</time></trkpt><trkpt lat="39.48549251" lon="-0.36454372"><ele>16.4</ele><time>2022-10-30T16:27:58.0000000+00:00</time></trkpt><trkpt lat="39.48578353" lon="-0.36504789"><ele>20.6</ele><time>2022-10-30T16:28:32.0000000+00:00</time></trkpt><trkpt lat="39.48592703" lon="-0.365901"><ele>19.3</ele><time>2022-10-30T16:29:20.0000000+00:00</time></trkpt><trkpt lat="39.48635752" lon="-0.36685537"><ele>15.1</ele><time>2022-10-30T16:30:21.0000000+00:00</time></trkpt><trkpt lat="39.48718088" lon="-0.36726482"><ele>21.4</ele><time>2022-10-30T16:31:32.0000000+00:00</time></trkpt><trkpt lat="39.48787473" lon="-0.36834626"><ele>19.3</ele><time>2022-10-30T16:33:45.0000000+00:00</time></trkpt><trkpt lat="39.48823758" lon="-0.36850241"><ele>18.0</ele><time>2022-10-30T16:34:16.0000000+00:00</time></trkpt><trkpt lat="39.4882722" lon="-0.36878731"><ele>17.5</ele><time>2022-10-30T16:34:33.0000000+00:00</time></trkpt><trkpt lat="39.48798068" lon="-0.36874423"><ele>14.7</ele><time>2022-10-30T16:36:26.0000000+00:00</time></trkpt><trkpt lat="39.48791597" lon="-0.36894028"><ele>13.9</ele><time>2022-10-30T16:36:38.0000000+00:00</time></trkpt><trkpt lat="39.48831135" lon="-0.36956666"><ele>16.9</ele><time>2022-10-30T16:37:15.0000000+00:00</time></trkpt><trkpt lat="39.48867596" lon="-0.37094029"><ele>21.3</ele><time>2022-10-30T16:59:54.0000000+00:00</time></trkpt><trkpt lat="39.4884882" lon="-0.37074097"><ele>23.0</ele><time>2022-10-30T16:59:57.0000000+00:00</time></trkpt><trkpt lat="39.48770047" lon="-0.37120013"><ele>16.2</ele><time>2022-10-30T17:01:00.0000000+00:00</time></trkpt><trkpt lat="39.48664879" lon="-0.37129375"><ele>18.8</ele><time>2022-10-30T17:02:56.0000000+00:00</time></trkpt><trkpt lat="39.48661141" lon="-0.37163062"><ele>23.1</ele><time>2022-10-30T17:03:08.0000000+00:00</time></trkpt><trkpt lat="39.48704124" lon="-0.37236949"><ele>25.5</ele><time>2022-10-30T17:03:52.0000000+00:00</time></trkpt><trkpt lat="39.48675097" lon="-0.37272924"><ele>23.6</ele><time>2022-10-30T17:04:27.0000000+00:00</time></trkpt><trkpt lat="39.48696538" lon="-0.37358888"><ele>20.7</ele><time>2022-10-30T17:05:09.0000000+00:00</time></trkpt><trkpt lat="39.48682473" lon="-0.37459035"><ele>19.9</ele><time>2022-10-30T17:06:06.0000000+00:00</time></trkpt><trkpt lat="39.48652214" lon="-0.37486034"><ele>22.2</ele><time>2022-10-30T17:06:36.0000000+00:00</time></trkpt><trkpt lat="39.48662323" lon="-0.37538513"><ele>20.3</ele><time>2022-10-30T17:07:09.0000000+00:00</time></trkpt><trkpt lat="39.48645559" lon="-0.37557758"><ele>24.2</ele><time>2022-10-30T17:07:23.0000000+00:00</time></trkpt><trkpt lat="39.48666732" lon="-0.37620907"><ele>22.6</ele><time>2022-10-30T17:07:55.0000000+00:00</time></trkpt><trkpt lat="39.48636339" lon="-0.37648081"><ele>23.3</ele><time>2022-10-30T17:08:21.0000000+00:00</time></trkpt><trkpt lat="39.48651854" lon="-0.37679488"><ele>22.2</ele><time>2022-10-30T17:08:46.0000000+00:00</time></trkpt><trkpt lat="39.486511" lon="-0.37729846"><ele>23.3</ele><time>2022-10-30T17:09:10.0000000+00:00</time></trkpt><trkpt lat="39.48633472" lon="-0.37757976"><ele>24.3</ele><time>2022-10-30T17:09:33.0000000+00:00</time></trkpt><trkpt lat="39.48643916" lon="-0.37807421"><ele>22.7</ele><time>2022-10-30T17:09:59.0000000+00:00</time></trkpt><trkpt lat="39.48605737" lon="-0.37824294"><ele>24.8</ele><time>2022-10-30T17:10:38.0000000+00:00</time></trkpt><trkpt lat="39.4861945" lon="-0.37831645"><ele>22.0</ele><time>2022-10-30T17:10:50.0000000+00:00</time></trkpt><trkpt lat="39.48628594" lon="-0.37876706"><ele>20.9</ele><time>2022-10-30T17:11:13.0000000+00:00</time></trkpt><trkpt lat="39.48612308" lon="-0.38008654"><ele>21.0</ele><time>2022-10-30T17:12:29.0000000+00:00</time></trkpt><trkpt lat="39.48619198" lon="-0.38082079"><ele>20.9</ele><time>2022-10-30T17:13:08.0000000+00:00</time></trkpt><trkpt lat="39.48595083" lon="-0.38093311"><ele>21.7</ele><time>2022-10-30T17:13:27.0000000+00:00</time></trkpt><trkpt lat="39.48586266" lon="-0.38139252"><ele>18.5</ele><time>2022-10-30T17:13:53.0000000+00:00</time></trkpt><trkpt lat="39.48597363" lon="-0.38320754"><ele>18.6</ele><time>2022-10-30T17:15:48.0000000+00:00</time></trkpt><trkpt lat="39.48531129" lon="-0.38430448"><ele>29.0</ele><time>2022-10-30T17:17:17.0000000+00:00</time></trkpt><trkpt lat="39.48512664" lon="-0.38519028"><ele>24.0</ele><time>2022-10-30T17:18:12.0000000+00:00</time></trkpt><trkpt lat="39.48474962" lon="-0.38553008"><ele>30.8</ele><time>2022-10-30T17:18:51.0000000+00:00</time></trkpt><trkpt lat="39.4848295" lon="-0.38578103"><ele>27.5</ele><time>2022-10-30T17:19:51.0000000+00:00</time></trkpt><trkpt lat="39.4849419" lon="-0.3856869"><ele>27.0</ele><time>2022-10-30T17:20:06.0000000+00:00</time></trkpt><trkpt lat="39.48454209" lon="-0.38589587"><ele>28.5</ele><time>2022-10-30T17:20:26.0000000+00:00</time></trkpt><trkpt lat="39.48485641" lon="-0.38587793"><ele>25.9</ele><time>2022-10-30T17:20:49.0000000+00:00</time></trkpt><trkpt lat="39.4848254" lon="-0.38602796"><ele>24.1</ele><time>2022-10-30T17:20:55.0000000+00:00</time></trkpt><trkpt lat="39.48482699" lon="-0.38537996"><ele>31.6</ele><time>2022-10-30T17:21:37.0000000+00:00</time></trkpt><trkpt lat="39.4848813" lon="-0.38578757"><ele>26.9</ele><time>2022-10-30T17:21:48.0000000+00:00</time></trkpt><trkpt lat="39.48465088" lon="-0.38547761"><ele>31.5</ele><time>2022-10-30T17:22:10.0000000+00:00</time></trkpt><trkpt lat="39.48488482" lon="-0.38526613"><ele>30.4</ele><time>2022-10-30T17:22:48.0000000+00:00</time></trkpt><trkpt lat="39.48452977" lon="-0.38566905"><ele>29.1</ele><time>2022-10-30T17:25:01.0000000+00:00</time></trkpt><trkpt lat="39.48456514" lon="-0.38544701"><ele>31.5</ele><time>2022-10-30T17:25:17.0000000+00:00</time></trkpt><trkpt lat="39.48396851" lon="-0.38530318"><ele>29.1</ele><time>2022-10-30T17:26:07.0000000+00:00</time></trkpt><trkpt lat="39.48386131" lon="-0.38500303"><ele>26.7</ele><time>2022-10-30T17:26:28.0000000+00:00</time></trkpt><trkpt lat="39.48337742" lon="-0.3850389"><ele>20.1</ele><time>2022-10-30T17:26:56.0000000+00:00</time></trkpt><trkpt lat="39.48298473" lon="-0.38581456"><ele>18.5</ele><time>2022-10-30T17:27:40.0000000+00:00</time></trkpt><trkpt lat="39.48293905" lon="-0.38632703"><ele>18.7</ele><time>2022-10-30T17:28:09.0000000+00:00</time></trkpt><trkpt lat="39.48258894" lon="-0.38687169"><ele>18.7</ele><time>2022-10-30T17:28:48.0000000+00:00</time></trkpt><trkpt lat="39.48290678" lon="-0.38712842"><ele>18.2</ele><time>2022-10-30T17:29:18.0000000+00:00</time></trkpt><trkpt lat="39.48290862" lon="-0.38759052"><ele>21.5</ele><time>2022-10-30T17:30:24.0000000+00:00</time></trkpt><trkpt lat="39.48294961" lon="-0.38744979"><ele>20.2</ele><time>2022-10-30T17:30:36.0000000+00:00</time></trkpt><trkpt lat="39.48263948" lon="-0.38724116"><ele>20.6</ele><time>2022-10-30T17:31:11.0000000+00:00</time></trkpt><trkpt lat="39.4827057" lon="-0.38732967"><ele>21.0</ele><time>2022-10-30T17:31:16.0000000+00:00</time></trkpt></trkseg><trkseg><trkpt lat="39.48282749" lon="-0.38727561"><ele>19.8</ele><time>2022-10-31T11:24:15.0000000+00:00</time></trkpt><trkpt lat="39.48255231" lon="-0.38729933"><ele>20.2</ele><time>2022-10-31T11:24:18.0000000+00:00</time></trkpt><trkpt lat="39.48282036" lon="-0.38735474"><ele>20.5</ele><time>2022-10-31T11:24:24.0000000+00:00</time></trkpt><trkpt lat="39.48270863" lon="-0.38778448"><ele>21.2</ele><time>2022-10-31T11:24:37.0000000+00:00</time></trkpt><trkpt lat="39.48221988" lon="-0.38791616"><ele>20.1</ele><time>2022-10-31T11:25:04.0000000+00:00</time></trkpt><trkpt lat="39.48340114" lon="-0.38523495"><ele>20.3</ele><time>2022-10-31T11:26:16.0000000+00:00</time></trkpt><trkpt lat="39.48180297" lon="-0.38421764"><ele>14.8</ele><time>2022-10-31T11:27:34.0000000+00:00</time></trkpt><trkpt lat="39.48156274" lon="-0.38421429"><ele>14.9</ele><time>2022-10-31T11:27:44.0000000+00:00</time></trkpt><trkpt lat="39.48106284" lon="-0.38503798"><ele>17.2</ele><time>2022-10-31T11:28:13.0000000+00:00</time></trkpt><trkpt lat="39.48146048" lon="-0.38411161"><ele>15.2</ele><time>2022-10-31T11:28:35.0000000+00:00</time></trkpt><trkpt lat="39.48118413" lon="-0.38420121"><ele>17.6</ele><time>2022-10-31T11:28:47.0000000+00:00</time></trkpt><trkpt lat="39.48046429" lon="-0.38324056"><ele>17.1</ele><time>2022-10-31T11:29:09.0000000+00:00</time></trkpt><trkpt lat="39.48170364" lon="-0.38018159"><ele>16.7</ele><time>2022-10-31T11:29:54.0000000+00:00</time></trkpt><trkpt lat="39.48166776" lon="-0.37935639"><ele>14.7</ele><time>2022-10-31T11:30:06.0000000+00:00</time></trkpt><trkpt lat="39.48136669" lon="-0.37899446"><ele>17.5</ele><time>2022-10-31T11:30:16.0000000+00:00</time></trkpt><trkpt lat="39.48128639" lon="-0.37815727"><ele>15.4</ele><time>2022-10-31T11:30:27.0000000+00:00</time></trkpt><trkpt lat="39.48023119" lon="-0.37633723"><ele>13.8</ele><time>2022-10-31T11:30:54.0000000+00:00</time></trkpt><trkpt lat="39.47994612" lon="-0.3755122"><ele>11.0</ele><time>2022-10-31T11:31:05.0000000+00:00</time></trkpt><trkpt lat="39.47933265" lon="-0.37452062"><ele>12.4</ele><time>2022-10-31T11:31:21.0000000+00:00</time></trkpt><trkpt lat="39.47899167" lon="-0.37423446"><ele>13.7</ele><time>2022-10-31T11:31:28.0000000+00:00</time></trkpt><trkpt lat="39.47683384" lon="-0.37052044"><ele>14.4</ele><time>2022-10-31T11:32:20.0000000+00:00</time></trkpt><trkpt lat="39.47552576" lon="-0.3689091"><ele>16.7</ele><time>2022-10-31T11:32:49.0000000+00:00</time></trkpt><trkpt lat="39.47515545" lon="-0.36896702"><ele>20.9</ele><time>2022-10-31T11:32:55.0000000+00:00</time></trkpt><trkpt lat="39.47398793" lon="-0.3678068"><ele>12.0</ele><time>2022-10-31T11:33:15.0000000+00:00</time></trkpt><trkpt lat="39.47417376" lon="-0.36691714"><ele>10.0</ele><time>2022-10-31T11:33:26.0000000+00:00</time></trkpt><trkpt lat="39.47309299" lon="-0.36608247"><ele>10.0</ele><time>2022-10-31T11:33:46.0000000+00:00</time></trkpt><trkpt lat="39.47261196" lon="-0.36644658"><ele>9.4</ele><time>2022-10-31T11:33:55.0000000+00:00</time></trkpt><trkpt lat="39.47235891" lon="-0.36639746"><ele>12.1</ele><time>2022-10-31T11:34:00.0000000+00:00</time></trkpt><trkpt lat="39.47059066" lon="-0.36507254"><ele>10.9</ele><time>2022-10-31T11:34:30.0000000+00:00</time></trkpt><trkpt lat="39.47032948" lon="-0.36471228"><ele>10.6</ele><time>2022-10-31T11:34:34.0000000+00:00</time></trkpt><trkpt lat="39.46855922" lon="-0.36352239"><ele>11.9</ele><time>2022-10-31T11:35:01.0000000+00:00</time></trkpt><trkpt lat="39.46434941" lon="-0.36102533"><ele>10.3</ele><time>2022-10-31T11:36:20.0000000+00:00</time></trkpt><trkpt lat="39.4613388" lon="-0.3598719"><ele>9.5</ele><time>2022-10-31T11:37:07.0000000+00:00</time></trkpt><trkpt lat="39.45981581" lon="-0.35864689"><ele>7.7</ele><time>2022-10-31T11:37:38.0000000+00:00</time></trkpt><trkpt lat="39.45946134" lon="-0.35784633"><ele>5.7</ele><time>2022-10-31T11:37:49.0000000+00:00</time></trkpt><trkpt lat="39.45850412" lon="-0.35416273"><ele>6.0</ele><time>2022-10-31T11:38:43.0000000+00:00</time></trkpt><trkpt lat="39.4581655" lon="-0.35376166"><ele>4.7</ele><time>2022-10-31T11:38:51.0000000+00:00</time></trkpt><trkpt lat="39.45754482" lon="-0.35353744"><ele>3.9</ele><time>2022-10-31T11:39:13.0000000+00:00</time></trkpt><trkpt lat="39.45706219" lon="-0.35273463"><ele>5.0</ele><time>2022-10-31T11:39:32.0000000+00:00</time></trkpt><trkpt lat="39.45703042" lon="-0.35208033"><ele>4.8</ele><time>2022-10-31T11:39:49.0000000+00:00</time></trkpt><trkpt lat="39.45540433" lon="-0.34963952"><ele>4.0</ele><time>2022-10-31T11:40:38.0000000+00:00</time></trkpt><trkpt lat="39.45497291" lon="-0.3493366"><ele>5.0</ele><time>2022-10-31T11:40:47.0000000+00:00</time></trkpt><trkpt lat="39.4548725" lon="-0.3489222"><ele>2.5</ele><time>2022-10-31T11:40:54.0000000+00:00</time></trkpt><trkpt lat="39.45452901" lon="-0.34917424"><ele>4.9</ele><time>2022-10-31T11:41:20.0000000+00:00</time></trkpt><trkpt lat="39.45432918" lon="-0.34897006"><ele>6.2</ele><time>2022-10-31T11:41:33.0000000+00:00</time></trkpt><trkpt lat="39.45295505" lon="-0.34984421"><ele>5.5</ele><time>2022-10-31T11:43:10.0000000+00:00</time></trkpt><trkpt lat="39.45337457" lon="-0.35109806"><ele>6.3</ele><time>2022-10-31T11:43:48.0000000+00:00</time></trkpt><trkpt lat="39.45298447" lon="-0.35107937"><ele>5.1</ele><time>2022-10-31T11:44:01.0000000+00:00</time></trkpt><trkpt lat="39.45269932" lon="-0.35168622"><ele>4.7</ele><time>2022-10-31T11:45:06.0000000+00:00</time></trkpt><trkpt lat="39.45289688" lon="-0.3508585"><ele>5.4</ele><time>2022-10-31T11:46:05.0000000+00:00</time></trkpt><trkpt lat="39.44794326" lon="-0.34535738"><ele>2.9</ele><time>2022-10-31T11:47:47.0000000+00:00</time></trkpt><trkpt lat="39.44639437" lon="-0.34288723"><ele>3.9</ele><time>2022-10-31T11:48:32.0000000+00:00</time></trkpt><trkpt lat="39.44607426" lon="-0.34271565"><ele>6.6</ele><time>2022-10-31T11:48:43.0000000+00:00</time></trkpt><trkpt lat="39.44553296" lon="-0.34184109"><ele>6.2</ele><time>2022-10-31T11:48:58.0000000+00:00</time></trkpt><trkpt lat="39.44548535" lon="-0.34049353"><ele>3.5</ele><time>2022-10-31T11:49:40.0000000+00:00</time></trkpt><trkpt lat="39.44548133" lon="-0.34066645"><ele>3.8</ele><time>2022-10-31T11:50:07.0000000+00:00</time></trkpt><trkpt lat="39.44534219" lon="-0.34016831"><ele>2.8</ele><time>2022-10-31T11:50:24.0000000+00:00</time></trkpt><trkpt lat="39.4445874" lon="-0.3403284"><ele>2.5</ele><time>2022-10-31T11:50:43.0000000+00:00</time></trkpt><trkpt lat="39.44280457" lon="-0.33884279"><ele>4.6</ele><time>2022-10-31T11:51:16.0000000+00:00</time></trkpt><trkpt lat="39.44122198" lon="-0.33807451"><ele>3.0</ele><time>2022-10-31T11:51:42.0000000+00:00</time></trkpt><trkpt lat="39.43907269" lon="-0.33777922"><ele>5.6</ele><time>2022-10-31T11:52:20.0000000+00:00</time></trkpt><trkpt lat="39.43681117" lon="-0.33820175"><ele>3.1</ele><time>2022-10-31T11:53:12.0000000+00:00</time></trkpt><trkpt lat="39.43347752" lon="-0.33985063"><ele>3.6</ele><time>2022-10-31T11:53:59.0000000+00:00</time></trkpt><trkpt lat="39.43080378" lon="-0.34057374"><ele>3.5</ele><time>2022-10-31T11:54:36.0000000+00:00</time></trkpt><trkpt lat="39.43040631" lon="-0.34038649"><ele>2.6</ele><time>2022-10-31T11:54:42.0000000+00:00</time></trkpt><trkpt lat="39.43001764" lon="-0.3398788"><ele>3.2</ele><time>2022-10-31T11:54:50.0000000+00:00</time></trkpt><trkpt lat="39.4298645" lon="-0.33920129"><ele>3.7</ele><time>2022-10-31T11:54:59.0000000+00:00</time></trkpt><trkpt lat="39.42989644" lon="-0.3381471"><ele>2.2</ele><time>2022-10-31T11:55:18.0000000+00:00</time></trkpt><trkpt lat="39.42946519" lon="-0.33794048"><ele>2.1</ele><time>2022-10-31T11:55:28.0000000+00:00</time></trkpt><trkpt lat="39.42911474" lon="-0.33815833"><ele>3.6</ele><time>2022-10-31T11:55:37.0000000+00:00</time></trkpt><trkpt lat="39.42895867" lon="-0.33900901"><ele>5.4</ele><time>2022-10-31T11:55:53.0000000+00:00</time></trkpt><trkpt lat="39.4280955" lon="-0.33916441"><ele>3.5</ele><time>2022-10-31T11:56:10.0000000+00:00</time></trkpt><trkpt lat="39.42592425" lon="-0.34033402"><ele>7.4</ele><time>2022-10-31T11:56:51.0000000+00:00</time></trkpt><trkpt lat="39.42574597" lon="-0.34004048"><ele>8.6</ele><time>2022-10-31T11:56:55.0000000+00:00</time></trkpt><trkpt lat="39.4256132" lon="-0.33877264"><ele>6.1</ele><time>2022-10-31T11:57:09.0000000+00:00</time></trkpt><trkpt lat="39.42492127" lon="-0.33685964"><ele>2.8</ele><time>2022-10-31T11:57:33.0000000+00:00</time></trkpt><trkpt lat="39.42435147" lon="-0.3353633"><ele>1.9</ele><time>2022-10-31T11:57:53.0000000+00:00</time></trkpt><trkpt lat="39.42421057" lon="-0.33541485"><ele>1.4</ele><time>2022-10-31T11:58:02.0000000+00:00</time></trkpt><trkpt lat="39.42392349" lon="-0.33484865"><ele>0.8</ele><time>2022-10-31T11:58:16.0000000+00:00</time></trkpt><trkpt lat="39.42063443" lon="-0.33398724"><ele>1.0</ele><time>2022-10-31T12:01:51.0000000+00:00</time></trkpt><trkpt lat="39.42003404" lon="-0.33428052"><ele>1.4</ele><time>2022-10-31T12:02:03.0000000+00:00</time></trkpt><trkpt lat="39.41874331" lon="-0.33433719"><ele>1.2</ele><time>2022-10-31T12:02:24.0000000+00:00</time></trkpt><trkpt lat="39.41760111" lon="-0.33462041"><ele>2.3</ele><time>2022-10-31T12:02:43.0000000+00:00</time></trkpt><trkpt lat="39.41655354" lon="-0.33410551"><ele>1.9</ele><time>2022-10-31T12:03:01.0000000+00:00</time></trkpt><trkpt lat="39.41564586" lon="-0.33397609"><ele>1.3</ele><time>2022-10-31T12:03:15.0000000+00:00</time></trkpt><trkpt lat="39.41393646" lon="-0.33299348"><ele>1.3</ele><time>2022-10-31T12:03:43.0000000+00:00</time></trkpt><trkpt lat="39.41293281" lon="-0.33322667"><ele>1.4</ele><time>2022-10-31T12:03:59.0000000+00:00</time></trkpt><trkpt lat="39.41192916" lon="-0.3330628"><ele>1.4</ele><time>2022-10-31T12:04:15.0000000+00:00</time></trkpt><trkpt lat="39.41125299" lon="-0.33331979"><ele>1.8</ele><time>2022-10-31T12:04:26.0000000+00:00</time></trkpt><trkpt lat="39.40659123" lon="-0.3323842"><ele>2.9</ele><time>2022-10-31T12:05:36.0000000+00:00</time></trkpt><trkpt lat="39.40397481" lon="-0.33221824"><ele>2.5</ele><time>2022-10-31T12:06:14.0000000+00:00</time></trkpt><trkpt lat="39.40274477" lon="-0.33139145"><ele>2.1</ele><time>2022-10-31T12:06:35.0000000+00:00</time></trkpt><trkpt lat="39.40166619" lon="-0.33098736"><ele>1.8</ele><time>2022-10-31T12:06:54.0000000+00:00</time></trkpt><trkpt lat="39.40096152" lon="-0.33107696"><ele>0.3</ele><time>2022-10-31T12:07:05.0000000+00:00</time></trkpt><trkpt lat="39.39835701" lon="-0.33022586"><ele>2.2</ele><time>2022-10-31T12:07:48.0000000+00:00</time></trkpt><trkpt lat="39.39716318" lon="-0.33008538"><ele>1.5</ele><time>2022-10-31T12:08:07.0000000+00:00</time></trkpt><trkpt lat="39.39698104" lon="-0.32988547"><ele>1.4</ele><time>2022-10-31T12:08:11.0000000+00:00</time></trkpt><trkpt lat="39.39686897" lon="-0.32923345"><ele>1.2</ele><time>2022-10-31T12:08:19.0000000+00:00</time></trkpt><trkpt lat="39.39630068" lon="-0.32904234"><ele>1.4</ele><time>2022-10-31T12:08:29.0000000+00:00</time></trkpt><trkpt lat="39.39601083" lon="-0.32862852"><ele>1.1</ele><time>2022-10-31T12:08:38.0000000+00:00</time></trkpt><trkpt lat="39.39500324" lon="-0.32852258"><ele>1.0</ele><time>2022-10-31T12:08:59.0000000+00:00</time></trkpt><trkpt lat="39.39231919" lon="-0.32884318"><ele>2.2</ele><time>2022-10-31T12:09:40.0000000+00:00</time></trkpt><trkpt lat="39.3903507" lon="-0.33037531"><ele>3.3</ele><time>2022-10-31T12:10:13.0000000+00:00</time></trkpt><trkpt lat="39.39023914" lon="-0.33059903"><ele>4.6</ele><time>2022-10-31T12:10:17.0000000+00:00</time></trkpt><trkpt lat="39.39033134" lon="-0.33083255"><ele>3.9</ele><time>2022-10-31T12:10:26.0000000+00:00</time></trkpt><trkpt lat="39.38894405" lon="-0.3311234"><ele>4.2</ele><time>2022-10-31T12:11:07.0000000+00:00</time></trkpt><trkpt lat="39.38801944" lon="-0.32798261"><ele>1.7</ele><time>2022-10-31T12:11:59.0000000+00:00</time></trkpt><trkpt lat="39.38581098" lon="-0.3272471"><ele>1.7</ele><time>2022-10-31T12:12:41.0000000+00:00</time></trkpt><trkpt lat="39.38483566" lon="-0.32719924"><ele>2.1</ele><time>2022-10-31T12:12:55.0000000+00:00</time></trkpt><trkpt lat="39.38349674" lon="-0.32621931"><ele>1.9</ele><time>2022-10-31T12:13:18.0000000+00:00</time></trkpt><trkpt lat="39.38167384" lon="-0.32449884"><ele>2.3</ele><time>2022-10-31T12:13:54.0000000+00:00</time></trkpt><trkpt lat="39.38089441" lon="-0.3244742"><ele>2.4</ele><time>2022-10-31T12:14:09.0000000+00:00</time></trkpt><trkpt lat="39.38024372" lon="-0.32418092"><ele>2.3</ele><time>2022-10-31T12:14:21.0000000+00:00</time></trkpt><trkpt lat="39.379775" lon="-0.32423431"><ele>2.8</ele><time>2022-10-31T12:14:29.0000000+00:00</time></trkpt><trkpt lat="39.37807524" lon="-0.3234698"><ele>2.7</ele><time>2022-10-31T12:14:57.0000000+00:00</time></trkpt><trkpt lat="39.3769767" lon="-0.32343828"><ele>2.3</ele><time>2022-10-31T12:15:14.0000000+00:00</time></trkpt><trkpt lat="39.3764981" lon="-0.32287711"><ele>2.2</ele><time>2022-10-31T12:15:25.0000000+00:00</time></trkpt><trkpt lat="39.37385486" lon="-0.32240002"><ele>1.1</ele><time>2022-10-31T12:16:12.0000000+00:00</time></trkpt><trkpt lat="39.37407673" lon="-0.3223452"><ele>1.5</ele><time>2022-10-31T12:16:29.0000000+00:00</time></trkpt><trkpt lat="39.37405041" lon="-0.32221913"><ele>1.2</ele><time>2022-10-31T12:16:47.0000000+00:00</time></trkpt><trkpt lat="39.37382285" lon="-0.32244058"><ele>1.0</ele><time>2022-10-31T12:16:58.0000000+00:00</time></trkpt><trkpt lat="39.37235492" lon="-0.32229952"><ele>0.6</ele><time>2022-10-31T12:17:26.0000000+00:00</time></trkpt><trkpt lat="39.37182326" lon="-0.32200196"><ele>1.0</ele><time>2022-10-31T12:17:36.0000000+00:00</time></trkpt><trkpt lat="39.37129336" lon="-0.32127022"><ele>1.3</ele><time>2022-10-31T12:17:50.0000000+00:00</time></trkpt><trkpt lat="39.37085867" lon="-0.32139922"><ele>1.5</ele><time>2022-10-31T12:18:02.0000000+00:00</time></trkpt><trkpt lat="39.37064753" lon="-0.32185226"><ele>1.3</ele><time>2022-10-31T12:18:11.0000000+00:00</time></trkpt><trkpt lat="39.37042264" lon="-0.32182242"><ele>1.4</ele><time>2022-10-31T12:18:15.0000000+00:00</time></trkpt><trkpt lat="39.36636622" lon="-0.32035349"><ele>1.9</ele><time>2022-10-31T12:19:22.0000000+00:00</time></trkpt><trkpt lat="39.36217183" lon="-0.31935764"><ele>1.5</ele><time>2022-10-31T12:20:38.0000000+00:00</time></trkpt><trkpt lat="39.35766195" lon="-0.31774982"><ele>1.8</ele><time>2022-10-31T12:21:50.0000000+00:00</time></trkpt><trkpt lat="39.35548374" lon="-0.31774672"><ele>1.9</ele><time>2022-10-31T12:22:23.0000000+00:00</time></trkpt><trkpt lat="39.35507982" lon="-0.31750716"><ele>1.9</ele><time>2022-10-31T12:22:30.0000000+00:00</time></trkpt><trkpt lat="39.35369094" lon="-0.31588568"><ele>1.8</ele><time>2022-10-31T12:23:01.0000000+00:00</time></trkpt><trkpt lat="39.35314377" lon="-0.315623"><ele>1.6</ele><time>2022-10-31T12:23:10.0000000+00:00</time></trkpt><trkpt lat="39.35198128" lon="-0.31537741"><ele>1.7</ele><time>2022-10-31T12:23:32.0000000+00:00</time></trkpt><trkpt lat="39.35064479" lon="-0.31644249"><ele>6.3</ele><time>2022-10-31T12:24:03.0000000+00:00</time></trkpt><trkpt lat="39.35024221" lon="-0.31695362"><ele>2.2</ele><time>2022-10-31T12:26:06.0000000+00:00</time></trkpt><trkpt lat="39.34869331" lon="-0.31645155"><ele>-0.8</ele><time>2022-10-31T12:28:57.0000000+00:00</time></trkpt><trkpt lat="39.34835225" lon="-0.31703409"><ele>-0.6</ele><time>2022-10-31T12:29:15.0000000+00:00</time></trkpt><trkpt lat="39.34786049" lon="-0.3171661"><ele>1.6</ele><time>2022-10-31T12:29:31.0000000+00:00</time></trkpt><trkpt lat="39.34759797" lon="-0.31823639"><ele>6.8</ele><time>2022-10-31T12:29:58.0000000+00:00</time></trkpt><trkpt lat="39.34718818" lon="-0.31817109"><ele>5.3</ele><time>2022-10-31T12:30:52.0000000+00:00</time></trkpt><trkpt lat="39.34547869" lon="-0.31632305"><ele>4.2</ele><time>2022-10-31T12:31:54.0000000+00:00</time></trkpt><trkpt lat="39.34585202" lon="-0.3156701"><ele>3.3</ele><time>2022-10-31T12:34:03.0000000+00:00</time></trkpt><trkpt lat="39.34489279" lon="-0.31454324"><ele>2.5</ele><time>2022-10-31T12:34:32.0000000+00:00</time></trkpt><trkpt lat="39.34474552" lon="-0.31406773"><ele>3.1</ele><time>2022-10-31T12:34:40.0000000+00:00</time></trkpt><trkpt lat="39.34499497" lon="-0.31293048"><ele>3.6</ele><time>2022-10-31T12:34:57.0000000+00:00</time></trkpt><trkpt lat="39.34521047" lon="-0.31256033"><ele>3.6</ele><time>2022-10-31T12:35:04.0000000+00:00</time></trkpt><trkpt lat="39.34554381" lon="-0.31246117"><ele>2.4</ele><time>2022-10-31T12:35:11.0000000+00:00</time></trkpt><trkpt lat="39.34632417" lon="-0.31264583"><ele>1.8</ele><time>2022-10-31T12:35:30.0000000+00:00</time></trkpt><trkpt lat="39.34654118" lon="-0.31240828"><ele>1.9</ele><time>2022-10-31T12:35:43.0000000+00:00</time></trkpt><trkpt lat="39.34616374" lon="-0.31136231"><ele>1.5</ele><time>2022-10-31T12:36:12.0000000+00:00</time></trkpt><trkpt lat="39.34545522" lon="-0.3109578"><ele>1.5</ele><time>2022-10-31T12:36:39.0000000+00:00</time></trkpt><trkpt lat="39.34633951" lon="-0.31162608"><ele>1.5</ele><time>2022-10-31T12:37:08.0000000+00:00</time></trkpt><trkpt lat="39.34733561" lon="-0.31097104"><ele>2.0</ele><time>2022-10-31T13:22:58.0000000+00:00</time></trkpt><trkpt lat="39.34627346" lon="-0.31161913"><ele>1.5</ele><time>2022-10-31T13:25:00.0000000+00:00</time></trkpt><trkpt lat="39.34585285" lon="-0.31115175"><ele>1.4</ele><time>2022-10-31T13:25:14.0000000+00:00</time></trkpt><trkpt lat="39.34435375" lon="-0.31052135"><ele>0.5</ele><time>2022-10-31T13:25:50.0000000+00:00</time></trkpt><trkpt lat="39.34310912" lon="-0.31107162"><ele>1.4</ele><time>2022-10-31T13:26:21.0000000+00:00</time></trkpt><trkpt lat="39.34198821" lon="-0.31083425"><ele>2.3</ele><time>2022-10-31T13:26:43.0000000+00:00</time></trkpt><trkpt lat="39.34163164" lon="-0.31102845"><ele>2.8</ele><time>2022-10-31T13:26:50.0000000+00:00</time></trkpt><trkpt lat="39.33966776" lon="-0.31737364"><ele>3.7</ele><time>2022-10-31T13:29:28.0000000+00:00</time></trkpt><trkpt lat="39.33969693" lon="-0.31856571"><ele>3.5</ele><time>2022-10-31T13:30:18.0000000+00:00</time></trkpt><trkpt lat="39.34026774" lon="-0.31893586"><ele>3.3</ele><time>2022-10-31T13:31:37.0000000+00:00</time></trkpt><trkpt lat="39.33988947" lon="-0.31926694"><ele>2.5</ele><time>2022-10-31T13:32:02.0000000+00:00</time></trkpt><trkpt lat="39.33944397" lon="-0.32042172"><ele>1.8</ele><time>2022-10-31T13:32:23.0000000+00:00</time></trkpt><trkpt lat="39.33914624" lon="-0.32062154"><ele>2.1</ele><time>2022-10-31T13:32:29.0000000+00:00</time></trkpt><trkpt lat="39.33091882" lon="-0.31925789"><ele>1.7</ele><time>2022-10-31T13:35:27.0000000+00:00</time></trkpt><trkpt lat="39.32913423" lon="-0.31875447"><ele>0.6</ele><time>2022-10-31T13:35:59.0000000+00:00</time></trkpt><trkpt lat="39.32512784" lon="-0.31831753"><ele>0.3</ele><time>2022-10-31T13:37:14.0000000+00:00</time></trkpt><trkpt lat="39.32463583" lon="-0.3185689"><ele>0.9</ele><time>2022-10-31T13:37:27.0000000+00:00</time></trkpt><trkpt lat="39.32328433" lon="-0.31804159"><ele>0.3</ele><time>2022-10-31T13:37:56.0000000+00:00</time></trkpt><trkpt lat="39.31834915" lon="-0.31762644"><ele>1.1</ele><time>2022-10-31T13:42:22.0000000+00:00</time></trkpt><trkpt lat="39.31753242" lon="-0.31728236"><ele>0.5</ele><time>2022-10-31T13:43:41.0000000+00:00</time></trkpt><trkpt lat="39.31678785" lon="-0.31774161"><ele>1.9</ele><time>2022-10-31T13:44:06.0000000+00:00</time></trkpt><trkpt lat="39.31141145" lon="-0.31768008"><ele>4.3</ele><time>2022-10-31T13:46:10.0000000+00:00</time></trkpt><trkpt lat="39.31046982" lon="-0.31799499"><ele>4.5</ele><time>2022-10-31T13:46:40.0000000+00:00</time></trkpt><trkpt lat="39.31024611" lon="-0.31776139"><ele>5.5</ele><time>2022-10-31T13:47:05.0000000+00:00</time></trkpt><trkpt lat="39.30662178" lon="-0.31833312"><ele>1.0</ele><time>2022-10-31T13:49:04.0000000+00:00</time></trkpt><trkpt lat="39.30649395" lon="-0.32018543"><ele>-0.2</ele><time>2022-10-31T13:50:16.0000000+00:00</time></trkpt><trkpt lat="39.30331143" lon="-0.32946303"><ele>-1.0</ele><time>2022-10-31T13:53:46.0000000+00:00</time></trkpt><trkpt lat="39.30321621" lon="-0.33007314"><ele>-0.7</ele><time>2022-10-31T13:54:02.0000000+00:00</time></trkpt><trkpt lat="39.30171669" lon="-0.33010801"><ele>-1.2</ele><time>2022-10-31T13:54:43.0000000+00:00</time></trkpt><trkpt lat="39.30085142" lon="-0.32970241"><ele>0.6</ele><time>2022-10-31T13:55:19.0000000+00:00</time></trkpt><trkpt lat="39.30222706" lon="-0.33381826"><ele>-1.0</ele><time>2022-10-31T13:56:31.0000000+00:00</time></trkpt><trkpt lat="39.3035856" lon="-0.33529214"><ele>-0.7</ele><time>2022-10-31T13:58:08.0000000+00:00</time></trkpt><trkpt lat="39.30262428" lon="-0.33629034"><ele>-0.9</ele><time>2022-10-31T13:58:41.0000000+00:00</time></trkpt><trkpt lat="39.30042587" lon="-0.34215055"><ele>-0.4</ele><time>2022-10-31T14:00:06.0000000+00:00</time></trkpt><trkpt lat="39.29930479" lon="-0.34369089"><ele>-0.8</ele><time>2022-10-31T14:00:32.0000000+00:00</time></trkpt><trkpt lat="39.29878864" lon="-0.34395601"><ele>-0.3</ele><time>2022-10-31T14:00:41.0000000+00:00</time></trkpt><trkpt lat="39.29075567" lon="-0.34582735"><ele>-0.2</ele><time>2022-10-31T14:03:13.0000000+00:00</time></trkpt><trkpt lat="39.28841293" lon="-0.34725756"><ele>0.0</ele><time>2022-10-31T14:03:56.0000000+00:00</time></trkpt><trkpt lat="39.28661451" lon="-0.34774773"><ele>-0.0</ele><time>2022-10-31T14:05:04.0000000+00:00</time></trkpt><trkpt lat="39.28665198" lon="-0.34800665"><ele>0.0</ele><time>2022-10-31T14:06:45.0000000+00:00</time></trkpt><trkpt lat="39.28639985" lon="-0.3478028"><ele>0.0</ele><time>2022-10-31T14:07:23.0000000+00:00</time></trkpt><trkpt lat="39.27998375" lon="-0.34944473"><ele>0.0</ele><time>2022-10-31T14:09:19.0000000+00:00</time></trkpt><trkpt lat="39.27739911" lon="-0.35036934"><ele>-0.0</ele><time>2022-10-31T14:10:14.0000000+00:00</time></trkpt><trkpt lat="39.27589598" lon="-0.35047554"><ele>-0.1</ele><time>2022-10-31T14:10:42.0000000+00:00</time></trkpt><trkpt lat="39.27449092" lon="-0.35214949"><ele>-0.0</ele><time>2022-10-31T14:11:15.0000000+00:00</time></trkpt><trkpt lat="39.27425288" lon="-0.35310737"><ele>-0.0</ele><time>2022-10-31T14:11:29.0000000+00:00</time></trkpt><trkpt lat="39.2739699" lon="-0.35332044"><ele>-0.0</ele><time>2022-10-31T14:11:35.0000000+00:00</time></trkpt><trkpt lat="39.2690903" lon="-0.35382452"><ele>0.4</ele><time>2022-10-31T14:13:05.0000000+00:00</time></trkpt><trkpt lat="39.26746052" lon="-0.35260286"><ele>0.4</ele><time>2022-10-31T14:13:48.0000000+00:00</time></trkpt><trkpt lat="39.26437061" lon="-0.35292003"><ele>0.4</ele><time>2022-10-31T14:15:00.0000000+00:00</time></trkpt><trkpt lat="39.2644282" lon="-0.35250153"><ele>0.3</ele><time>2022-10-31T14:15:15.0000000+00:00</time></trkpt><trkpt lat="39.26399854" lon="-0.35044938"><ele>0.5</ele><time>2022-10-31T14:15:53.0000000+00:00</time></trkpt><trkpt lat="39.26373535" lon="-0.34991814"><ele>0.4</ele><time>2022-10-31T14:16:05.0000000+00:00</time></trkpt><trkpt lat="39.26349311" lon="-0.34752796"><ele>0.9</ele><time>2022-10-31T14:16:43.0000000+00:00</time></trkpt><trkpt lat="39.26248142" lon="-0.34682832"><ele>1.1</ele><time>2022-10-31T14:17:09.0000000+00:00</time></trkpt><trkpt lat="39.25854829" lon="-0.34586549"><ele>0.9</ele><time>2022-10-31T14:18:23.0000000+00:00</time></trkpt><trkpt lat="39.25704106" lon="-0.34606934"><ele>1.2</ele><time>2022-10-31T14:18:51.0000000+00:00</time></trkpt><trkpt lat="39.25592258" lon="-0.34595752"><ele>1.5</ele><time>2022-10-31T14:19:20.0000000+00:00</time></trkpt><trkpt lat="39.25573021" lon="-0.34417746"><ele>1.4</ele><time>2022-10-31T14:19:51.0000000+00:00</time></trkpt><trkpt lat="39.25592174" lon="-0.3434914"><ele>1.1</ele><time>2022-10-31T14:20:03.0000000+00:00</time></trkpt><trkpt lat="39.25566685" lon="-0.34302059"><ele>0.9</ele><time>2022-10-31T14:20:13.0000000+00:00</time></trkpt><trkpt lat="39.25485137" lon="-0.34274248"><ele>1.2</ele><time>2022-10-31T14:20:30.0000000+00:00</time></trkpt><trkpt lat="39.25430127" lon="-0.34035414"><ele>1.1</ele><time>2022-10-31T14:21:07.0000000+00:00</time></trkpt><trkpt lat="39.25222792" lon="-0.3387568"><ele>1.1</ele><time>2022-10-31T14:21:54.0000000+00:00</time></trkpt><trkpt lat="39.25075857" lon="-0.33852034"><ele>1.3</ele><time>2022-10-31T14:22:30.0000000+00:00</time></trkpt><trkpt lat="39.25145343" lon="-0.33585523"><ele>1.2</ele><time>2022-10-31T14:23:24.0000000+00:00</time></trkpt><trkpt lat="39.2532169" lon="-0.33443634"><ele>1.1</ele><time>2022-10-31T14:24:04.0000000+00:00</time></trkpt><trkpt lat="39.25295153" lon="-0.33334125"><ele>0.8</ele><time>2022-10-31T14:24:23.0000000+00:00</time></trkpt><trkpt lat="39.25304423" lon="-0.33178138"><ele>0.7</ele><time>2022-10-31T14:24:48.0000000+00:00</time></trkpt><trkpt lat="39.25341832" lon="-0.33132825"><ele>0.7</ele><time>2022-10-31T14:25:00.0000000+00:00</time></trkpt><trkpt lat="39.25366751" lon="-0.33025553"><ele>0.9</ele><time>2022-10-31T14:25:17.0000000+00:00</time></trkpt><trkpt lat="39.25427017" lon="-0.32928156"><ele>0.7</ele><time>2022-10-31T14:25:42.0000000+00:00</time></trkpt><trkpt lat="39.25402751" lon="-0.32900353"><ele>0.6</ele><time>2022-10-31T14:27:23.0000000+00:00</time></trkpt><trkpt lat="39.25339359" lon="-0.32876314"><ele>0.5</ele><time>2022-10-31T14:27:39.0000000+00:00</time></trkpt><trkpt lat="39.25315118" lon="-0.32812955"><ele>0.3</ele><time>2022-10-31T14:27:51.0000000+00:00</time></trkpt><trkpt lat="39.25209859" lon="-0.32880781"><ele>0.4</ele><time>2022-10-31T14:28:21.0000000+00:00</time></trkpt><trkpt lat="39.25129459" lon="-0.32876842"><ele>0.5</ele><time>2022-10-31T14:28:46.0000000+00:00</time></trkpt><trkpt lat="39.25026245" lon="-0.32820272"><ele>0.6</ele><time>2022-10-31T14:29:09.0000000+00:00</time></trkpt><trkpt lat="39.24995508" lon="-0.32700981"><ele>0.5</ele><time>2022-10-31T14:29:31.0000000+00:00</time></trkpt><trkpt lat="39.24875169" lon="-0.32585051"><ele>0.6</ele><time>2022-10-31T14:30:04.0000000+00:00</time></trkpt><trkpt lat="39.24883853" lon="-0.32488634"><ele>0.5</ele><time>2022-10-31T14:30:20.0000000+00:00</time></trkpt><trkpt lat="39.24777076" lon="-0.32302304"><ele>0.6</ele><time>2022-10-31T14:30:59.0000000+00:00</time></trkpt><trkpt lat="39.24748703" lon="-0.32223824"><ele>0.6</ele><time>2022-10-31T14:31:19.0000000+00:00</time></trkpt><trkpt lat="39.24618314" lon="-0.32259464"><ele>0.7</ele><time>2022-10-31T14:31:56.0000000+00:00</time></trkpt><trkpt lat="39.24427978" lon="-0.32205963"><ele>1.0</ele><time>2022-10-31T14:32:42.0000000+00:00</time></trkpt><trkpt lat="39.24395959" lon="-0.32164782"><ele>1.1</ele><time>2022-10-31T14:32:52.0000000+00:00</time></trkpt><trkpt lat="39.24265503" lon="-0.31843563"><ele>1.4</ele><time>2022-10-31T14:34:06.0000000+00:00</time></trkpt><trkpt lat="39.24145558" lon="-0.31919695"><ele>2.1</ele><time>2022-10-31T14:34:46.0000000+00:00</time></trkpt><trkpt lat="39.24110496" lon="-0.31899621"><ele>1.9</ele><time>2022-10-31T14:34:58.0000000+00:00</time></trkpt><trkpt lat="39.24091076" lon="-0.31846044"><ele>2.6</ele><time>2022-10-31T14:35:08.0000000+00:00</time></trkpt><trkpt lat="39.24085007" lon="-0.31761789"><ele>2.8</ele><time>2022-10-31T14:35:26.0000000+00:00</time></trkpt><trkpt lat="39.24147276" lon="-0.3178753"><ele>5.7</ele><time>2022-10-31T14:35:51.0000000+00:00</time></trkpt><trkpt lat="39.24225999" lon="-0.31765536"><ele>5.2</ele><time>2022-10-31T14:36:15.0000000+00:00</time></trkpt><trkpt lat="39.24299777" lon="-0.31646898"><ele>7.5</ele><time>2022-10-31T14:36:58.0000000+00:00</time></trkpt><trkpt lat="39.24265419" lon="-0.31671289"><ele>6.0</ele><time>2022-10-31T14:37:18.0000000+00:00</time></trkpt><trkpt lat="39.24193226" lon="-0.31649957"><ele>11.5</ele><time>2022-10-31T14:38:58.0000000+00:00</time></trkpt><trkpt lat="39.24204114" lon="-0.31600487"><ele>12.3</ele><time>2022-10-31T14:42:53.0000000+00:00</time></trkpt><trkpt lat="39.24241455" lon="-0.31586716"><ele>19.8</ele><time>2022-10-31T14:44:59.0000000+00:00</time></trkpt><trkpt lat="39.24217533" lon="-0.31589943"><ele>15.0</ele><time>2022-10-31T14:45:31.0000000+00:00</time></trkpt><trkpt lat="39.24226083" lon="-0.31631257"><ele>20.8</ele><time>2022-10-31T14:46:02.0000000+00:00</time></trkpt><trkpt lat="39.24215371" lon="-0.31581402"><ele>13.1</ele><time>2022-10-31T14:47:37.0000000+00:00</time></trkpt><trkpt lat="39.24183419" lon="-0.31639053"><ele>9.6</ele><time>2022-10-31T15:02:16.0000000+00:00</time></trkpt><trkpt lat="39.24099617" lon="-0.31684005"><ele>1.6</ele><time>2022-10-31T15:02:40.0000000+00:00</time></trkpt><trkpt lat="39.2408064" lon="-0.31743893"><ele>2.1</ele><time>2022-10-31T15:02:56.0000000+00:00</time></trkpt><trkpt lat="39.24096205" lon="-0.31883343"><ele>2.6</ele><time>2022-10-31T15:03:22.0000000+00:00</time></trkpt><trkpt lat="39.23996804" lon="-0.318788"><ele>1.4</ele><time>2022-10-31T15:03:47.0000000+00:00</time></trkpt><trkpt lat="39.23764693" lon="-0.31729443"><ele>1.4</ele><time>2022-10-31T15:04:35.0000000+00:00</time></trkpt><trkpt lat="39.23632342" lon="-0.316975"><ele>1.2</ele><time>2022-10-31T15:04:59.0000000+00:00</time></trkpt><trkpt lat="39.23391555" lon="-0.31703711"><ele>1.3</ele><time>2022-10-31T15:05:40.0000000+00:00</time></trkpt><trkpt lat="39.23271074" lon="-0.31686913"><ele>1.5</ele><time>2022-10-31T15:06:00.0000000+00:00</time></trkpt><trkpt lat="39.23163886" lon="-0.31710802"><ele>1.4</ele><time>2022-10-31T15:06:18.0000000+00:00</time></trkpt><trkpt lat="39.23043598" lon="-0.31691926"><ele>1.6</ele><time>2022-10-31T15:06:38.0000000+00:00</time></trkpt><trkpt lat="39.2294874" lon="-0.31782953"><ele>1.7</ele><time>2022-10-31T15:06:57.0000000+00:00</time></trkpt><trkpt lat="39.22700644" lon="-0.31795291"><ele>2.2</ele><time>2022-10-31T15:07:40.0000000+00:00</time></trkpt><trkpt lat="39.22664082" lon="-0.31872874"><ele>2.1</ele><time>2022-10-31T15:07:53.0000000+00:00</time></trkpt><trkpt lat="39.22480753" lon="-0.31890694"><ele>3.1</ele><time>2022-10-31T15:08:26.0000000+00:00</time></trkpt><trkpt lat="39.22470426" lon="-0.31915924"><ele>3.0</ele><time>2022-10-31T15:08:31.0000000+00:00</time></trkpt><trkpt lat="39.22475145" lon="-0.32093603"><ele>2.8</ele><time>2022-10-31T15:09:02.0000000+00:00</time></trkpt><trkpt lat="39.22322469" lon="-0.31997806"><ele>2.7</ele><time>2022-10-31T15:09:29.0000000+00:00</time></trkpt><trkpt lat="39.22162551" lon="-0.31927717"><ele>4.0</ele><time>2022-10-31T15:09:55.0000000+00:00</time></trkpt><trkpt lat="39.21960513" lon="-0.31966089"><ele>3.6</ele><time>2022-10-31T15:10:38.0000000+00:00</time></trkpt><trkpt lat="39.21823075" lon="-0.32029356"><ele>4.3</ele><time>2022-10-31T15:11:05.0000000+00:00</time></trkpt><trkpt lat="39.21733598" lon="-0.32038526"><ele>4.6</ele><time>2022-10-31T15:11:21.0000000+00:00</time></trkpt><trkpt lat="39.21659343" lon="-0.32076881"><ele>4.9</ele><time>2022-10-31T15:11:36.0000000+00:00</time></trkpt><trkpt lat="39.21601826" lon="-0.31918547"><ele>3.9</ele><time>2022-10-31T15:12:02.0000000+00:00</time></trkpt><trkpt lat="39.21530781" lon="-0.31942972"><ele>4.5</ele><time>2022-10-31T15:12:19.0000000+00:00</time></trkpt><trkpt lat="39.21392597" lon="-0.31835575"><ele>5.1</ele><time>2022-10-31T15:12:49.0000000+00:00</time></trkpt><trkpt lat="39.21359011" lon="-0.3183907"><ele>5.5</ele><time>2022-10-31T15:13:08.0000000+00:00</time></trkpt><trkpt lat="39.21231782" lon="-0.31932545"><ele>5.2</ele><time>2022-10-31T15:14:02.0000000+00:00</time></trkpt><trkpt lat="39.21184232" lon="-0.31927482"><ele>4.7</ele><time>2022-10-31T15:14:08.0000000+00:00</time></trkpt><trkpt lat="39.21142029" lon="-0.31836899"><ele>5.3</ele><time>2022-10-31T15:14:21.0000000+00:00</time></trkpt><trkpt lat="39.2103386" lon="-0.31717164"><ele>5.5</ele><time>2022-10-31T15:14:55.0000000+00:00</time></trkpt><trkpt lat="39.21012143" lon="-0.31525696"><ele>5.4</ele><time>2022-10-31T15:15:25.0000000+00:00</time></trkpt><trkpt lat="39.20906799" lon="-0.31453896"><ele>6.0</ele><time>2022-10-31T15:15:47.0000000+00:00</time></trkpt><trkpt lat="39.2086375" lon="-0.314631"><ele>6.4</ele><time>2022-10-31T15:16:00.0000000+00:00</time></trkpt><trkpt lat="39.20718885" lon="-0.31233318"><ele>10.0</ele><time>2022-10-31T15:16:57.0000000+00:00</time></trkpt><trkpt lat="39.2066048" lon="-0.312446"><ele>10.8</ele><time>2022-10-31T15:17:15.0000000+00:00</time></trkpt><trkpt lat="39.20632677" lon="-0.31099618"><ele>15.4</ele><time>2022-10-31T15:17:41.0000000+00:00</time></trkpt><trkpt lat="39.20635301" lon="-0.30998415"><ele>7.4</ele><time>2022-10-31T15:17:58.0000000+00:00</time></trkpt><trkpt lat="39.20557584" lon="-0.30799152"><ele>6.9</ele><time>2022-10-31T15:19:18.0000000+00:00</time></trkpt><trkpt lat="39.20577876" lon="-0.30840173"><ele>6.7</ele><time>2022-10-31T15:20:03.0000000+00:00</time></trkpt></trkseg><trkseg><trkpt lat="39.50291497" lon="-0.44847138"><ele>50.3</ele><time>2022-11-01T11:19:32.0000000+00:00</time></trkpt><trkpt lat="39.5028542" lon="-0.44878294"><ele>49.9</ele><time>2022-11-01T11:19:35.0000000+00:00</time></trkpt><trkpt lat="39.50301656" lon="-0.44903674"><ele>46.1</ele><time>2022-11-01T11:19:39.0000000+00:00</time></trkpt><trkpt lat="39.5030412" lon="-0.44951887"><ele>45.3</ele><time>2022-11-01T11:19:46.0000000+00:00</time></trkpt><trkpt lat="39.50337589" lon="-0.44986907"><ele>46.6</ele><time>2022-11-01T11:19:56.0000000+00:00</time></trkpt><trkpt lat="39.50343205" lon="-0.45040685"><ele>45.9</ele><time>2022-11-01T11:20:08.0000000+00:00</time></trkpt><trkpt lat="39.5038348" lon="-0.45019453"><ele>49.1</ele><time>2022-11-01T11:20:17.0000000+00:00</time></trkpt><trkpt lat="39.50450887" lon="-0.45017341"><ele>46.7</ele><time>2022-11-01T11:20:28.0000000+00:00</time></trkpt><trkpt lat="39.50508756" lon="-0.45095829"><ele>46.6</ele><time>2022-11-01T11:20:45.0000000+00:00</time></trkpt><trkpt lat="39.50552207" lon="-0.45252831"><ele>47.2</ele><time>2022-11-01T11:21:11.0000000+00:00</time></trkpt><trkpt lat="39.50640142" lon="-0.45457726"><ele>48.3</ele><time>2022-11-01T11:21:47.0000000+00:00</time></trkpt><trkpt lat="39.50692613" lon="-0.45528947"><ele>49.4</ele><time>2022-11-01T11:22:03.0000000+00:00</time></trkpt><trkpt lat="39.50694851" lon="-0.45555577"><ele>49.0</ele><time>2022-11-01T11:22:12.0000000+00:00</time></trkpt><trkpt lat="39.50658247" lon="-0.45617175"><ele>48.4</ele><time>2022-11-01T11:22:32.0000000+00:00</time></trkpt><trkpt lat="39.50661264" lon="-0.45644039"><ele>48.3</ele><time>2022-11-01T11:22:37.0000000+00:00</time></trkpt><trkpt lat="39.5092775" lon="-0.46066663"><ele>56.0</ele><time>2022-11-01T11:24:09.0000000+00:00</time></trkpt><trkpt lat="39.51253815" lon="-0.46541557"><ele>63.3</ele><time>2022-11-01T11:25:58.0000000+00:00</time></trkpt><trkpt lat="39.51303997" lon="-0.46594312"><ele>64.7</ele><time>2022-11-01T11:26:11.0000000+00:00</time></trkpt><trkpt lat="39.51405779" lon="-0.46647504"><ele>65.5</ele><time>2022-11-01T11:26:44.0000000+00:00</time></trkpt><trkpt lat="39.51388973" lon="-0.4665027"><ele>64.6</ele><time>2022-11-01T11:26:50.0000000+00:00</time></trkpt><trkpt lat="39.51367926" lon="-0.46723796"><ele>67.7</ele><time>2022-11-01T11:27:16.0000000+00:00</time></trkpt><trkpt lat="39.51895952" lon="-0.47095601"><ele>82.1</ele><time>2022-11-01T11:29:55.0000000+00:00</time></trkpt><trkpt lat="39.51947015" lon="-0.47154249"><ele>83.9</ele><time>2022-11-01T11:30:17.0000000+00:00</time></trkpt><trkpt lat="39.52038411" lon="-0.47360234"><ele>87.6</ele><time>2022-11-01T11:31:03.0000000+00:00</time></trkpt><trkpt lat="39.52046164" lon="-0.47414767"><ele>90.4</ele><time>2022-11-01T11:31:26.0000000+00:00</time></trkpt><trkpt lat="39.52109037" lon="-0.4748675"><ele>89.7</ele><time>2022-11-01T11:31:51.0000000+00:00</time></trkpt><trkpt lat="39.52215152" lon="-0.47701822"><ele>93.7</ele><time>2022-11-01T11:32:50.0000000+00:00</time></trkpt><trkpt lat="39.52354141" lon="-0.4817213"><ele>101.7</ele><time>2022-11-01T11:34:34.0000000+00:00</time></trkpt><trkpt lat="39.52131475" lon="-0.48354303"><ele>106.2</ele><time>2022-11-01T11:36:09.0000000+00:00</time></trkpt><trkpt lat="39.52108341" lon="-0.48401543"><ele>109.0</ele><time>2022-11-01T11:36:37.0000000+00:00</time></trkpt><trkpt lat="39.52116363" lon="-0.48432087"><ele>107.8</ele><time>2022-11-01T11:36:45.0000000+00:00</time></trkpt><trkpt lat="39.52011606" lon="-0.48585056"><ele>103.4</ele><time>2022-11-01T11:37:38.0000000+00:00</time></trkpt><trkpt lat="39.51822787" lon="-0.48949133"><ele>91.4</ele><time>2022-11-01T11:39:01.0000000+00:00</time></trkpt><trkpt lat="39.51756737" lon="-0.48864115"><ele>90.0</ele><time>2022-11-01T11:39:35.0000000+00:00</time></trkpt><trkpt lat="39.51759855" lon="-0.48885648"><ele>90.1</ele><time>2022-11-01T11:39:45.0000000+00:00</time></trkpt><trkpt lat="39.51712883" lon="-0.49004562"><ele>82.6</ele><time>2022-11-01T11:40:15.0000000+00:00</time></trkpt><trkpt lat="39.51762454" lon="-0.49145286"><ele>86.4</ele><time>2022-11-01T11:40:49.0000000+00:00</time></trkpt><trkpt lat="39.51388554" lon="-0.49388588"><ele>64.5</ele><time>2022-11-01T11:43:57.0000000+00:00</time></trkpt><trkpt lat="39.5137386" lon="-0.49514065"><ele>63.4</ele><time>2022-11-01T11:44:11.0000000+00:00</time></trkpt><trkpt lat="39.5140603" lon="-0.49580458"><ele>62.7</ele><time>2022-11-01T11:44:21.0000000+00:00</time></trkpt><trkpt lat="39.51427186" lon="-0.4973362"><ele>62.5</ele><time>2022-11-01T11:44:47.0000000+00:00</time></trkpt><trkpt lat="39.51414865" lon="-0.49781799"><ele>60.6</ele><time>2022-11-01T11:44:58.0000000+00:00</time></trkpt><trkpt lat="39.51453622" lon="-0.49898475"><ele>56.8</ele><time>2022-11-01T11:45:21.0000000+00:00</time></trkpt><trkpt lat="39.51550752" lon="-0.49961457"><ele>59.8</ele><time>2022-11-01T11:46:00.0000000+00:00</time></trkpt><trkpt lat="39.51686245" lon="-0.50265553"><ele>61.7</ele><time>2022-11-01T11:47:59.0000000+00:00</time></trkpt><trkpt lat="39.51727074" lon="-0.50244539"><ele>66.0</ele><time>2022-11-01T11:48:23.0000000+00:00</time></trkpt><trkpt lat="39.51746612" lon="-0.50258621"><ele>66.5</ele><time>2022-11-01T11:48:33.0000000+00:00</time></trkpt><trkpt lat="39.51801463" lon="-0.50239376"><ele>70.1</ele><time>2022-11-01T11:49:16.0000000+00:00</time></trkpt><trkpt lat="39.51827061" lon="-0.50251144"><ele>72.4</ele><time>2022-11-01T11:49:40.0000000+00:00</time></trkpt><trkpt lat="39.51868778" lon="-0.50207801"><ele>73.6</ele><time>2022-11-01T11:50:07.0000000+00:00</time></trkpt><trkpt lat="39.51911015" lon="-0.50242863"><ele>71.4</ele><time>2022-11-01T11:50:45.0000000+00:00</time></trkpt><trkpt lat="39.51960728" lon="-0.50239435"><ele>76.3</ele><time>2022-11-01T11:51:11.0000000+00:00</time></trkpt><trkpt lat="39.52044035" lon="-0.50320404"><ele>80.2</ele><time>2022-11-01T11:52:31.0000000+00:00</time></trkpt><trkpt lat="39.52025" lon="-0.5030561"><ele>80.8</ele><time>2022-11-01T11:52:45.0000000+00:00</time></trkpt><trkpt lat="39.51982219" lon="-0.50360888"><ele>69.5</ele><time>2022-11-01T11:53:07.0000000+00:00</time></trkpt><trkpt lat="39.52052116" lon="-0.50341576"><ele>78.5</ele><time>2022-11-01T11:55:49.0000000+00:00</time></trkpt><trkpt lat="39.52086213" lon="-0.50373687"><ele>79.7</ele><time>2022-11-01T12:21:07.0000000+00:00</time></trkpt><trkpt lat="39.52142037" lon="-0.50355356"><ele>87.4</ele><time>2022-11-01T12:33:45.0000000+00:00</time></trkpt><trkpt lat="39.52138424" lon="-0.50376328"><ele>84.5</ele><time>2022-11-01T12:34:00.0000000+00:00</time></trkpt><trkpt lat="39.52158507" lon="-0.50401557"><ele>83.5</ele><time>2022-11-01T12:34:12.0000000+00:00</time></trkpt><trkpt lat="39.5221718" lon="-0.5042154"><ele>86.5</ele><time>2022-11-01T12:35:08.0000000+00:00</time></trkpt><trkpt lat="39.52258713" lon="-0.50410534"><ele>86.1</ele><time>2022-11-01T12:35:22.0000000+00:00</time></trkpt><trkpt lat="39.52304386" lon="-0.50346622"><ele>84.8</ele><time>2022-11-01T12:35:55.0000000+00:00</time></trkpt><trkpt lat="39.5244754" lon="-0.50491923"><ele>83.8</ele><time>2022-11-01T12:36:49.0000000+00:00</time></trkpt><trkpt lat="39.52570151" lon="-0.50556086"><ele>86.2</ele><time>2022-11-01T12:37:25.0000000+00:00</time></trkpt><trkpt lat="39.52625572" lon="-0.50618858"><ele>90.6</ele><time>2022-11-01T12:37:57.0000000+00:00</time></trkpt><trkpt lat="39.52628288" lon="-0.50670859"><ele>87.1</ele><time>2022-11-01T12:38:08.0000000+00:00</time></trkpt><trkpt lat="39.52706457" lon="-0.50738887"><ele>85.0</ele><time>2022-11-01T12:38:29.0000000+00:00</time></trkpt><trkpt lat="39.52724109" lon="-0.50797242"><ele>81.4</ele><time>2022-11-01T12:38:37.0000000+00:00</time></trkpt><trkpt lat="39.5278399" lon="-0.50868823"><ele>79.8</ele><time>2022-11-01T12:38:52.0000000+00:00</time></trkpt><trkpt lat="39.52836662" lon="-0.50867239"><ele>79.7</ele><time>2022-11-01T12:39:05.0000000+00:00</time></trkpt><trkpt lat="39.52884514" lon="-0.50910884"><ele>78.8</ele><time>2022-11-01T12:39:38.0000000+00:00</time></trkpt><trkpt lat="39.52931302" lon="-0.50919198"><ele>81.0</ele><time>2022-11-01T12:40:08.0000000+00:00</time></trkpt><trkpt lat="39.52983856" lon="-0.50877406"><ele>82.7</ele><time>2022-11-01T12:40:30.0000000+00:00</time></trkpt><trkpt lat="39.53035304" lon="-0.50778349"><ele>85.7</ele><time>2022-11-01T12:40:57.0000000+00:00</time></trkpt><trkpt lat="39.53163162" lon="-0.50677213"><ele>92.0</ele><time>2022-11-01T12:41:42.0000000+00:00</time></trkpt><trkpt lat="39.53204912" lon="-0.5061683"><ele>95.4</ele><time>2022-11-01T12:42:09.0000000+00:00</time></trkpt><trkpt lat="39.53256193" lon="-0.50600376"><ele>97.5</ele><time>2022-11-01T12:42:31.0000000+00:00</time></trkpt><trkpt lat="39.53316869" lon="-0.50610719"><ele>102.0</ele><time>2022-11-01T12:42:59.0000000+00:00</time></trkpt><trkpt lat="39.53349299" lon="-0.5058259"><ele>103.3</ele><time>2022-11-01T12:43:15.0000000+00:00</time></trkpt><trkpt lat="39.5340653" lon="-0.5059725"><ele>108.5</ele><time>2022-11-01T12:43:37.0000000+00:00</time></trkpt><trkpt lat="39.53449647" lon="-0.50580444"><ele>107.2</ele><time>2022-11-01T12:43:52.0000000+00:00</time></trkpt><trkpt lat="39.53476586" lon="-0.50548291"><ele>108.3</ele><time>2022-11-01T12:44:06.0000000+00:00</time></trkpt><trkpt lat="39.53560087" lon="-0.50427935"><ele>112.1</ele><time>2022-11-01T12:44:40.0000000+00:00</time></trkpt><trkpt lat="39.53607713" lon="-0.50326766"><ele>117.0</ele><time>2022-11-01T12:45:08.0000000+00:00</time></trkpt><trkpt lat="39.53656772" lon="-0.49990827"><ele>116.4</ele><time>2022-11-01T12:46:31.0000000+00:00</time></trkpt><trkpt lat="39.53810404" lon="-0.49782277"><ele>112.0</ele><time>2022-11-01T12:47:23.0000000+00:00</time></trkpt><trkpt lat="39.53868491" lon="-0.49904108"><ele>112.7</ele><time>2022-11-01T12:47:55.0000000+00:00</time></trkpt><trkpt lat="39.54225468" lon="-0.5043506"><ele>102.3</ele><time>2022-11-01T12:49:39.0000000+00:00</time></trkpt><trkpt lat="39.54300159" lon="-0.50468629"><ele>105.4</ele><time>2022-11-01T12:49:55.0000000+00:00</time></trkpt><trkpt lat="39.54472457" lon="-0.50770805"><ele>99.7</ele><time>2022-11-01T12:50:49.0000000+00:00</time></trkpt><trkpt lat="39.54571498" lon="-0.50858849"><ele>96.7</ele><time>2022-11-01T12:51:22.0000000+00:00</time></trkpt><trkpt lat="39.54623583" lon="-0.50856208"><ele>96.9</ele><time>2022-11-01T12:51:34.0000000+00:00</time></trkpt><trkpt lat="39.54652526" lon="-0.50927966"><ele>104.3</ele><time>2022-11-01T12:51:49.0000000+00:00</time></trkpt><trkpt lat="39.54633582" lon="-0.50966975"><ele>103.1</ele><time>2022-11-01T12:51:57.0000000+00:00</time></trkpt><trkpt lat="39.54530435" lon="-0.51018373"><ele>94.9</ele><time>2022-11-01T12:52:21.0000000+00:00</time></trkpt><trkpt lat="39.54364657" lon="-0.51356658"><ele>98.9</ele><time>2022-11-01T12:53:58.0000000+00:00</time></trkpt><trkpt lat="39.54335656" lon="-0.51446655"><ele>95.4</ele><time>2022-11-01T12:54:14.0000000+00:00</time></trkpt><trkpt lat="39.54363459" lon="-0.51365401"><ele>98.7</ele><time>2022-11-01T12:55:50.0000000+00:00</time></trkpt><trkpt lat="39.54333334" lon="-0.51362651"><ele>93.9</ele><time>2022-11-01T12:56:28.0000000+00:00</time></trkpt><trkpt lat="39.54319571" lon="-0.51426161"><ele>95.4</ele><time>2022-11-01T12:57:11.0000000+00:00</time></trkpt><trkpt lat="39.54332722" lon="-0.51359349"><ele>93.9</ele><time>2022-11-01T12:57:41.0000000+00:00</time></trkpt><trkpt lat="39.54357642" lon="-0.51367094"><ele>97.3</ele><time>2022-11-01T12:57:56.0000000+00:00</time></trkpt><trkpt lat="39.54333921" lon="-0.51461524"><ele>95.3</ele><time>2022-11-01T12:58:14.0000000+00:00</time></trkpt><trkpt lat="39.54335463" lon="-0.51514431"><ele>95.4</ele><time>2022-11-01T12:58:24.0000000+00:00</time></trkpt><trkpt lat="39.54362989" lon="-0.51578938"><ele>98.0</ele><time>2022-11-01T12:58:41.0000000+00:00</time></trkpt><trkpt lat="39.54345237" lon="-0.51657812"><ele>96.3</ele><time>2022-11-01T12:58:56.0000000+00:00</time></trkpt><trkpt lat="39.54349478" lon="-0.51706159"><ele>97.7</ele><time>2022-11-01T12:59:04.0000000+00:00</time></trkpt><trkpt lat="39.54442483" lon="-0.51761504"><ele>97.0</ele><time>2022-11-01T12:59:34.0000000+00:00</time></trkpt><trkpt lat="39.54489933" lon="-0.51831158"><ele>95.9</ele><time>2022-11-01T12:59:49.0000000+00:00</time></trkpt><trkpt lat="39.54534777" lon="-0.51859262"><ele>94.0</ele><time>2022-11-01T13:00:01.0000000+00:00</time></trkpt><trkpt lat="39.54535833" lon="-0.51889965"><ele>93.6</ele><time>2022-11-01T13:00:07.0000000+00:00</time></trkpt><trkpt lat="39.54500629" lon="-0.51921708"><ele>93.9</ele><time>2022-11-01T13:00:24.0000000+00:00</time></trkpt><trkpt lat="39.54370751" lon="-0.518197"><ele>96.8</ele><time>2022-11-01T13:01:19.0000000+00:00</time></trkpt><trkpt lat="39.54288692" lon="-0.51731698"><ele>92.5</ele><time>2022-11-01T13:01:45.0000000+00:00</time></trkpt><trkpt lat="39.54299429" lon="-0.51766307"><ele>93.3</ele><time>2022-11-01T13:02:01.0000000+00:00</time></trkpt><trkpt lat="39.54274879" lon="-0.51879857"><ele>94.4</ele><time>2022-11-01T13:02:42.0000000+00:00</time></trkpt><trkpt lat="39.54287343" lon="-0.52026037"><ele>96.7</ele><time>2022-11-01T13:03:54.0000000+00:00</time></trkpt><trkpt lat="39.543361" lon="-0.52156543"><ele>94.1</ele><time>2022-11-01T13:04:36.0000000+00:00</time></trkpt><trkpt lat="39.54416776" lon="-0.52248644"><ele>87.9</ele><time>2022-11-01T13:05:22.0000000+00:00</time></trkpt><trkpt lat="39.54446884" lon="-0.52307912"><ele>82.9</ele><time>2022-11-01T13:06:10.0000000+00:00</time></trkpt><trkpt lat="39.54417053" lon="-0.52343929"><ele>80.4</ele><time>2022-11-01T13:08:06.0000000+00:00</time></trkpt><trkpt lat="39.54405368" lon="-0.52336386"><ele>80.5</ele><time>2022-11-01T13:08:56.0000000+00:00</time></trkpt><trkpt lat="39.54428067" lon="-0.52361347"><ele>80.1</ele><time>2022-11-01T13:09:57.0000000+00:00</time></trkpt><trkpt lat="39.54315816" lon="-0.52277343"><ele>81.0</ele><time>2022-11-01T13:10:35.0000000+00:00</time></trkpt><trkpt lat="39.54267796" lon="-0.52227262"><ele>85.6</ele><time>2022-11-01T13:10:50.0000000+00:00</time></trkpt><trkpt lat="39.54200967" lon="-0.52109487"><ele>79.9</ele><time>2022-11-01T13:11:18.0000000+00:00</time></trkpt><trkpt lat="39.54125128" lon="-0.52039457"><ele>88.3</ele><time>2022-11-01T13:11:37.0000000+00:00</time></trkpt><trkpt lat="39.5405503" lon="-0.5210165"><ele>82.7</ele><time>2022-11-01T13:11:51.0000000+00:00</time></trkpt><trkpt lat="39.53931422" lon="-0.52138455"><ele>80.0</ele><time>2022-11-01T13:12:07.0000000+00:00</time></trkpt><trkpt lat="39.537176" lon="-0.52137718"><ele>83.8</ele><time>2022-11-01T13:12:42.0000000+00:00</time></trkpt><trkpt lat="39.53574663" lon="-0.5225602"><ele>79.2</ele><time>2022-11-01T13:13:08.0000000+00:00</time></trkpt><trkpt lat="39.53516987" lon="-0.52263857"><ele>76.0</ele><time>2022-11-01T13:13:17.0000000+00:00</time></trkpt><trkpt lat="39.53488187" lon="-0.52364121"><ele>64.0</ele><time>2022-11-01T13:13:34.0000000+00:00</time></trkpt><trkpt lat="39.5318436" lon="-0.5225856"><ele>63.0</ele><time>2022-11-01T13:14:28.0000000+00:00</time></trkpt><trkpt lat="39.53177537" lon="-0.52221268"><ele>66.3</ele><time>2022-11-01T13:14:45.0000000+00:00</time></trkpt><trkpt lat="39.53186346" lon="-0.52260035"><ele>62.9</ele><time>2022-11-01T13:15:55.0000000+00:00</time></trkpt><trkpt lat="39.53170127" lon="-0.52260823"><ele>62.3</ele><time>2022-11-01T13:16:13.0000000+00:00</time></trkpt><trkpt lat="39.53176305" lon="-0.52234462"><ele>64.9</ele><time>2022-11-01T13:17:10.0000000+00:00</time></trkpt><trkpt lat="39.53184988" lon="-0.5225887"><ele>63.0</ele><time>2022-11-01T13:17:27.0000000+00:00</time></trkpt><trkpt lat="39.53302109" lon="-0.5229782"><ele>62.4</ele><time>2022-11-01T13:17:59.0000000+00:00</time></trkpt><trkpt lat="39.53186698" lon="-0.52263756"><ele>62.6</ele><time>2022-11-01T13:19:23.0000000+00:00</time></trkpt><trkpt lat="39.534933" lon="-0.52359109"><ele>64.8</ele><time>2022-11-01T13:20:46.0000000+00:00</time></trkpt><trkpt lat="39.53528144" lon="-0.52255701"><ele>79.8</ele><time>2022-11-01T13:21:07.0000000+00:00</time></trkpt><trkpt lat="39.53574588" lon="-0.52253011"><ele>80.2</ele><time>2022-11-01T13:21:24.0000000+00:00</time></trkpt><trkpt lat="39.53703024" lon="-0.52144281"><ele>83.5</ele><time>2022-11-01T13:22:20.0000000+00:00</time></trkpt><trkpt lat="39.53747255" lon="-0.5212657"><ele>83.9</ele><time>2022-11-01T13:22:33.0000000+00:00</time></trkpt><trkpt lat="39.53926041" lon="-0.52137584"><ele>80.2</ele><time>2022-11-01T13:23:09.0000000+00:00</time></trkpt><trkpt lat="39.54059045" lon="-0.52099546"><ele>83.5</ele><time>2022-11-01T13:23:41.0000000+00:00</time></trkpt><trkpt lat="39.54096319" lon="-0.52054058"><ele>90.2</ele><time>2022-11-01T13:24:03.0000000+00:00</time></trkpt><trkpt lat="39.54136703" lon="-0.52050864"><ele>84.4</ele><time>2022-11-01T13:24:16.0000000+00:00</time></trkpt><trkpt lat="39.54210439" lon="-0.52125019"><ele>79.9</ele><time>2022-11-01T13:24:36.0000000+00:00</time></trkpt><trkpt lat="39.54313972" lon="-0.52273328"><ele>81.7</ele><time>2022-11-01T13:25:06.0000000+00:00</time></trkpt><trkpt lat="39.54793803" lon="-0.52666071"><ele>77.4</ele><time>2022-11-01T13:27:21.0000000+00:00</time></trkpt><trkpt lat="39.54821236" lon="-0.5271627"><ele>80.3</ele><time>2022-11-01T13:27:27.0000000+00:00</time></trkpt><trkpt lat="39.54799041" lon="-0.52809016"><ele>84.8</ele><time>2022-11-01T13:27:37.0000000+00:00</time></trkpt><trkpt lat="39.54811421" lon="-0.5285598"><ele>78.4</ele><time>2022-11-01T13:27:43.0000000+00:00</time></trkpt><trkpt lat="39.54852434" lon="-0.52870262"><ele>75.0</ele><time>2022-11-01T13:27:51.0000000+00:00</time></trkpt><trkpt lat="39.54938198" lon="-0.5285339"><ele>76.7</ele><time>2022-11-01T13:28:09.0000000+00:00</time></trkpt><trkpt lat="39.54910512" lon="-0.52973494"><ele>73.2</ele><time>2022-11-01T13:28:31.0000000+00:00</time></trkpt><trkpt lat="39.54906992" lon="-0.53191641"><ele>78.0</ele><time>2022-11-01T13:29:16.0000000+00:00</time></trkpt><trkpt lat="39.5496745" lon="-0.53435018"><ele>80.3</ele><time>2022-11-01T13:29:57.0000000+00:00</time></trkpt><trkpt lat="39.54961172" lon="-0.53595959"><ele>79.2</ele><time>2022-11-01T13:30:23.0000000+00:00</time></trkpt><trkpt lat="39.55184072" lon="-0.54275204"><ele>100.8</ele><time>2022-11-01T13:33:49.0000000+00:00</time></trkpt><trkpt lat="39.55204214" lon="-0.54313953"><ele>103.5</ele><time>2022-11-01T13:34:15.0000000+00:00</time></trkpt><trkpt lat="39.55417953" lon="-0.54200982"><ele>94.1</ele><time>2022-11-01T13:35:07.0000000+00:00</time></trkpt><trkpt lat="39.55360947" lon="-0.54055019"><ele>90.3</ele><time>2022-11-01T13:35:47.0000000+00:00</time></trkpt><trkpt lat="39.55341275" lon="-0.54116098"><ele>92.1</ele><time>2022-11-01T13:38:03.0000000+00:00</time></trkpt><trkpt lat="39.55355943" lon="-0.54135167"><ele>92.7</ele><time>2022-11-01T13:41:27.0000000+00:00</time></trkpt><trkpt lat="39.55363705" lon="-0.54119987"><ele>92.3</ele><time>2022-11-01T13:41:34.0000000+00:00</time></trkpt><trkpt lat="39.55339414" lon="-0.54113005"><ele>91.9</ele><time>2022-11-01T13:47:47.0000000+00:00</time></trkpt><trkpt lat="39.55379228" lon="-0.54035783"><ele>90.2</ele><time>2022-11-01T13:51:03.0000000+00:00</time></trkpt><trkpt lat="39.55647617" lon="-0.53889728"><ele>87.9</ele><time>2022-11-01T13:52:17.0000000+00:00</time></trkpt><trkpt lat="39.5545376" lon="-0.53336749"><ele>86.1</ele><time>2022-11-01T13:54:07.0000000+00:00</time></trkpt><trkpt lat="39.55486332" lon="-0.53325257"><ele>86.9</ele><time>2022-11-01T13:54:20.0000000+00:00</time></trkpt><trkpt lat="39.55536674" lon="-0.53372615"><ele>86.6</ele><time>2022-11-01T13:54:41.0000000+00:00</time></trkpt><trkpt lat="39.55501378" lon="-0.53325291"><ele>88.0</ele><time>2022-11-01T13:55:08.0000000+00:00</time></trkpt><trkpt lat="39.55525283" lon="-0.53258638"><ele>85.0</ele><time>2022-11-01T13:55:21.0000000+00:00</time></trkpt><trkpt lat="39.55588047" lon="-0.53189999"><ele>81.5</ele><time>2022-11-01T13:56:03.0000000+00:00</time></trkpt><trkpt lat="39.55604794" lon="-0.53198397"><ele>82.1</ele><time>2022-11-01T13:56:17.0000000+00:00</time></trkpt><trkpt lat="39.55577066" lon="-0.53175976"><ele>81.6</ele><time>2022-11-01T13:57:12.0000000+00:00</time></trkpt><trkpt lat="39.55630534" lon="-0.53216569"><ele>83.3</ele><time>2022-11-01T13:57:31.0000000+00:00</time></trkpt><trkpt lat="39.55657826" lon="-0.53169597"><ele>84.1</ele><time>2022-11-01T13:57:55.0000000+00:00</time></trkpt><trkpt lat="39.55840551" lon="-0.5328551"><ele>86.9</ele><time>2022-11-01T13:58:50.0000000+00:00</time></trkpt><trkpt lat="39.55907665" lon="-0.53296658"><ele>87.9</ele><time>2022-11-01T13:59:06.0000000+00:00</time></trkpt><trkpt lat="39.55963774" lon="-0.53254816"><ele>90.7</ele><time>2022-11-01T13:59:20.0000000+00:00</time></trkpt><trkpt lat="39.56048213" lon="-0.530996"><ele>92.3</ele><time>2022-11-01T14:00:34.0000000+00:00</time></trkpt><trkpt lat="39.56196816" lon="-0.53213292"><ele>90.6</ele><time>2022-11-01T14:01:25.0000000+00:00</time></trkpt><trkpt lat="39.56355083" lon="-0.52968708"><ele>92.3</ele><time>2022-11-01T14:02:58.0000000+00:00</time></trkpt><trkpt lat="39.5644378" lon="-0.52885023"><ele>95.4</ele><time>2022-11-01T14:04:04.0000000+00:00</time></trkpt><trkpt lat="39.56352677" lon="-0.52972765"><ele>92.0</ele><time>2022-11-01T14:04:48.0000000+00:00</time></trkpt><trkpt lat="39.56210428" lon="-0.53197232"><ele>91.5</ele><time>2022-11-01T14:06:49.0000000+00:00</time></trkpt><trkpt lat="39.56423119" lon="-0.52898367"><ele>97.5</ele><time>2022-11-01T14:08:02.0000000+00:00</time></trkpt><trkpt lat="39.56451626" lon="-0.52868536"><ele>95.4</ele><time>2022-11-01T14:08:40.0000000+00:00</time></trkpt><trkpt lat="39.56455926" lon="-0.52881645"><ele>93.9</ele><time>2022-11-01T14:09:02.0000000+00:00</time></trkpt><trkpt lat="39.56435122" lon="-0.52862819"><ele>97.6</ele><time>2022-11-01T14:09:40.0000000+00:00</time></trkpt><trkpt lat="39.56446244" lon="-0.5285137"><ele>94.9</ele><time>2022-11-01T14:10:24.0000000+00:00</time></trkpt><trkpt lat="39.56427326" lon="-0.52859006"><ele>98.1</ele><time>2022-11-01T14:10:41.0000000+00:00</time></trkpt><trkpt lat="39.56438684" lon="-0.52890404"><ele>95.7</ele><time>2022-11-01T14:11:03.0000000+00:00</time></trkpt><trkpt lat="39.56438365" lon="-0.52857262"><ele>96.6</ele><time>2022-11-01T14:11:22.0000000+00:00</time></trkpt><trkpt lat="39.56459588" lon="-0.52865309"><ele>94.1</ele><time>2022-11-01T14:11:25.0000000+00:00</time></trkpt><trkpt lat="39.56418844" lon="-0.52857765"><ele>98.7</ele><time>2022-11-01T14:12:31.0000000+00:00</time></trkpt><trkpt lat="39.56467551" lon="-0.52909674"><ele>92.7</ele><time>2022-11-01T14:39:30.0000000+00:00</time></trkpt><trkpt lat="39.56438877" lon="-0.52849685"><ele>95.8</ele><time>2022-11-01T14:39:41.0000000+00:00</time></trkpt><trkpt lat="39.56455054" lon="-0.52882961"><ele>93.9</ele><time>2022-11-01T14:40:28.0000000+00:00</time></trkpt><trkpt lat="39.56449849" lon="-0.52855125"><ele>94.7</ele><time>2022-11-01T14:42:10.0000000+00:00</time></trkpt><trkpt lat="39.56467291" lon="-0.52857162"><ele>93.2</ele><time>2022-11-01T14:43:01.0000000+00:00</time></trkpt><trkpt lat="39.56476637" lon="-0.52820642"><ele>91.2</ele><time>2022-11-01T14:43:21.0000000+00:00</time></trkpt><trkpt lat="39.56498195" lon="-0.52818647"><ele>91.7</ele><time>2022-11-01T14:43:34.0000000+00:00</time></trkpt><trkpt lat="39.56521346" lon="-0.52778506"><ele>91.8</ele><time>2022-11-01T14:43:57.0000000+00:00</time></trkpt><trkpt lat="39.56545545" lon="-0.52769244"><ele>93.4</ele><time>2022-11-01T14:44:07.0000000+00:00</time></trkpt><trkpt lat="39.56603413" lon="-0.52674017"><ele>91.4</ele><time>2022-11-01T14:44:33.0000000+00:00</time></trkpt><trkpt lat="39.56658416" lon="-0.5263924"><ele>91.3</ele><time>2022-11-01T14:44:51.0000000+00:00</time></trkpt><trkpt lat="39.56701566" lon="-0.52674227"><ele>92.6</ele><time>2022-11-01T14:45:10.0000000+00:00</time></trkpt><trkpt lat="39.56738077" lon="-0.52671863"><ele>92.7</ele><time>2022-11-01T14:45:26.0000000+00:00</time></trkpt><trkpt lat="39.56751941" lon="-0.52608009"><ele>92.7</ele><time>2022-11-01T14:45:42.0000000+00:00</time></trkpt><trkpt lat="39.56833446" lon="-0.52500495"><ele>93.9</ele><time>2022-11-01T14:46:11.0000000+00:00</time></trkpt><trkpt lat="39.56869044" lon="-0.52483882"><ele>94.1</ele><time>2022-11-01T14:46:25.0000000+00:00</time></trkpt><trkpt lat="39.5685715" lon="-0.52425787"><ele>94.9</ele><time>2022-11-01T14:46:50.0000000+00:00</time></trkpt><trkpt lat="39.56912949" lon="-0.52326956"><ele>96.6</ele><time>2022-11-01T14:47:20.0000000+00:00</time></trkpt><trkpt lat="39.56983323" lon="-0.52242936"><ele>97.3</ele><time>2022-11-01T14:47:43.0000000+00:00</time></trkpt><trkpt lat="39.56975126" lon="-0.52210255"><ele>96.9</ele><time>2022-11-01T14:47:50.0000000+00:00</time></trkpt><trkpt lat="39.56986793" lon="-0.52158496"><ele>97.8</ele><time>2022-11-01T14:48:00.0000000+00:00</time></trkpt><trkpt lat="39.56964439" lon="-0.52108565"><ele>98.1</ele><time>2022-11-01T14:48:10.0000000+00:00</time></trkpt><trkpt lat="39.56910719" lon="-0.52018351"><ele>97.8</ele><time>2022-11-01T14:48:30.0000000+00:00</time></trkpt><trkpt lat="39.56866463" lon="-0.52018519"><ele>97.3</ele><time>2022-11-01T14:48:40.0000000+00:00</time></trkpt><trkpt lat="39.56844913" lon="-0.51988998"><ele>97.9</ele><time>2022-11-01T14:48:51.0000000+00:00</time></trkpt><trkpt lat="39.56929931" lon="-0.51914432"><ele>100.5</ele><time>2022-11-01T14:49:21.0000000+00:00</time></trkpt><trkpt lat="39.56952604" lon="-0.51801402"><ele>105.4</ele><time>2022-11-01T14:49:52.0000000+00:00</time></trkpt><trkpt lat="39.57114584" lon="-0.51662983"><ele>108.3</ele><time>2022-11-01T14:50:48.0000000+00:00</time></trkpt><trkpt lat="39.57186903" lon="-0.51566189"><ele>109.7</ele><time>2022-11-01T14:51:14.0000000+00:00</time></trkpt><trkpt lat="39.57127282" lon="-0.51407327"><ele>112.1</ele><time>2022-11-01T14:51:53.0000000+00:00</time></trkpt><trkpt lat="39.57146938" lon="-0.51360313"><ele>110.8</ele><time>2022-11-01T14:52:08.0000000+00:00</time></trkpt><trkpt lat="39.56945152" lon="-0.5099912"><ele>118.8</ele><time>2022-11-01T14:53:44.0000000+00:00</time></trkpt><trkpt lat="39.56926854" lon="-0.50976321"><ele>120.7</ele><time>2022-11-01T14:53:52.0000000+00:00</time></trkpt><trkpt lat="39.56904651" lon="-0.5100057"><ele>118.8</ele><time>2022-11-01T14:54:02.0000000+00:00</time></trkpt><trkpt lat="39.56876454" lon="-0.50979632"><ele>119.3</ele><time>2022-11-01T14:54:12.0000000+00:00</time></trkpt><trkpt lat="39.56818325" lon="-0.50848053"><ele>120.3</ele><time>2022-11-01T14:54:52.0000000+00:00</time></trkpt><trkpt lat="39.56690309" lon="-0.50675017"><ele>118.9</ele><time>2022-11-01T14:55:33.0000000+00:00</time></trkpt><trkpt lat="39.56642892" lon="-0.50571811"><ele>119.1</ele><time>2022-11-01T14:55:54.0000000+00:00</time></trkpt><trkpt lat="39.56634871" lon="-0.50509374"><ele>118.1</ele><time>2022-11-01T14:56:06.0000000+00:00</time></trkpt><trkpt lat="39.56556592" lon="-0.50371374"><ele>118.2</ele><time>2022-11-01T14:56:34.0000000+00:00</time></trkpt><trkpt lat="39.56427352" lon="-0.50240784"><ele>116.9</ele><time>2022-11-01T14:57:10.0000000+00:00</time></trkpt><trkpt lat="39.56295823" lon="-0.50132163"><ele>117.6</ele><time>2022-11-01T14:57:49.0000000+00:00</time></trkpt><trkpt lat="39.56250351" lon="-0.50114427"><ele>119.8</ele><time>2022-11-01T14:58:10.0000000+00:00</time></trkpt><trkpt lat="39.56257291" lon="-0.50092944"><ele>120.8</ele><time>2022-11-01T14:58:18.0000000+00:00</time></trkpt><trkpt lat="39.56326635" lon="-0.50044212"><ele>115.1</ele><time>2022-11-01T14:58:38.0000000+00:00</time></trkpt><trkpt lat="39.56338554" lon="-0.50005538"><ele>112.0</ele><time>2022-11-01T14:58:45.0000000+00:00</time></trkpt><trkpt lat="39.56240787" lon="-0.49881267"><ele>112.6</ele><time>2022-11-01T14:59:49.0000000+00:00</time></trkpt><trkpt lat="39.56220252" lon="-0.49911652"><ele>116.7</ele><time>2022-11-01T15:00:10.0000000+00:00</time></trkpt><trkpt lat="39.56204091" lon="-0.49906774"><ele>118.5</ele><time>2022-11-01T15:00:19.0000000+00:00</time></trkpt><trkpt lat="39.56161033" lon="-0.49851084"><ele>114.7</ele><time>2022-11-01T15:00:36.0000000+00:00</time></trkpt><trkpt lat="39.56163129" lon="-0.49812125"><ele>112.7</ele><time>2022-11-01T15:00:45.0000000+00:00</time></trkpt><trkpt lat="39.5594095" lon="-0.49549319"><ele>108.4</ele><time>2022-11-01T15:01:52.0000000+00:00</time></trkpt><trkpt lat="39.5590956" lon="-0.49487787"><ele>108.1</ele><time>2022-11-01T15:02:06.0000000+00:00</time></trkpt><trkpt lat="39.55888513" lon="-0.49483437"><ele>108.4</ele><time>2022-11-01T15:02:14.0000000+00:00</time></trkpt><trkpt lat="39.55834986" lon="-0.49371044"><ele>107.1</ele><time>2022-11-01T15:02:41.0000000+00:00</time></trkpt><trkpt lat="39.5547842" lon="-0.4880949"><ele>102.3</ele><time>2022-11-01T15:04:28.0000000+00:00</time></trkpt><trkpt lat="39.55354183" lon="-0.48665833"><ele>104.7</ele><time>2022-11-01T15:04:59.0000000+00:00</time></trkpt><trkpt lat="39.55209495" lon="-0.48643084"><ele>105.2</ele><time>2022-11-01T15:05:41.0000000+00:00</time></trkpt><trkpt lat="39.55200031" lon="-0.48575501"><ele>104.3</ele><time>2022-11-01T15:05:59.0000000+00:00</time></trkpt><trkpt lat="39.55263424" lon="-0.48508513"><ele>103.4</ele><time>2022-11-01T15:06:23.0000000+00:00</time></trkpt><trkpt lat="39.55280841" lon="-0.4840104"><ele>102.1</ele><time>2022-11-01T15:06:40.0000000+00:00</time></trkpt><trkpt lat="39.55145784" lon="-0.47945073"><ele>107.3</ele><time>2022-11-01T15:08:08.0000000+00:00</time></trkpt><trkpt lat="39.5509343" lon="-0.47859804"><ele>107.8</ele><time>2022-11-01T15:08:28.0000000+00:00</time></trkpt><trkpt lat="39.54941995" lon="-0.47713364"><ele>107.1</ele><time>2022-11-01T15:09:19.0000000+00:00</time></trkpt><trkpt lat="39.54928659" lon="-0.47673826"><ele>106.5</ele><time>2022-11-01T15:09:27.0000000+00:00</time></trkpt><trkpt lat="39.54935071" lon="-0.4757124"><ele>107.6</ele><time>2022-11-01T15:09:42.0000000+00:00</time></trkpt><trkpt lat="39.54922364" lon="-0.4751348"><ele>109.2</ele><time>2022-11-01T15:09:51.0000000+00:00</time></trkpt><trkpt lat="39.54734869" lon="-0.47131936"><ele>118.5</ele><time>2022-11-01T15:11:27.0000000+00:00</time></trkpt><trkpt lat="39.54477302" lon="-0.46829961"><ele>124.3</ele><time>2022-11-01T15:13:08.0000000+00:00</time></trkpt><trkpt lat="39.54389946" lon="-0.46699254"><ele>123.1</ele><time>2022-11-01T15:13:38.0000000+00:00</time></trkpt><trkpt lat="39.54359746" lon="-0.46689196"><ele>123.5</ele><time>2022-11-01T15:13:45.0000000+00:00</time></trkpt><trkpt lat="39.5433341" lon="-0.46714115"><ele>124.7</ele><time>2022-11-01T15:13:56.0000000+00:00</time></trkpt><trkpt lat="39.54347491" lon="-0.46644805"><ele>124.9</ele><time>2022-11-01T15:14:11.0000000+00:00</time></trkpt><trkpt lat="39.54325095" lon="-0.46595084"><ele>120.7</ele><time>2022-11-01T15:14:34.0000000+00:00</time></trkpt><trkpt lat="39.54360374" lon="-0.46626658"><ele>122.3</ele><time>2022-11-01T15:14:53.0000000+00:00</time></trkpt><trkpt lat="39.54386735" lon="-0.46603507"><ele>121.8</ele><time>2022-11-01T15:15:06.0000000+00:00</time></trkpt><trkpt lat="39.54459599" lon="-0.46315095"><ele>112.5</ele><time>2022-11-01T15:16:06.0000000+00:00</time></trkpt><trkpt lat="39.54491107" lon="-0.46257611"><ele>109.2</ele><time>2022-11-01T15:16:16.0000000+00:00</time></trkpt><trkpt lat="39.5442121" lon="-0.46149368"><ele>107.5</ele><time>2022-11-01T15:16:39.0000000+00:00</time></trkpt><trkpt lat="39.54311801" lon="-0.46028601"><ele>106.4</ele><time>2022-11-01T15:17:09.0000000+00:00</time></trkpt><trkpt lat="39.54254226" lon="-0.4590926"><ele>104.0</ele><time>2022-11-01T15:17:35.0000000+00:00</time></trkpt><trkpt lat="39.54208343" lon="-0.45863796"><ele>103.3</ele><time>2022-11-01T15:17:47.0000000+00:00</time></trkpt><trkpt lat="39.54123904" lon="-0.45648096"><ele>100.2</ele><time>2022-11-01T15:18:24.0000000+00:00</time></trkpt><trkpt lat="39.54065231" lon="-0.4566061"><ele>102.0</ele><time>2022-11-01T15:18:44.0000000+00:00</time></trkpt><trkpt lat="39.54027018" lon="-0.45699871"><ele>105.9</ele><time>2022-11-01T15:19:00.0000000+00:00</time></trkpt><trkpt lat="39.53980967" lon="-0.45717917"><ele>106.1</ele><time>2022-11-01T15:19:21.0000000+00:00</time></trkpt><trkpt lat="39.53932981" lon="-0.45629681"><ele>106.1</ele><time>2022-11-01T15:19:43.0000000+00:00</time></trkpt><trkpt lat="39.53529778" lon="-0.4508075"><ele>99.4</ele><time>2022-11-01T15:21:28.0000000+00:00</time></trkpt><trkpt lat="39.53463377" lon="-0.45032856"><ele>97.4</ele><time>2022-11-01T15:21:48.0000000+00:00</time></trkpt><trkpt lat="39.53406388" lon="-0.44959975"><ele>93.5</ele><time>2022-11-01T15:22:03.0000000+00:00</time></trkpt><trkpt lat="39.53382332" lon="-0.44902534"><ele>91.9</ele><time>2022-11-01T15:22:12.0000000+00:00</time></trkpt><trkpt lat="39.53218608" lon="-0.44726942"><ele>84.7</ele><time>2022-11-01T15:22:42.0000000+00:00</time></trkpt><trkpt lat="39.53175626" lon="-0.44706465"><ele>84.3</ele><time>2022-11-01T15:22:49.0000000+00:00</time></trkpt><trkpt lat="39.53156188" lon="-0.44658638"><ele>85.7</ele><time>2022-11-01T15:22:57.0000000+00:00</time></trkpt><trkpt lat="39.53112032" lon="-0.44621816"><ele>86.1</ele><time>2022-11-01T15:23:22.0000000+00:00</time></trkpt><trkpt lat="39.53123599" lon="-0.4465925"><ele>84.5</ele><time>2022-11-01T15:23:48.0000000+00:00</time></trkpt><trkpt lat="39.53076627" lon="-0.44666651"><ele>83.6</ele><time>2022-11-01T15:30:57.0000000+00:00</time></trkpt><trkpt lat="39.53119777" lon="-0.44656634"><ele>84.6</ele><time>2022-11-01T15:31:59.0000000+00:00</time></trkpt><trkpt lat="39.5312546" lon="-0.44635034"><ele>85.9</ele><time>2022-11-01T15:32:17.0000000+00:00</time></trkpt><trkpt lat="39.52995532" lon="-0.44552825"><ele>83.6</ele><time>2022-11-01T15:33:01.0000000+00:00</time></trkpt><trkpt lat="39.52831565" lon="-0.4440428"><ele>80.4</ele><time>2022-11-01T15:33:41.0000000+00:00</time></trkpt><trkpt lat="39.52809362" lon="-0.44312188"><ele>79.1</ele><time>2022-11-01T15:33:56.0000000+00:00</time></trkpt><trkpt lat="39.52643551" lon="-0.4417175"><ele>73.0</ele><time>2022-11-01T15:34:26.0000000+00:00</time></trkpt><trkpt lat="39.52538618" lon="-0.44126898"><ele>73.2</ele><time>2022-11-01T15:34:46.0000000+00:00</time></trkpt><trkpt lat="39.52437499" lon="-0.44225293"><ele>73.8</ele><time>2022-11-01T15:35:12.0000000+00:00</time></trkpt><trkpt lat="39.52307462" lon="-0.44227556"><ele>73.4</ele><time>2022-11-01T15:35:39.0000000+00:00</time></trkpt><trkpt lat="39.52219888" lon="-0.4426421"><ele>74.0</ele><time>2022-11-01T15:36:01.0000000+00:00</time></trkpt><trkpt lat="39.51930293" lon="-0.44268561"><ele>71.0</ele><time>2022-11-01T15:37:20.0000000+00:00</time></trkpt><trkpt lat="39.51758363" lon="-0.44079473"><ele>67.8</ele><time>2022-11-01T15:38:12.0000000+00:00</time></trkpt><trkpt lat="39.51690679" lon="-0.44041059"><ele>68.1</ele><time>2022-11-01T15:38:28.0000000+00:00</time></trkpt><trkpt lat="39.51584514" lon="-0.43933896"><ele>67.8</ele><time>2022-11-01T15:38:59.0000000+00:00</time></trkpt><trkpt lat="39.51486949" lon="-0.43873899"><ele>66.9</ele><time>2022-11-01T15:39:24.0000000+00:00</time></trkpt><trkpt lat="39.51436683" lon="-0.43811236"><ele>65.8</ele><time>2022-11-01T15:39:40.0000000+00:00</time></trkpt><trkpt lat="39.51399392" lon="-0.43805595"><ele>67.1</ele><time>2022-11-01T15:39:59.0000000+00:00</time></trkpt><trkpt lat="39.51297543" lon="-0.43708021"><ele>64.3</ele><time>2022-11-01T15:40:27.0000000+00:00</time></trkpt><trkpt lat="39.51247285" lon="-0.4368896"><ele>65.8</ele><time>2022-11-01T15:40:37.0000000+00:00</time></trkpt><trkpt lat="39.51149896" lon="-0.43697376"><ele>68.2</ele><time>2022-11-01T15:41:00.0000000+00:00</time></trkpt><trkpt lat="39.5096158" lon="-0.43661317"><ele>65.1</ele><time>2022-11-01T15:41:36.0000000+00:00</time></trkpt><trkpt lat="39.50973021" lon="-0.43545772"><ele>60.9</ele><time>2022-11-01T15:41:58.0000000+00:00</time></trkpt><trkpt lat="39.50961194" lon="-0.43494173"><ele>58.3</ele><time>2022-11-01T15:42:06.0000000+00:00</time></trkpt><trkpt lat="39.50878875" lon="-0.43436095"><ele>53.4</ele><time>2022-11-01T15:42:27.0000000+00:00</time></trkpt><trkpt lat="39.50797521" lon="-0.43409248"><ele>53.9</ele><time>2022-11-01T15:42:48.0000000+00:00</time></trkpt><trkpt lat="39.50774923" lon="-0.43358051"><ele>49.9</ele><time>2022-11-01T15:43:02.0000000+00:00</time></trkpt><trkpt lat="39.50639455" lon="-0.43298439"><ele>50.0</ele><time>2022-11-01T15:43:30.0000000+00:00</time></trkpt><trkpt lat="39.50194208" lon="-0.43253495"><ele>52.0</ele><time>2022-11-01T15:44:48.0000000+00:00</time></trkpt><trkpt lat="39.50088345" lon="-0.43133584"><ele>46.6</ele><time>2022-11-01T15:45:26.0000000+00:00</time></trkpt><trkpt lat="39.50008733" lon="-0.43124439"><ele>45.9</ele><time>2022-11-01T15:45:38.0000000+00:00</time></trkpt><trkpt lat="39.49808565" lon="-0.43043311"><ele>48.0</ele><time>2022-11-01T15:46:11.0000000+00:00</time></trkpt><trkpt lat="39.49794324" lon="-0.42870996"><ele>43.4</ele><time>2022-11-01T15:46:39.0000000+00:00</time></trkpt><trkpt lat="39.49663617" lon="-0.42743138"><ele>44.5</ele><time>2022-11-01T15:49:27.0000000+00:00</time></trkpt><trkpt lat="39.49633685" lon="-0.42677005"><ele>43.1</ele><time>2022-11-01T15:49:44.0000000+00:00</time></trkpt><trkpt lat="39.49667523" lon="-0.41899709"><ele>37.1</ele><time>2022-11-01T15:51:25.0000000+00:00</time></trkpt><trkpt lat="39.49541216" lon="-0.41908502"><ele>32.5</ele><time>2022-11-01T15:52:08.0000000+00:00</time></trkpt><trkpt lat="39.4941361" lon="-0.41887421"><ele>29.8</ele><time>2022-11-01T15:52:22.0000000+00:00</time></trkpt><trkpt lat="39.49334283" lon="-0.41809235"><ele>28.4</ele><time>2022-11-01T15:52:36.0000000+00:00</time></trkpt><trkpt lat="39.49136437" lon="-0.41817893"><ele>28.0</ele><time>2022-11-01T15:54:37.0000000+00:00</time></trkpt><trkpt lat="39.49093597" lon="-0.41802437"><ele>27.7</ele><time>2022-11-01T15:54:46.0000000+00:00</time></trkpt><trkpt lat="39.49072399" lon="-0.41761349"><ele>27.1</ele><time>2022-11-01T15:54:54.0000000+00:00</time></trkpt><trkpt lat="39.49025352" lon="-0.41513722"><ele>26.0</ele><time>2022-11-01T15:55:31.0000000+00:00</time></trkpt><trkpt lat="39.48964776" lon="-0.4131979"><ele>25.5</ele><time>2022-11-01T15:56:01.0000000+00:00</time></trkpt><trkpt lat="39.48869649" lon="-0.41351717"><ele>25.8</ele><time>2022-11-01T15:56:47.0000000+00:00</time></trkpt><trkpt lat="39.48967793" lon="-0.41326521"><ele>25.5</ele><time>2022-11-01T15:57:34.0000000+00:00</time></trkpt><trkpt lat="39.4893657" lon="-0.41227288"><ele>25.2</ele><time>2022-11-01T15:57:55.0000000+00:00</time></trkpt><trkpt lat="39.48876623" lon="-0.41242375"><ele>26.0</ele><time>2022-11-01T15:58:10.0000000+00:00</time></trkpt><trkpt lat="39.48860597" lon="-0.41219551"><ele>25.7</ele><time>2022-11-01T15:58:17.0000000+00:00</time></trkpt><trkpt lat="39.48821068" lon="-0.41225653"><ele>25.2</ele><time>2022-11-01T15:58:26.0000000+00:00</time></trkpt><trkpt lat="39.48793693" lon="-0.41190927"><ele>24.5</ele><time>2022-11-01T15:58:36.0000000+00:00</time></trkpt><trkpt lat="39.48577188" lon="-0.41303144"><ele>26.3</ele><time>2022-11-01T15:59:20.0000000+00:00</time></trkpt><trkpt lat="39.48531683" lon="-0.41284553"><ele>26.2</ele><time>2022-11-01T15:59:29.0000000+00:00</time></trkpt><trkpt lat="39.4849984" lon="-0.41295508"><ele>26.6</ele><time>2022-11-01T15:59:38.0000000+00:00</time></trkpt><trkpt lat="39.48396374" lon="-0.41088165"><ele>25.8</ele><time>2022-11-01T16:00:21.0000000+00:00</time></trkpt><trkpt lat="39.48335152" lon="-0.40922438"><ele>26.2</ele><time>2022-11-01T16:00:49.0000000+00:00</time></trkpt><trkpt lat="39.48185451" lon="-0.40974087"><ele>26.3</ele><time>2022-11-01T16:01:27.0000000+00:00</time></trkpt><trkpt lat="39.48111188" lon="-0.41066959"><ele>23.3</ele><time>2022-11-01T16:01:55.0000000+00:00</time></trkpt><trkpt lat="39.48028467" lon="-0.40994941"><ele>22.7</ele><time>2022-11-01T16:02:32.0000000+00:00</time></trkpt><trkpt lat="39.47853562" lon="-0.40974657"><ele>22.5</ele><time>2022-11-01T16:03:11.0000000+00:00</time></trkpt><trkpt lat="39.47772852" lon="-0.40926612"><ele>22.2</ele><time>2022-11-01T16:03:30.0000000+00:00</time></trkpt><trkpt lat="39.47707993" lon="-0.40956091"><ele>21.6</ele><time>2022-11-01T16:03:48.0000000+00:00</time></trkpt><trkpt lat="39.47628725" lon="-0.40912505"><ele>17.6</ele><time>2022-11-01T16:04:06.0000000+00:00</time></trkpt><trkpt lat="39.47516835" lon="-0.40985537"><ele>21.9</ele><time>2022-11-01T16:04:39.0000000+00:00</time></trkpt><trkpt lat="39.47473635" lon="-0.40956561"><ele>21.8</ele><time>2022-11-01T16:04:53.0000000+00:00</time></trkpt><trkpt lat="39.47425925" lon="-0.40869406"><ele>24.9</ele><time>2022-11-01T16:05:25.0000000+00:00</time></trkpt><trkpt lat="39.47416311" lon="-0.40739779"><ele>22.9</ele><time>2022-11-01T16:05:54.0000000+00:00</time></trkpt><trkpt lat="39.47386354" lon="-0.40701541"><ele>24.1</ele><time>2022-11-01T16:06:04.0000000+00:00</time></trkpt><trkpt lat="39.47369197" lon="-0.40599374"><ele>23.6</ele><time>2022-11-01T16:06:31.0000000+00:00</time></trkpt><trkpt lat="39.47328393" lon="-0.4056681"><ele>26.0</ele><time>2022-11-01T16:06:47.0000000+00:00</time></trkpt><trkpt lat="39.47344654" lon="-0.40484785"><ele>22.5</ele><time>2022-11-01T16:07:24.0000000+00:00</time></trkpt><trkpt lat="39.47339759" lon="-0.40496126"><ele>23.0</ele><time>2022-11-01T16:07:30.0000000+00:00</time></trkpt><trkpt lat="39.47336599" lon="-0.40535697"><ele>23.3</ele><time>2022-11-01T16:07:43.0000000+00:00</time></trkpt><trkpt lat="39.47448137" lon="-0.40534875"><ele>21.8</ele><time>2022-11-01T16:08:27.0000000+00:00</time></trkpt><trkpt lat="39.4743709" lon="-0.40517642"><ele>21.6</ele><time>2022-11-01T16:08:33.0000000+00:00</time></trkpt><trkpt lat="39.47636453" lon="-0.39638976"><ele>18.1</ele><time>2022-11-01T16:11:11.0000000+00:00</time></trkpt><trkpt lat="39.47833638" lon="-0.39228614"><ele>16.7</ele><time>2022-11-01T16:12:31.0000000+00:00</time></trkpt><trkpt lat="39.47857878" lon="-0.3905894"><ele>14.0</ele><time>2022-11-01T16:13:01.0000000+00:00</time></trkpt><trkpt lat="39.47911413" lon="-0.389744"><ele>17.1</ele><time>2022-11-01T16:13:16.0000000+00:00</time></trkpt><trkpt lat="39.47969148" lon="-0.38799411"><ele>17.6</ele><time>2022-11-01T16:13:43.0000000+00:00</time></trkpt><trkpt lat="39.48215031" lon="-0.38267755"><ele>12.5</ele><time>2022-11-01T16:15:20.0000000+00:00</time></trkpt><trkpt lat="39.48107257" lon="-0.38493228"><ele>16.9</ele><time>2022-11-01T16:16:15.0000000+00:00</time></trkpt><trkpt lat="39.48161387" lon="-0.38412829"><ele>14.8</ele><time>2022-11-01T16:16:57.0000000+00:00</time></trkpt><trkpt lat="39.48206146" lon="-0.38420775"><ele>16.6</ele><time>2022-11-01T16:17:10.0000000+00:00</time></trkpt><trkpt lat="39.48325697" lon="-0.38511652"><ele>19.7</ele><time>2022-11-01T16:17:41.0000000+00:00</time></trkpt><trkpt lat="39.48262456" lon="-0.38687185"><ele>18.8</ele><time>2022-11-01T16:18:19.0000000+00:00</time></trkpt><trkpt lat="39.48288172" lon="-0.38733604"><ele>20.0</ele><time>2022-11-01T16:18:50.0000000+00:00</time></trkpt></trkseg><trkseg><trkpt lat="39.48285062" lon="-0.38652166"><ele>18.0</ele><time>2022-11-02T13:41:55.0000000+00:00</time></trkpt><trkpt lat="39.48194068" lon="-0.38779127"><ele>18.6</ele><time>2022-11-02T13:43:15.0000000+00:00</time></trkpt><trkpt lat="39.48185854" lon="-0.38753629"><ele>18.3</ele><time>2022-11-02T13:43:38.0000000+00:00</time></trkpt><trkpt lat="39.48159426" lon="-0.38746269"><ele>19.6</ele><time>2022-11-02T13:43:57.0000000+00:00</time></trkpt><trkpt lat="39.48163717" lon="-0.38729254"><ele>20.5</ele><time>2022-11-02T13:44:11.0000000+00:00</time></trkpt><trkpt lat="39.48141438" lon="-0.38729263"><ele>19.7</ele><time>2022-11-02T13:44:21.0000000+00:00</time></trkpt><trkpt lat="39.48113333" lon="-0.38695291"><ele>19.6</ele><time>2022-11-02T13:44:53.0000000+00:00</time></trkpt><trkpt lat="39.48024888" lon="-0.3870674"><ele>15.7</ele><time>2022-11-02T13:45:29.0000000+00:00</time></trkpt><trkpt lat="39.47993481" lon="-0.38738105"><ele>17.5</ele><time>2022-11-02T13:45:55.0000000+00:00</time></trkpt><trkpt lat="39.47996439" lon="-0.38789017"><ele>17.4</ele><time>2022-11-02T13:46:16.0000000+00:00</time></trkpt><trkpt lat="39.48029816" lon="-0.38775179"><ele>16.6</ele><time>2022-11-02T13:46:27.0000000+00:00</time></trkpt><trkpt lat="39.48065322" lon="-0.38789101"><ele>21.9</ele><time>2022-11-02T13:46:38.0000000+00:00</time></trkpt><trkpt lat="39.4805746" lon="-0.38802185"><ele>21.2</ele><time>2022-11-02T13:46:55.0000000+00:00</time></trkpt><trkpt lat="39.48030277" lon="-0.3879838"><ele>17.7</ele><time>2022-11-02T13:48:28.0000000+00:00</time></trkpt><trkpt lat="39.48069982" lon="-0.38769814"><ele>21.3</ele><time>2022-11-02T13:48:47.0000000+00:00</time></trkpt><trkpt lat="39.48024921" lon="-0.38811858"><ele>17.7</ele><time>2022-11-02T13:49:04.0000000+00:00</time></trkpt><trkpt lat="39.48059622" lon="-0.3878403"><ele>20.6</ele><time>2022-11-02T13:49:20.0000000+00:00</time></trkpt><trkpt lat="39.48011896" lon="-0.38802453"><ele>16.5</ele><time>2022-11-02T13:49:37.0000000+00:00</time></trkpt><trkpt lat="39.48001712" lon="-0.38714971"><ele>16.7</ele><time>2022-11-02T13:50:18.0000000+00:00</time></trkpt><trkpt lat="39.48073436" lon="-0.38694"><ele>16.7</ele><time>2022-11-02T13:52:00.0000000+00:00</time></trkpt><trkpt lat="39.48079621" lon="-0.3867504"><ele>16.5</ele><time>2022-11-02T13:52:27.0000000+00:00</time></trkpt><trkpt lat="39.48066101" lon="-0.38677597"><ele>15.4</ele><time>2022-11-02T13:52:45.0000000+00:00</time></trkpt><trkpt lat="39.48057904" lon="-0.38712004"><ele>16.6</ele><time>2022-11-02T13:53:17.0000000+00:00</time></trkpt><trkpt lat="39.48112789" lon="-0.38760804"><ele>19.9</ele><time>2022-11-02T13:53:18.0000000+00:00</time></trkpt><trkpt lat="39.48169744" lon="-0.38759337"><ele>18.6</ele><time>2022-11-02T13:53:42.0000000+00:00</time></trkpt><trkpt lat="39.48026304" lon="-0.386408"><ele>14.0</ele><time>2022-11-02T13:53:44.0000000+00:00</time></trkpt><trkpt lat="39.4807973" lon="-0.38632569"><ele>17.3</ele><time>2022-11-02T13:53:45.0000000+00:00</time></trkpt><trkpt lat="39.48074257" lon="-0.38656063"><ele>16.0</ele><time>2022-11-02T13:53:57.0000000+00:00</time></trkpt><trkpt lat="39.48044091" lon="-0.38656139"><ele>13.9</ele><time>2022-11-02T13:55:14.0000000+00:00</time></trkpt><trkpt lat="39.48025508" lon="-0.38681083"><ele>14.3</ele><time>2022-11-02T13:55:35.0000000+00:00</time></trkpt><trkpt lat="39.48037108" lon="-0.38642007"><ele>13.8</ele><time>2022-11-02T13:56:06.0000000+00:00</time></trkpt><trkpt lat="39.48018517" lon="-0.38658829"><ele>14.3</ele><time>2022-11-02T13:56:25.0000000+00:00</time></trkpt><trkpt lat="39.47987781" lon="-0.3864603"><ele>14.1</ele><time>2022-11-02T13:56:51.0000000+00:00</time></trkpt><trkpt lat="39.47958662" lon="-0.38678401"><ele>15.1</ele><time>2022-11-02T13:57:28.0000000+00:00</time></trkpt><trkpt lat="39.47876444" lon="-0.38689541"><ele>18.9</ele><time>2022-11-02T13:58:45.0000000+00:00</time></trkpt><trkpt lat="39.47850117" lon="-0.38753704"><ele>21.0</ele><time>2022-11-02T14:00:14.0000000+00:00</time></trkpt><trkpt lat="39.47836949" lon="-0.38750603"><ele>23.3</ele><time>2022-11-02T14:00:29.0000000+00:00</time></trkpt><trkpt lat="39.47815114" lon="-0.38789906"><ele>20.4</ele><time>2022-11-02T14:01:21.0000000+00:00</time></trkpt><trkpt lat="39.47800906" lon="-0.38853348"><ele>17.3</ele><time>2022-11-02T14:02:30.0000000+00:00</time></trkpt><trkpt lat="39.47806732" lon="-0.38809243"><ele>19.2</ele><time>2022-11-02T14:03:02.0000000+00:00</time></trkpt><trkpt lat="39.47862815" lon="-0.38682575"><ele>21.8</ele><time>2022-11-02T14:04:23.0000000+00:00</time></trkpt><trkpt lat="39.47850737" lon="-0.38554634"><ele>27.8</ele><time>2022-11-02T14:05:54.0000000+00:00</time></trkpt><trkpt lat="39.47788987" lon="-0.38548515"><ele>30.2</ele><time>2022-11-02T14:06:52.0000000+00:00</time></trkpt><trkpt lat="39.47773456" lon="-0.38521157"><ele>28.5</ele><time>2022-11-02T14:07:38.0000000+00:00</time></trkpt><trkpt lat="39.47706903" lon="-0.38537267"><ele>28.1</ele><time>2022-11-02T14:08:22.0000000+00:00</time></trkpt><trkpt lat="39.47688907" lon="-0.384266"><ele>26.2</ele><time>2022-11-02T14:09:46.0000000+00:00</time></trkpt><trkpt lat="39.47622204" lon="-0.38392754"><ele>24.1</ele><time>2022-11-02T14:10:38.0000000+00:00</time></trkpt><trkpt lat="39.4758037" lon="-0.38422971"><ele>24.5</ele><time>2022-11-02T14:11:45.0000000+00:00</time></trkpt><trkpt lat="39.47567638" lon="-0.38383836"><ele>21.7</ele><time>2022-11-02T14:12:05.0000000+00:00</time></trkpt><trkpt lat="39.4757783" lon="-0.38365304"><ele>24.3</ele><time>2022-11-02T14:12:20.0000000+00:00</time></trkpt><trkpt lat="39.47557001" lon="-0.38402067"><ele>21.5</ele><time>2022-11-02T14:13:11.0000000+00:00</time></trkpt><trkpt lat="39.47457232" lon="-0.38463531"><ele>26.1</ele><time>2022-11-02T15:10:02.0000000+00:00</time></trkpt><trkpt lat="39.47456201" lon="-0.38449399"><ele>22.9</ele><time>2022-11-02T15:10:04.0000000+00:00</time></trkpt><trkpt lat="39.47453929" lon="-0.38469256"><ele>27.2</ele><time>2022-11-02T15:10:08.0000000+00:00</time></trkpt><trkpt lat="39.47442245" lon="-0.38371783"><ele>25.6</ele><time>2022-11-02T15:11:37.0000000+00:00</time></trkpt><trkpt lat="39.47445396" lon="-0.38414111"><ele>25.3</ele><time>2022-11-02T15:11:47.0000000+00:00</time></trkpt><trkpt lat="39.47465857" lon="-0.3840008"><ele>25.1</ele><time>2022-11-02T15:13:12.0000000+00:00</time></trkpt><trkpt lat="39.47485504" lon="-0.3842479"><ele>21.6</ele><time>2022-11-02T15:13:41.0000000+00:00</time></trkpt><trkpt lat="39.47474188" lon="-0.38528541"><ele>27.5</ele><time>2022-11-02T15:15:55.0000000+00:00</time></trkpt><trkpt lat="39.47496962" lon="-0.38567928"><ele>26.3</ele><time>2022-11-02T15:16:38.0000000+00:00</time></trkpt><trkpt lat="39.47474029" lon="-0.38576989"><ele>26.9</ele><time>2022-11-02T15:17:11.0000000+00:00</time></trkpt><trkpt lat="39.4750811" lon="-0.38594616"><ele>26.5</ele><time>2022-11-02T15:17:51.0000000+00:00</time></trkpt><trkpt lat="39.47540933" lon="-0.38570509"><ele>28.0</ele><time>2022-11-02T15:18:23.0000000+00:00</time></trkpt><trkpt lat="39.47557127" lon="-0.38597675"><ele>25.7</ele><time>2022-11-02T15:18:55.0000000+00:00</time></trkpt><trkpt lat="39.47541746" lon="-0.38598153"><ele>26.7</ele><time>2022-11-02T15:19:10.0000000+00:00</time></trkpt><trkpt lat="39.47554336" lon="-0.38581967"><ele>25.8</ele><time>2022-11-02T15:48:41.0000000+00:00</time></trkpt><trkpt lat="39.47533842" lon="-0.38620566"><ele>25.7</ele><time>2022-11-02T15:49:21.0000000+00:00</time></trkpt><trkpt lat="39.47582097" lon="-0.38663808"><ele>28.6</ele><time>2022-11-02T15:51:05.0000000+00:00</time></trkpt><trkpt lat="39.47598048" lon="-0.38657011"><ele>30.2</ele><time>2022-11-02T15:51:06.0000000+00:00</time></trkpt><trkpt lat="39.47571863" lon="-0.38666566"><ele>27.5</ele><time>2022-11-02T15:52:20.0000000+00:00</time></trkpt><trkpt lat="39.4763352" lon="-0.38660212"><ele>31.3</ele><time>2022-11-02T15:54:39.0000000+00:00</time></trkpt><trkpt lat="39.47648314" lon="-0.38674638"><ele>29.6</ele><time>2022-11-02T15:55:28.0000000+00:00</time></trkpt><trkpt lat="39.47663812" lon="-0.38621513"><ele>30.2</ele><time>2022-11-02T15:56:40.0000000+00:00</time></trkpt><trkpt lat="39.47689645" lon="-0.3861469"><ele>27.0</ele><time>2022-11-02T15:57:10.0000000+00:00</time></trkpt><trkpt lat="39.47662697" lon="-0.38612419"><ele>30.7</ele><time>2022-11-02T15:58:43.0000000+00:00</time></trkpt><trkpt lat="39.47664935" lon="-0.38593493"><ele>29.0</ele><time>2022-11-02T15:59:19.0000000+00:00</time></trkpt><trkpt lat="39.47692562" lon="-0.38594984"><ele>25.4</ele><time>2022-11-02T16:00:33.0000000+00:00</time></trkpt><trkpt lat="39.47679889" lon="-0.38609552"><ele>28.7</ele><time>2022-11-02T16:01:22.0000000+00:00</time></trkpt><trkpt lat="39.47685362" lon="-0.38628059"><ele>27.2</ele><time>2022-11-02T16:01:40.0000000+00:00</time></trkpt><trkpt lat="39.47708932" lon="-0.38615604"><ele>23.3</ele><time>2022-11-02T16:01:59.0000000+00:00</time></trkpt><trkpt lat="39.4769107" lon="-0.38629694"><ele>25.9</ele><time>2022-11-02T16:02:05.0000000+00:00</time></trkpt><trkpt lat="39.47720541" lon="-0.3865194"><ele>20.6</ele><time>2022-11-02T16:02:53.0000000+00:00</time></trkpt><trkpt lat="39.47736844" lon="-0.38617398"><ele>25.1</ele><time>2022-11-02T16:04:19.0000000+00:00</time></trkpt><trkpt lat="39.47727003" lon="-0.38622636"><ele>23.7</ele><time>2022-11-02T16:05:13.0000000+00:00</time></trkpt><trkpt lat="39.47741764" lon="-0.38618848"><ele>24.9</ele><time>2022-11-02T16:05:25.0000000+00:00</time></trkpt><trkpt lat="39.47725394" lon="-0.38625989"><ele>23.2</ele><time>2022-11-02T16:05:31.0000000+00:00</time></trkpt><trkpt lat="39.47726383" lon="-0.38603576"><ele>25.3</ele><time>2022-11-02T16:05:38.0000000+00:00</time></trkpt><trkpt lat="39.47747748" lon="-0.38609443"><ele>26.1</ele><time>2022-11-02T16:05:49.0000000+00:00</time></trkpt><trkpt lat="39.47705445" lon="-0.38623525"><ele>23.4</ele><time>2022-11-02T16:06:38.0000000+00:00</time></trkpt><trkpt lat="39.47717096" lon="-0.38624195"><ele>23.1</ele><time>2022-11-02T16:06:54.0000000+00:00</time></trkpt><trkpt lat="39.47706501" lon="-0.38621287"><ele>23.3</ele><time>2022-11-02T16:07:02.0000000+00:00</time></trkpt><trkpt lat="39.47715218" lon="-0.38607876"><ele>24.2</ele><time>2022-11-02T16:07:13.0000000+00:00</time></trkpt><trkpt lat="39.47733952" lon="-0.38607197"><ele>26.0</ele><time>2022-11-02T16:07:34.0000000+00:00</time></trkpt><trkpt lat="39.47703978" lon="-0.38625218"><ele>23.5</ele><time>2022-11-02T16:07:58.0000000+00:00</time></trkpt><trkpt lat="39.47722971" lon="-0.38614347"><ele>24.6</ele><time>2022-11-02T16:08:12.0000000+00:00</time></trkpt><trkpt lat="39.477149" lon="-0.38632804"><ele>22.2</ele><time>2022-11-02T16:08:26.0000000+00:00</time></trkpt><trkpt lat="39.4770428" lon="-0.38624908"><ele>23.5</ele><time>2022-11-02T16:08:31.0000000+00:00</time></trkpt><trkpt lat="39.47724639" lon="-0.38616476"><ele>24.4</ele><time>2022-11-02T16:08:46.0000000+00:00</time></trkpt><trkpt lat="39.4768703" lon="-0.38629049"><ele>26.8</ele><time>2022-11-02T16:09:03.0000000+00:00</time></trkpt><trkpt lat="39.47751487" lon="-0.38632854"><ele>23.0</ele><time>2022-11-02T16:09:42.0000000+00:00</time></trkpt><trkpt lat="39.47743205" lon="-0.38638738"><ele>21.6</ele><time>2022-11-02T16:09:53.0000000+00:00</time></trkpt><trkpt lat="39.47758159" lon="-0.38652694"><ele>21.5</ele><time>2022-11-02T16:10:34.0000000+00:00</time></trkpt><trkpt lat="39.47783858" lon="-0.38641705"><ele>21.1</ele><time>2022-11-02T16:12:20.0000000+00:00</time></trkpt><trkpt lat="39.47766624" lon="-0.38623542"><ele>24.4</ele><time>2022-11-02T16:13:04.0000000+00:00</time></trkpt><trkpt lat="39.47797093" lon="-0.38629811"><ele>22.2</ele><time>2022-11-02T16:14:51.0000000+00:00</time></trkpt><trkpt lat="39.47799012" lon="-0.38617498"><ele>23.5</ele><time>2022-11-02T16:16:37.0000000+00:00</time></trkpt><trkpt lat="39.47791837" lon="-0.38675484"><ele>21.2</ele><time>2022-11-02T16:18:53.0000000+00:00</time></trkpt><trkpt lat="39.47770296" lon="-0.38686632"><ele>22.1</ele><time>2022-11-02T16:19:29.0000000+00:00</time></trkpt><trkpt lat="39.47771561" lon="-0.38713672"><ele>22.7</ele><time>2022-11-02T16:20:16.0000000+00:00</time></trkpt><trkpt lat="39.47752568" lon="-0.38739421"><ele>23.2</ele><time>2022-11-02T16:23:15.0000000+00:00</time></trkpt><trkpt lat="39.47780111" lon="-0.38734543"><ele>25.0</ele><time>2022-11-02T16:23:57.0000000+00:00</time></trkpt><trkpt lat="39.47769399" lon="-0.38721006"><ele>23.1</ele><time>2022-11-02T16:24:33.0000000+00:00</time></trkpt><trkpt lat="39.47782324" lon="-0.38716371"><ele>23.9</ele><time>2022-11-02T16:24:45.0000000+00:00</time></trkpt><trkpt lat="39.47795047" lon="-0.38737628"><ele>26.0</ele><time>2022-11-02T16:25:18.0000000+00:00</time></trkpt><trkpt lat="39.47765409" lon="-0.38788238"><ele>24.4</ele><time>2022-11-02T16:26:59.0000000+00:00</time></trkpt><trkpt lat="39.47673895" lon="-0.38751768"><ele>23.2</ele><time>2022-11-02T16:29:18.0000000+00:00</time></trkpt><trkpt lat="39.47684239" lon="-0.38720814"><ele>24.3</ele><time>2022-11-02T16:30:06.0000000+00:00</time></trkpt><trkpt lat="39.47629631" lon="-0.38694637"><ele>29.8</ele><time>2022-11-02T16:33:32.0000000+00:00</time></trkpt><trkpt lat="39.47611333" lon="-0.38725575"><ele>27.1</ele><time>2022-11-02T16:34:32.0000000+00:00</time></trkpt><trkpt lat="39.47560161" lon="-0.38704787"><ele>24.0</ele><time>2022-11-02T16:36:01.0000000+00:00</time></trkpt><trkpt lat="39.47583371" lon="-0.38622838"><ele>28.3</ele><time>2022-11-02T16:39:01.0000000+00:00</time></trkpt><trkpt lat="39.47575961" lon="-0.3861355"><ele>27.0</ele><time>2022-11-02T16:39:38.0000000+00:00</time></trkpt><trkpt lat="39.47577445" lon="-0.38632267"><ele>27.4</ele><time>2022-11-02T16:40:22.0000000+00:00</time></trkpt><trkpt lat="39.47553288" lon="-0.38636894"><ele>25.0</ele><time>2022-11-02T16:41:04.0000000+00:00</time></trkpt><trkpt lat="39.47555074" lon="-0.38600567"><ele>25.8</ele><time>2022-11-02T16:41:39.0000000+00:00</time></trkpt><trkpt lat="39.47553339" lon="-0.38633281"><ele>25.1</ele><time>2022-11-02T16:42:14.0000000+00:00</time></trkpt><trkpt lat="39.47538905" lon="-0.38610089"><ele>26.1</ele><time>2022-11-02T16:42:30.0000000+00:00</time></trkpt><trkpt lat="39.47552576" lon="-0.38526613"><ele>32.4</ele><time>2022-11-02T16:44:54.0000000+00:00</time></trkpt><trkpt lat="39.47547941" lon="-0.38588363"><ele>26.5</ele><time>2022-11-02T16:45:38.0000000+00:00</time></trkpt><trkpt lat="39.47527304" lon="-0.38636299"><ele>25.2</ele><time>2022-11-02T16:46:18.0000000+00:00</time></trkpt><trkpt lat="39.47533624" lon="-0.38655963"><ele>24.0</ele><time>2022-11-02T16:47:49.0000000+00:00</time></trkpt><trkpt lat="39.47550095" lon="-0.38634287"><ele>24.8</ele><time>2022-11-02T16:47:58.0000000+00:00</time></trkpt><trkpt lat="39.47530875" lon="-0.38700689"><ele>23.9</ele><time>2022-11-02T16:49:03.0000000+00:00</time></trkpt><trkpt lat="39.47577864" lon="-0.38737519"><ele>22.9</ele><time>2022-11-02T16:49:46.0000000+00:00</time></trkpt><trkpt lat="39.47716517" lon="-0.38769085"><ele>18.9</ele><time>2022-11-02T16:52:04.0000000+00:00</time></trkpt><trkpt lat="39.47761889" lon="-0.38798438"><ele>22.7</ele><time>2022-11-02T16:52:55.0000000+00:00</time></trkpt><trkpt lat="39.47759248" lon="-0.38835109"><ele>18.7</ele><time>2022-11-02T16:53:38.0000000+00:00</time></trkpt><trkpt lat="39.47780748" lon="-0.38822712"><ele>19.1</ele><time>2022-11-02T16:54:37.0000000+00:00</time></trkpt><trkpt lat="39.47767739" lon="-0.38863289"><ele>17.2</ele><time>2022-11-02T16:55:20.0000000+00:00</time></trkpt><trkpt lat="39.47723173" lon="-0.38848495"><ele>19.1</ele><time>2022-11-02T16:56:43.0000000+00:00</time></trkpt><trkpt lat="39.47713601" lon="-0.38829477"><ele>18.5</ele><time>2022-11-02T16:57:29.0000000+00:00</time></trkpt><trkpt lat="39.47732829" lon="-0.38780853"><ele>18.1</ele><time>2022-11-02T16:58:10.0000000+00:00</time></trkpt><trkpt lat="39.47793036" lon="-0.3880651"><ele>20.1</ele><time>2022-11-02T16:59:14.0000000+00:00</time></trkpt><trkpt lat="39.47752107" lon="-0.38966001"><ele>17.6</ele><time>2022-11-02T17:01:11.0000000+00:00</time></trkpt><trkpt lat="39.47765686" lon="-0.38970293"><ele>16.4</ele><time>2022-11-02T17:01:25.0000000+00:00</time></trkpt><trkpt lat="39.47780262" lon="-0.3892964"><ele>16.8</ele><time>2022-11-02T17:02:00.0000000+00:00</time></trkpt><trkpt lat="39.47881792" lon="-0.38970888"><ele>18.5</ele><time>2022-11-02T17:04:57.0000000+00:00</time></trkpt><trkpt lat="39.47906317" lon="-0.38996763"><ele>15.8</ele><time>2022-11-02T17:06:51.0000000+00:00</time></trkpt><trkpt lat="39.4788377" lon="-0.39072384"><ele>15.2</ele><time>2022-11-02T17:08:11.0000000+00:00</time></trkpt><trkpt lat="39.47901841" lon="-0.39087673"><ele>17.0</ele><time>2022-11-02T17:09:00.0000000+00:00</time></trkpt><trkpt lat="39.47935461" lon="-0.39091352"><ele>17.3</ele><time>2022-11-02T17:09:42.0000000+00:00</time></trkpt><trkpt lat="39.47958587" lon="-0.39044338"><ele>20.5</ele><time>2022-11-02T17:11:15.0000000+00:00</time></trkpt><trkpt lat="39.48183163" lon="-0.38952825"><ele>19.2</ele><time>2022-11-02T18:15:56.0000000+00:00</time></trkpt><trkpt lat="39.48181864" lon="-0.39001289"><ele>20.3</ele><time>2022-11-02T18:16:02.0000000+00:00</time></trkpt><trkpt lat="39.48201964" lon="-0.38942934"><ele>21.3</ele><time>2022-11-02T18:16:46.0000000+00:00</time></trkpt><trkpt lat="39.48192291" lon="-0.38942599"><ele>20.0</ele><time>2022-11-02T18:16:57.0000000+00:00</time></trkpt><trkpt lat="39.48248282" lon="-0.38886122"><ele>23.6</ele><time>2022-11-02T18:18:25.0000000+00:00</time></trkpt><trkpt lat="39.48250059" lon="-0.38801691"><ele>20.4</ele><time>2022-11-02T18:19:45.0000000+00:00</time></trkpt><trkpt lat="39.48262657" lon="-0.38779931"><ele>20.6</ele><time>2022-11-02T18:20:13.0000000+00:00</time></trkpt><trkpt lat="39.48249724" lon="-0.38772714"><ele>20.3</ele><time>2022-11-02T18:20:40.0000000+00:00</time></trkpt><trkpt lat="39.48266186" lon="-0.38778205"><ele>20.9</ele><time>2022-11-02T18:21:09.0000000+00:00</time></trkpt><trkpt lat="39.48278323" lon="-0.38752548"><ele>21.9</ele><time>2022-11-02T18:21:32.0000000+00:00</time></trkpt><trkpt lat="39.48260478" lon="-0.3874026"><ele>21.6</ele><time>2022-11-02T18:21:50.0000000+00:00</time></trkpt></trkseg><trkseg><trkpt lat="39.45252246" lon="-0.34536651"><ele>10.5</ele><time>2022-11-04T13:56:57.0000000+00:00</time></trkpt><trkpt lat="39.45214" lon="-0.34539116"><ele>7.2</ele><time>2022-11-04T13:56:59.0000000+00:00</time></trkpt><trkpt lat="39.45236413" lon="-0.3452345"><ele>9.4</ele><time>2022-11-04T13:57:09.0000000+00:00</time></trkpt><trkpt lat="39.45229707" lon="-0.34531362"><ele>9.4</ele><time>2022-11-04T13:57:36.0000000+00:00</time></trkpt><trkpt lat="39.45257837" lon="-0.34538135"><ele>10.3</ele><time>2022-11-04T14:01:18.0000000+00:00</time></trkpt><trkpt lat="39.45232591" lon="-0.34527356"><ele>9.4</ele><time>2022-11-04T14:10:47.0000000+00:00</time></trkpt><trkpt lat="39.45237452" lon="-0.34538906"><ele>11.4</ele><time>2022-11-04T14:11:15.0000000+00:00</time></trkpt><trkpt lat="39.45246178" lon="-0.34523869"><ele>9.6</ele><time>2022-11-04T14:11:35.0000000+00:00</time></trkpt><trkpt lat="39.45233127" lon="-0.34555335"><ele>11.1</ele><time>2022-11-04T14:12:29.0000000+00:00</time></trkpt><trkpt lat="39.45238994" lon="-0.34521111"><ele>9.1</ele><time>2022-11-04T14:12:56.0000000+00:00</time></trkpt><trkpt lat="39.45232214" lon="-0.34530063"><ele>9.6</ele><time>2022-11-04T14:13:03.0000000+00:00</time></trkpt><trkpt lat="39.45235801" lon="-0.34599407"><ele>8.7</ele><time>2022-11-04T14:13:40.0000000+00:00</time></trkpt><trkpt lat="39.45352955" lon="-0.34585853"><ele>7.0</ele><time>2022-11-04T14:15:17.0000000+00:00</time></trkpt><trkpt lat="39.45343693" lon="-0.34592869"><ele>7.8</ele><time>2022-11-04T14:15:42.0000000+00:00</time></trkpt><trkpt lat="39.45373289" lon="-0.34684441"><ele>7.1</ele><time>2022-11-04T14:17:04.0000000+00:00</time></trkpt><trkpt lat="39.45270695" lon="-0.34614259"><ele>9.0</ele><time>2022-11-04T14:38:53.0000000+00:00</time></trkpt><trkpt lat="39.45284299" lon="-0.34645264"><ele>6.1</ele><time>2022-11-04T14:39:46.0000000+00:00</time></trkpt><trkpt lat="39.45310358" lon="-0.34632381"><ele>7.2</ele><time>2022-11-04T14:41:18.0000000+00:00</time></trkpt><trkpt lat="39.45320752" lon="-0.34660704"><ele>6.9</ele><time>2022-11-04T14:42:26.0000000+00:00</time></trkpt><trkpt lat="39.45353651" lon="-0.34673335"><ele>8.0</ele><time>2022-11-04T14:43:03.0000000+00:00</time></trkpt><trkpt lat="39.45330366" lon="-0.34695371"><ele>7.3</ele><time>2022-11-04T14:43:28.0000000+00:00</time></trkpt><trkpt lat="39.45298288" lon="-0.34683226"><ele>7.4</ele><time>2022-11-04T14:43:57.0000000+00:00</time></trkpt><trkpt lat="39.45283896" lon="-0.34701213"><ele>6.6</ele><time>2022-11-04T14:45:43.0000000+00:00</time></trkpt><trkpt lat="39.4528994" lon="-0.34738161"><ele>6.6</ele><time>2022-11-04T14:49:15.0000000+00:00</time></trkpt><trkpt lat="39.45312219" lon="-0.3472962"><ele>8.0</ele><time>2022-11-04T14:49:53.0000000+00:00</time></trkpt><trkpt lat="39.45313317" lon="-0.34780045"><ele>6.6</ele><time>2022-11-04T14:49:59.0000000+00:00</time></trkpt><trkpt lat="39.45336677" lon="-0.34761295"><ele>7.6</ele><time>2022-11-04T14:50:18.0000000+00:00</time></trkpt><trkpt lat="39.45333961" lon="-0.34722696"><ele>7.6</ele><time>2022-11-04T14:50:32.0000000+00:00</time></trkpt><trkpt lat="39.45351211" lon="-0.3469631"><ele>7.5</ele><time>2022-11-04T14:53:27.0000000+00:00</time></trkpt><trkpt lat="39.45355084" lon="-0.3472594"><ele>7.3</ele><time>2022-11-04T14:53:55.0000000+00:00</time></trkpt><trkpt lat="39.45336518" lon="-0.34713124"><ele>7.3</ele><time>2022-11-04T14:56:10.0000000+00:00</time></trkpt><trkpt lat="39.45341824" lon="-0.34782493"><ele>6.4</ele><time>2022-11-04T14:58:14.0000000+00:00</time></trkpt><trkpt lat="39.45338521" lon="-0.34766131"><ele>7.3</ele><time>2022-11-04T14:59:16.0000000+00:00</time></trkpt><trkpt lat="39.45388888" lon="-0.34768076"><ele>7.3</ele><time>2022-11-04T14:59:57.0000000+00:00</time></trkpt><trkpt lat="39.45339846" lon="-0.34833086"><ele>6.5</ele><time>2022-11-04T15:00:28.0000000+00:00</time></trkpt><trkpt lat="39.45370238" lon="-0.34762326"><ele>7.9</ele><time>2022-11-04T15:05:15.0000000+00:00</time></trkpt><trkpt lat="39.45334875" lon="-0.34809499"><ele>6.5</ele><time>2022-11-04T15:05:45.0000000+00:00</time></trkpt><trkpt lat="39.45349912" lon="-0.34777572"><ele>6.7</ele><time>2022-11-04T15:07:08.0000000+00:00</time></trkpt><trkpt lat="39.45388075" lon="-0.34818367"><ele>7.9</ele><time>2022-11-04T15:10:12.0000000+00:00</time></trkpt><trkpt lat="39.45405652" lon="-0.34822189"><ele>8.1</ele><time>2022-11-04T15:10:37.0000000+00:00</time></trkpt><trkpt lat="39.45400078" lon="-0.34809843"><ele>8.0</ele><time>2022-11-04T15:13:05.0000000+00:00</time></trkpt><trkpt lat="39.45401033" lon="-0.34826422"><ele>8.2</ele><time>2022-11-04T15:17:05.0000000+00:00</time></trkpt><trkpt lat="39.45400983" lon="-0.34806976"><ele>7.9</ele><time>2022-11-04T15:18:45.0000000+00:00</time></trkpt><trkpt lat="39.45376759" lon="-0.34797605"><ele>8.0</ele><time>2022-11-04T15:23:18.0000000+00:00</time></trkpt><trkpt lat="39.45405132" lon="-0.34808803"><ele>7.8</ele><time>2022-11-04T15:32:24.0000000+00:00</time></trkpt><trkpt lat="39.45384571" lon="-0.34852297"><ele>7.1</ele><time>2022-11-04T15:33:04.0000000+00:00</time></trkpt><trkpt lat="39.453407" lon="-0.34840219"><ele>6.4</ele><time>2022-11-04T15:35:04.0000000+00:00</time></trkpt><trkpt lat="39.45337826" lon="-0.34819298"><ele>6.6</ele><time>2022-11-04T15:36:07.0000000+00:00</time></trkpt><trkpt lat="39.45344648" lon="-0.34838065"><ele>6.6</ele><time>2022-11-04T15:36:42.0000000+00:00</time></trkpt><trkpt lat="39.45351136" lon="-0.34825374"><ele>6.9</ele><time>2022-11-04T16:03:03.0000000+00:00</time></trkpt><trkpt lat="39.45379542" lon="-0.34840772"><ele>7.1</ele><time>2022-11-04T16:03:22.0000000+00:00</time></trkpt><trkpt lat="39.45417998" lon="-0.34803179"><ele>6.7</ele><time>2022-11-04T16:03:51.0000000+00:00</time></trkpt><trkpt lat="39.45401209" lon="-0.34737306"><ele>5.4</ele><time>2022-11-04T16:04:22.0000000+00:00</time></trkpt><trkpt lat="39.4536225" lon="-0.3471268"><ele>7.1</ele><time>2022-11-04T16:04:46.0000000+00:00</time></trkpt><trkpt lat="39.45356735" lon="-0.34607026"><ele>7.3</ele><time>2022-11-04T16:05:40.0000000+00:00</time></trkpt><trkpt lat="39.45235826" lon="-0.34595811"><ele>9.0</ele><time>2022-11-04T16:06:51.0000000+00:00</time></trkpt><trkpt lat="39.45249849" lon="-0.34539954"><ele>10.8</ele><time>2022-11-04T16:07:53.0000000+00:00</time></trkpt><trkpt lat="39.45236044" lon="-0.34529845"><ele>10.2</ele><time>2022-11-04T16:22:08.0000000+00:00</time></trkpt><trkpt lat="39.45243672" lon="-0.3460084"><ele>8.9</ele><time>2022-11-04T16:23:45.0000000+00:00</time></trkpt><trkpt lat="39.45360666" lon="-0.34618249"><ele>7.2</ele><time>2022-11-04T16:26:12.0000000+00:00</time></trkpt><trkpt lat="39.45406725" lon="-0.34773373"><ele>6.3</ele><time>2022-11-04T16:28:20.0000000+00:00</time></trkpt><trkpt lat="39.45398527" lon="-0.34762929"><ele>6.5</ele><time>2022-11-04T16:28:33.0000000+00:00</time></trkpt><trkpt lat="39.45381805" lon="-0.34880276"><ele>7.3</ele><time>2022-11-04T16:29:59.0000000+00:00</time></trkpt><trkpt lat="39.45362175" lon="-0.34885313"><ele>6.6</ele><time>2022-11-04T16:31:01.0000000+00:00</time></trkpt><trkpt lat="39.45378025" lon="-0.34894802"><ele>6.9</ele><time>2022-11-04T16:34:54.0000000+00:00</time></trkpt><trkpt lat="39.45315538" lon="-0.34929855"><ele>5.5</ele><time>2022-11-04T16:37:19.0000000+00:00</time></trkpt><trkpt lat="39.45304742" lon="-0.34913862"><ele>6.1</ele><time>2022-11-04T16:45:57.0000000+00:00</time></trkpt><trkpt lat="39.45334582" lon="-0.34926192"><ele>6.1</ele><time>2022-11-04T16:46:20.0000000+00:00</time></trkpt><trkpt lat="39.45343944" lon="-0.34904189"><ele>6.1</ele><time>2022-11-04T16:46:42.0000000+00:00</time></trkpt><trkpt lat="39.45312026" lon="-0.3488673"><ele>6.5</ele><time>2022-11-04T16:47:10.0000000+00:00</time></trkpt><trkpt lat="39.45273084" lon="-0.34802131"><ele>6.1</ele><time>2022-11-04T16:48:28.0000000+00:00</time></trkpt><trkpt lat="39.45250754" lon="-0.34814084"><ele>5.5</ele><time>2022-11-04T16:49:16.0000000+00:00</time></trkpt><trkpt lat="39.45288925" lon="-0.34963575"><ele>5.6</ele><time>2022-11-04T16:51:08.0000000+00:00</time></trkpt><trkpt lat="39.45412005" lon="-0.34906235"><ele>6.5</ele><time>2022-11-04T16:52:55.0000000+00:00</time></trkpt><trkpt lat="39.45465842" lon="-0.34946091"><ele>4.3</ele><time>2022-11-04T16:54:14.0000000+00:00</time></trkpt><trkpt lat="39.45564942" lon="-0.34957482"><ele>3.1</ele><time>2022-11-04T16:56:09.0000000+00:00</time></trkpt><trkpt lat="39.45593583" lon="-0.34976961"><ele>3.9</ele><time>2022-11-04T16:56:45.0000000+00:00</time></trkpt><trkpt lat="39.45751908" lon="-0.35227144"><ele>5.7</ele><time>2022-11-04T17:00:34.0000000+00:00</time></trkpt><trkpt lat="39.4573978" lon="-0.35251561"><ele>6.5</ele><time>2022-11-04T17:00:55.0000000+00:00</time></trkpt><trkpt lat="39.45751078" lon="-0.35306211"><ele>5.1</ele><time>2022-11-04T17:02:26.0000000+00:00</time></trkpt><trkpt lat="39.45802652" lon="-0.3533859"><ele>5.3</ele><time>2022-11-04T17:03:14.0000000+00:00</time></trkpt><trkpt lat="39.45765353" lon="-0.35395671"><ele>2.9</ele><time>2022-11-04T17:04:08.0000000+00:00</time></trkpt><trkpt lat="39.45770583" lon="-0.35436985"><ele>5.7</ele><time>2022-11-04T17:04:38.0000000+00:00</time></trkpt><trkpt lat="39.45819248" lon="-0.35463832"><ele>6.5</ele><time>2022-11-04T17:05:13.0000000+00:00</time></trkpt><trkpt lat="39.45844478" lon="-0.35509874"><ele>3.5</ele><time>2022-11-04T17:05:43.0000000+00:00</time></trkpt><trkpt lat="39.45868224" lon="-0.35632468"><ele>4.4</ele><time>2022-11-04T17:06:54.0000000+00:00</time></trkpt><trkpt lat="39.45908776" lon="-0.35669181"><ele>5.6</ele><time>2022-11-04T17:08:13.0000000+00:00</time></trkpt><trkpt lat="39.45936645" lon="-0.35751902"><ele>5.3</ele><time>2022-11-04T17:11:06.0000000+00:00</time></trkpt><trkpt lat="39.45963459" lon="-0.35740762"><ele>3.9</ele><time>2022-11-04T17:11:46.0000000+00:00</time></trkpt><trkpt lat="39.46026139" lon="-0.35810147"><ele>5.2</ele><time>2022-11-04T17:14:29.0000000+00:00</time></trkpt><trkpt lat="39.46110017" lon="-0.35838193"><ele>6.8</ele><time>2022-11-04T17:16:10.0000000+00:00</time></trkpt><trkpt lat="39.46199125" lon="-0.35832393"><ele>8.5</ele><time>2022-11-04T17:17:28.0000000+00:00</time></trkpt><trkpt lat="39.46289079" lon="-0.35911074"><ele>8.2</ele><time>2022-11-04T17:18:56.0000000+00:00</time></trkpt><trkpt lat="39.4648758" lon="-0.35991247"><ele>13.1</ele><time>2022-11-04T17:21:26.0000000+00:00</time></trkpt><trkpt lat="39.46541685" lon="-0.36052284"><ele>8.5</ele><time>2022-11-04T17:22:14.0000000+00:00</time></trkpt><trkpt lat="39.46535373" lon="-0.3612006"><ele>6.6</ele><time>2022-11-04T17:22:57.0000000+00:00</time></trkpt><trkpt lat="39.46650541" lon="-0.36184089"><ele>5.4</ele><time>2022-11-04T17:24:31.0000000+00:00</time></trkpt><trkpt lat="39.46685183" lon="-0.36177191"><ele>6.5</ele><time>2022-11-04T17:25:02.0000000+00:00</time></trkpt><trkpt lat="39.46931879" lon="-0.3633545"><ele>6.9</ele><time>2022-11-04T17:28:42.0000000+00:00</time></trkpt><trkpt lat="39.46950001" lon="-0.36326272"><ele>6.8</ele><time>2022-11-04T17:28:57.0000000+00:00</time></trkpt><trkpt lat="39.46992204" lon="-0.36344921"><ele>9.6</ele><time>2022-11-04T17:29:31.0000000+00:00</time></trkpt><trkpt lat="39.47022236" lon="-0.36318518"><ele>10.1</ele><time>2022-11-04T17:29:57.0000000+00:00</time></trkpt><trkpt lat="39.47030668" lon="-0.36271446"><ele>10.1</ele><time>2022-11-04T17:30:32.0000000+00:00</time></trkpt><trkpt lat="39.47127303" lon="-0.36377108"><ele>8.4</ele><time>2022-11-04T17:32:09.0000000+00:00</time></trkpt><trkpt lat="39.47332366" lon="-0.36516583"><ele>9.3</ele><time>2022-11-04T17:35:48.0000000+00:00</time></trkpt><trkpt lat="39.47329709" lon="-0.36539373"><ele>8.4</ele><time>2022-11-04T17:36:00.0000000+00:00</time></trkpt></trkseg><trkseg><trkpt lat="39.46261" lon="-0.3972484"><ele>32.0</ele><time>2022-11-06T12:18:45.0000000+00:00</time></trkpt><trkpt lat="39.46274847" lon="-0.39703776"><ele>31.4</ele><time>2022-11-06T12:18:48.0000000+00:00</time></trkpt><trkpt lat="39.46319707" lon="-0.39746633"><ele>23.5</ele><time>2022-11-06T12:19:27.0000000+00:00</time></trkpt><trkpt lat="39.46329975" lon="-0.39727975"><ele>27.9</ele><time>2022-11-06T12:19:48.0000000+00:00</time></trkpt><trkpt lat="39.46348909" lon="-0.39749231"><ele>33.9</ele><time>2022-11-06T12:20:28.0000000+00:00</time></trkpt><trkpt lat="39.46370275" lon="-0.39729634"><ele>34.9</ele><time>2022-11-06T12:20:51.0000000+00:00</time></trkpt><trkpt lat="39.46319824" lon="-0.39653979"><ele>29.1</ele><time>2022-11-06T12:21:44.0000000+00:00</time></trkpt><trkpt lat="39.46339983" lon="-0.39616454"><ele>32.1</ele><time>2022-11-06T12:22:18.0000000+00:00</time></trkpt><trkpt lat="39.46316949" lon="-0.39620318"><ele>29.9</ele><time>2022-11-06T12:22:26.0000000+00:00</time></trkpt><trkpt lat="39.46282282" lon="-0.39589975"><ele>36.0</ele><time>2022-11-06T12:22:31.0000000+00:00</time></trkpt><trkpt lat="39.46278568" lon="-0.39602892"><ele>38.1</ele><time>2022-11-06T12:22:39.0000000+00:00</time></trkpt><trkpt lat="39.46320721" lon="-0.39581702"><ele>33.9</ele><time>2022-11-06T12:23:14.0000000+00:00</time></trkpt><trkpt lat="39.46332363" lon="-0.3954882"><ele>36.2</ele><time>2022-11-06T12:23:52.0000000+00:00</time></trkpt><trkpt lat="39.46343377" lon="-0.39556196"><ele>38.0</ele><time>2022-11-06T12:23:55.0000000+00:00</time></trkpt><trkpt lat="39.46337845" lon="-0.39531956"><ele>34.2</ele><time>2022-11-06T12:24:10.0000000+00:00</time></trkpt><trkpt lat="39.46381951" lon="-0.39468437"><ele>24.0</ele><time>2022-11-06T12:25:11.0000000+00:00</time></trkpt><trkpt lat="39.46381121" lon="-0.39420677"><ele>22.3</ele><time>2022-11-06T12:26:15.0000000+00:00</time></trkpt><trkpt lat="39.46433533" lon="-0.39404475"><ele>23.2</ele><time>2022-11-06T12:27:39.0000000+00:00</time></trkpt><trkpt lat="39.46486733" lon="-0.39416042"><ele>30.4</ele><time>2022-11-06T12:28:37.0000000+00:00</time></trkpt><trkpt lat="39.46528114" lon="-0.39510917"><ele>23.5</ele><time>2022-11-06T12:29:47.0000000+00:00</time></trkpt><trkpt lat="39.46586075" lon="-0.39545224"><ele>21.4</ele><time>2022-11-06T12:31:04.0000000+00:00</time></trkpt><trkpt lat="39.46653156" lon="-0.39558602"><ele>21.8</ele><time>2022-11-06T12:32:27.0000000+00:00</time></trkpt><trkpt lat="39.46656869" lon="-0.39534261"><ele>23.1</ele><time>2022-11-06T12:33:00.0000000+00:00</time></trkpt><trkpt lat="39.46672216" lon="-0.39530447"><ele>23.8</ele><time>2022-11-06T12:33:25.0000000+00:00</time></trkpt><trkpt lat="39.46603401" lon="-0.39503742"><ele>22.4</ele><time>2022-11-06T12:34:45.0000000+00:00</time></trkpt><trkpt lat="39.46584759" lon="-0.39473861"><ele>25.3</ele><time>2022-11-06T12:35:21.0000000+00:00</time></trkpt><trkpt lat="39.4647732" lon="-0.39416436"><ele>31.1</ele><time>2022-11-06T12:37:19.0000000+00:00</time></trkpt><trkpt lat="39.46399167" lon="-0.39407861"><ele>21.1</ele><time>2022-11-06T12:38:33.0000000+00:00</time></trkpt><trkpt lat="39.46389964" lon="-0.3936643"><ele>24.2</ele><time>2022-11-06T12:39:03.0000000+00:00</time></trkpt><trkpt lat="39.46345657" lon="-0.39370487"><ele>21.7</ele><time>2022-11-06T12:39:36.0000000+00:00</time></trkpt><trkpt lat="39.46326848" lon="-0.39281404"><ele>22.0</ele><time>2022-11-06T12:40:32.0000000+00:00</time></trkpt><trkpt lat="39.46267085" lon="-0.39173277"><ele>24.8</ele><time>2022-11-06T12:41:58.0000000+00:00</time></trkpt><trkpt lat="39.46249299" lon="-0.39158139"><ele>22.6</ele><time>2022-11-06T12:42:13.0000000+00:00</time></trkpt><trkpt lat="39.46232443" lon="-0.39172028"><ele>20.4</ele><time>2022-11-06T12:42:19.0000000+00:00</time></trkpt><trkpt lat="39.4621117" lon="-0.39139842"><ele>20.2</ele><time>2022-11-06T12:42:43.0000000+00:00</time></trkpt><trkpt lat="39.46192252" lon="-0.39157963"><ele>20.6</ele><time>2022-11-06T12:43:28.0000000+00:00</time></trkpt><trkpt lat="39.46154516" lon="-0.39129289"><ele>22.8</ele><time>2022-11-06T12:43:48.0000000+00:00</time></trkpt><trkpt lat="39.46162278" lon="-0.39146732"><ele>22.5</ele><time>2022-11-06T12:43:56.0000000+00:00</time></trkpt><trkpt lat="39.46138918" lon="-0.39149204"><ele>26.1</ele><time>2022-11-06T12:44:20.0000000+00:00</time></trkpt><trkpt lat="39.46107728" lon="-0.39096398"><ele>27.1</ele><time>2022-11-06T12:45:23.0000000+00:00</time></trkpt><trkpt lat="39.46136814" lon="-0.3909173"><ele>22.1</ele><time>2022-11-06T12:45:29.0000000+00:00</time></trkpt><trkpt lat="39.46084645" lon="-0.39058395"><ele>26.9</ele><time>2022-11-06T12:46:25.0000000+00:00</time></trkpt><trkpt lat="39.46077428" lon="-0.39021154"><ele>26.4</ele><time>2022-11-06T12:46:44.0000000+00:00</time></trkpt><trkpt lat="39.46040338" lon="-0.38976864"><ele>25.1</ele><time>2022-11-06T12:47:12.0000000+00:00</time></trkpt><trkpt lat="39.45934324" lon="-0.39016276"><ele>19.6</ele><time>2022-11-06T12:49:00.0000000+00:00</time></trkpt><trkpt lat="39.45901525" lon="-0.38896415"><ele>18.8</ele><time>2022-11-06T12:50:27.0000000+00:00</time></trkpt><trkpt lat="39.45868568" lon="-0.38916263"><ele>20.1</ele><time>2022-11-06T12:51:00.0000000+00:00</time></trkpt><trkpt lat="39.4581945" lon="-0.38903003"><ele>30.1</ele><time>2022-11-06T12:52:20.0000000+00:00</time></trkpt><trkpt lat="39.45779108" lon="-0.38983394"><ele>29.7</ele><time>2022-11-06T12:52:43.0000000+00:00</time></trkpt><trkpt lat="39.45753199" lon="-0.38950168"><ele>28.2</ele><time>2022-11-06T12:53:11.0000000+00:00</time></trkpt><trkpt lat="39.4574097" lon="-0.38830977"><ele>26.5</ele><time>2022-11-06T12:54:47.0000000+00:00</time></trkpt><trkpt lat="39.45779862" lon="-0.38843357"><ele>28.1</ele><time>2022-11-06T12:55:11.0000000+00:00</time></trkpt><trkpt lat="39.45739771" lon="-0.3886375"><ele>25.8</ele><time>2022-11-06T12:55:17.0000000+00:00</time></trkpt><trkpt lat="39.45792393" lon="-0.38858461"><ele>29.5</ele><time>2022-11-06T12:55:33.0000000+00:00</time></trkpt><trkpt lat="39.45753375" lon="-0.38872249"><ele>27.3</ele><time>2022-11-06T12:56:27.0000000+00:00</time></trkpt><trkpt lat="39.45763635" lon="-0.38856248"><ele>27.4</ele><time>2022-11-06T12:57:13.0000000+00:00</time></trkpt><trkpt lat="39.45743359" lon="-0.38844816"><ele>26.4</ele><time>2022-11-06T12:57:28.0000000+00:00</time></trkpt><trkpt lat="39.45762042" lon="-0.38828965"><ele>26.6</ele><time>2022-11-06T12:57:48.0000000+00:00</time></trkpt><trkpt lat="39.45735161" lon="-0.38826861"><ele>26.6</ele><time>2022-11-06T12:58:04.0000000+00:00</time></trkpt><trkpt lat="39.45710443" lon="-0.38789026"><ele>24.6</ele><time>2022-11-06T12:58:35.0000000+00:00</time></trkpt><trkpt lat="39.4571191" lon="-0.38726505"><ele>23.5</ele><time>2022-11-06T12:59:07.0000000+00:00</time></trkpt><trkpt lat="39.45734449" lon="-0.38724787"><ele>21.4</ele><time>2022-11-06T12:59:46.0000000+00:00</time></trkpt><trkpt lat="39.45719051" lon="-0.38697043"><ele>23.3</ele><time>2022-11-06T13:00:11.0000000+00:00</time></trkpt><trkpt lat="39.45675289" lon="-0.38699197"><ele>23.1</ele><time>2022-11-06T13:00:45.0000000+00:00</time></trkpt><trkpt lat="39.45643036" lon="-0.38626987"><ele>25.8</ele><time>2022-11-06T13:01:59.0000000+00:00</time></trkpt><trkpt lat="39.4563193" lon="-0.38530964"><ele>17.3</ele><time>2022-11-06T13:02:58.0000000+00:00</time></trkpt><trkpt lat="39.45642365" lon="-0.38515071"><ele>18.2</ele><time>2022-11-06T13:03:08.0000000+00:00</time></trkpt><trkpt lat="39.45629625" lon="-0.38500822"><ele>18.0</ele><time>2022-11-06T13:03:24.0000000+00:00</time></trkpt><trkpt lat="39.45639289" lon="-0.3848944"><ele>19.9</ele><time>2022-11-06T13:03:33.0000000+00:00</time></trkpt><trkpt lat="39.45623992" lon="-0.38476615"><ele>15.4</ele><time>2022-11-06T13:03:41.0000000+00:00</time></trkpt><trkpt lat="39.45646648" lon="-0.38451629"><ele>20.3</ele><time>2022-11-06T13:04:00.0000000+00:00</time></trkpt><trkpt lat="39.45608259" lon="-0.38412058"><ele>21.4</ele><time>2022-11-06T13:04:36.0000000+00:00</time></trkpt><trkpt lat="39.45635199" lon="-0.38297025"><ele>22.7</ele><time>2022-11-06T13:05:57.0000000+00:00</time></trkpt><trkpt lat="39.455894" lon="-0.3823437"><ele>16.1</ele><time>2022-11-06T13:06:54.0000000+00:00</time></trkpt><trkpt lat="39.45525253" lon="-0.38191957"><ele>21.7</ele><time>2022-11-06T13:08:02.0000000+00:00</time></trkpt><trkpt lat="39.45517567" lon="-0.38153476"><ele>12.9</ele><time>2022-11-06T13:08:31.0000000+00:00</time></trkpt><trkpt lat="39.45455072" lon="-0.38142957"><ele>17.1</ele><time>2022-11-06T13:09:36.0000000+00:00</time></trkpt><trkpt lat="39.45442314" lon="-0.38104476"><ele>12.2</ele><time>2022-11-06T13:10:28.0000000+00:00</time></trkpt><trkpt lat="39.45512739" lon="-0.38039742"><ele>16.9</ele><time>2022-11-06T13:12:07.0000000+00:00</time></trkpt><trkpt lat="39.45507274" lon="-0.38011679"><ele>20.2</ele><time>2022-11-06T13:12:36.0000000+00:00</time></trkpt><trkpt lat="39.45539913" lon="-0.38012886"><ele>17.5</ele><time>2022-11-06T13:12:52.0000000+00:00</time></trkpt><trkpt lat="39.45549795" lon="-0.37948195"><ele>18.1</ele><time>2022-11-06T13:13:44.0000000+00:00</time></trkpt><trkpt lat="39.45573701" lon="-0.37901935"><ele>14.6</ele><time>2022-11-06T13:14:24.0000000+00:00</time></trkpt><trkpt lat="39.45725648" lon="-0.37971027"><ele>11.2</ele><time>2022-11-06T13:17:17.0000000+00:00</time></trkpt><trkpt lat="39.45802426" lon="-0.379447"><ele>12.5</ele><time>2022-11-06T13:18:52.0000000+00:00</time></trkpt><trkpt lat="39.45836297" lon="-0.37837998"><ele>10.7</ele><time>2022-11-06T13:20:54.0000000+00:00</time></trkpt><trkpt lat="39.45889673" lon="-0.37791546"><ele>13.7</ele><time>2022-11-06T13:22:04.0000000+00:00</time></trkpt><trkpt lat="39.45927844" lon="-0.37730894"><ele>21.3</ele><time>2022-11-06T13:23:56.0000000+00:00</time></trkpt><trkpt lat="39.45928196" lon="-0.37650562"><ele>24.8</ele><time>2022-11-06T13:25:05.0000000+00:00</time></trkpt><trkpt lat="39.45945505" lon="-0.37595602"><ele>22.0</ele><time>2022-11-06T13:26:03.0000000+00:00</time></trkpt><trkpt lat="39.45966284" lon="-0.37548328"><ele>22.9</ele><time>2022-11-06T13:26:44.0000000+00:00</time></trkpt><trkpt lat="39.46008721" lon="-0.37517089"><ele>20.0</ele><time>2022-11-06T13:27:39.0000000+00:00</time></trkpt><trkpt lat="39.4604007" lon="-0.37444837"><ele>20.9</ele><time>2022-11-06T13:29:15.0000000+00:00</time></trkpt><trkpt lat="39.46028067" lon="-0.37430336"><ele>21.1</ele><time>2022-11-06T13:31:37.0000000+00:00</time></trkpt><trkpt lat="39.46055945" lon="-0.37404981"><ele>22.5</ele><time>2022-11-06T13:32:28.0000000+00:00</time></trkpt><trkpt lat="39.46094762" lon="-0.37320617"><ele>18.6</ele><time>2022-11-06T13:33:57.0000000+00:00</time></trkpt><trkpt lat="39.46083915" lon="-0.3728517"><ele>20.4</ele><time>2022-11-06T13:34:30.0000000+00:00</time></trkpt><trkpt lat="39.46097754" lon="-0.37270811"><ele>19.3</ele><time>2022-11-06T13:34:52.0000000+00:00</time></trkpt><trkpt lat="39.46057127" lon="-0.37302822"><ele>20.5</ele><time>2022-11-06T13:40:44.0000000+00:00</time></trkpt><trkpt lat="39.46089523" lon="-0.37290073"><ele>19.6</ele><time>2022-11-06T13:41:20.0000000+00:00</time></trkpt><trkpt lat="39.46082541" lon="-0.37278967"><ele>20.4</ele><time>2022-11-06T13:41:59.0000000+00:00</time></trkpt><trkpt lat="39.46096497" lon="-0.37293392"><ele>18.3</ele><time>2022-11-06T13:42:22.0000000+00:00</time></trkpt><trkpt lat="39.46081149" lon="-0.37296292"><ele>21.2</ele><time>2022-11-06T13:42:58.0000000+00:00</time></trkpt><trkpt lat="39.46082206" lon="-0.37275036"><ele>20.4</ele><time>2022-11-06T13:43:01.0000000+00:00</time></trkpt><trkpt lat="39.46116303" lon="-0.3725559"><ele>21.8</ele><time>2022-11-06T13:43:38.0000000+00:00</time></trkpt><trkpt lat="39.46085533" lon="-0.37295236"><ele>20.3</ele><time>2022-11-06T13:44:31.0000000+00:00</time></trkpt><trkpt lat="39.46131977" lon="-0.37253796"><ele>22.6</ele><time>2022-11-06T13:45:16.0000000+00:00</time></trkpt><trkpt lat="39.46048284" lon="-0.3728688"><ele>19.2</ele><time>2022-11-06T13:46:17.0000000+00:00</time></trkpt><trkpt lat="39.46061209" lon="-0.37280451"><ele>21.3</ele><time>2022-11-06T13:46:21.0000000+00:00</time></trkpt><trkpt lat="39.46045686" lon="-0.37292697"><ele>18.2</ele><time>2022-11-06T13:46:37.0000000+00:00</time></trkpt><trkpt lat="39.4606452" lon="-0.37291758"><ele>22.2</ele><time>2022-11-06T13:47:06.0000000+00:00</time></trkpt><trkpt lat="39.46056498" lon="-0.37298136"><ele>20.4</ele><time>2022-11-06T13:47:12.0000000+00:00</time></trkpt><trkpt lat="39.46093965" lon="-0.37280962"><ele>18.9</ele><time>2022-11-06T13:50:51.0000000+00:00</time></trkpt><trkpt lat="39.46078132" lon="-0.37316342"><ele>22.7</ele><time>2022-11-06T13:54:04.0000000+00:00</time></trkpt><trkpt lat="39.4608726" lon="-0.37306543"><ele>20.1</ele><time>2022-11-06T13:54:16.0000000+00:00</time></trkpt><trkpt lat="39.46057747" lon="-0.37319636"><ele>20.8</ele><time>2022-11-06T13:54:36.0000000+00:00</time></trkpt><trkpt lat="39.46058502" lon="-0.37301179"><ele>20.9</ele><time>2022-11-06T13:54:49.0000000+00:00</time></trkpt><trkpt lat="39.4602883" lon="-0.37317574"><ele>15.4</ele><time>2022-11-06T13:55:11.0000000+00:00</time></trkpt><trkpt lat="39.46067185" lon="-0.37343935"><ele>24.0</ele><time>2022-11-06T14:00:24.0000000+00:00</time></trkpt><trkpt lat="39.46064436" lon="-0.37361361"><ele>23.3</ele><time>2022-11-06T14:00:25.0000000+00:00</time></trkpt><trkpt lat="39.46101476" lon="-0.37262329"><ele>20.4</ele><time>2022-11-06T14:00:27.0000000+00:00</time></trkpt><trkpt lat="39.46092716" lon="-0.37302797"><ele>18.9</ele><time>2022-11-06T14:00:51.0000000+00:00</time></trkpt><trkpt lat="39.46082315" lon="-0.37288648"><ele>20.8</ele><time>2022-11-06T14:01:16.0000000+00:00</time></trkpt><trkpt lat="39.4608006" lon="-0.37323617"><ele>22.3</ele><time>2022-11-06T14:01:40.0000000+00:00</time></trkpt><trkpt lat="39.46098081" lon="-0.3727859"><ele>18.6</ele><time>2022-11-06T14:02:57.0000000+00:00</time></trkpt><trkpt lat="39.46079356" lon="-0.37327113"><ele>22.5</ele><time>2022-11-06T14:04:42.0000000+00:00</time></trkpt><trkpt lat="39.46095156" lon="-0.37321044"><ele>18.5</ele><time>2022-11-06T14:04:55.0000000+00:00</time></trkpt><trkpt lat="39.46096187" lon="-0.37297566"><ele>18.2</ele><time>2022-11-06T14:05:19.0000000+00:00</time></trkpt><trkpt lat="39.46083077" lon="-0.37314456"><ele>21.4</ele><time>2022-11-06T14:05:58.0000000+00:00</time></trkpt><trkpt lat="39.46091711" lon="-0.37299612"><ele>19.1</ele><time>2022-11-06T14:06:33.0000000+00:00</time></trkpt><trkpt lat="39.46088567" lon="-0.37324707"><ele>20.2</ele><time>2022-11-06T14:07:47.0000000+00:00</time></trkpt><trkpt lat="39.46097461" lon="-0.37317934"><ele>17.8</ele><time>2022-11-06T14:07:50.0000000+00:00</time></trkpt><trkpt lat="39.46097486" lon="-0.37293426"><ele>18.1</ele><time>2022-11-06T14:08:11.0000000+00:00</time></trkpt><trkpt lat="39.46103881" lon="-0.3730589"><ele>17.9</ele><time>2022-11-06T14:08:56.0000000+00:00</time></trkpt><trkpt lat="39.46083304" lon="-0.37307893"><ele>21.1</ele><time>2022-11-06T14:12:15.0000000+00:00</time></trkpt><trkpt lat="39.46095835" lon="-0.37315143"><ele>18.1</ele><time>2022-11-06T14:13:51.0000000+00:00</time></trkpt><trkpt lat="39.46100076" lon="-0.37289981"><ele>18.4</ele><time>2022-11-06T14:15:18.0000000+00:00</time></trkpt><trkpt lat="39.46104812" lon="-0.37311128"><ele>17.6</ele><time>2022-11-06T14:16:25.0000000+00:00</time></trkpt><trkpt lat="39.46088106" lon="-0.37316803"><ele>20.1</ele><time>2022-11-06T14:17:28.0000000+00:00</time></trkpt><trkpt lat="39.46096673" lon="-0.37292537"><ele>18.2</ele><time>2022-11-06T14:18:44.0000000+00:00</time></trkpt><trkpt lat="39.46090001" lon="-0.37319913"><ele>19.7</ele><time>2022-11-06T14:21:21.0000000+00:00</time></trkpt><trkpt lat="39.4607369" lon="-0.37315386"><ele>23.8</ele><time>2022-11-06T14:22:36.0000000+00:00</time></trkpt><trkpt lat="39.46088157" lon="-0.37300827"><ele>19.9</ele><time>2022-11-06T14:22:50.0000000+00:00</time></trkpt><trkpt lat="39.46069432" lon="-0.37315931"><ele>24.9</ele><time>2022-11-06T14:24:41.0000000+00:00</time></trkpt><trkpt lat="39.46101434" lon="-0.37290609"><ele>18.5</ele><time>2022-11-06T14:27:07.0000000+00:00</time></trkpt><trkpt lat="39.46080471" lon="-0.37315982"><ele>22.1</ele><time>2022-11-06T14:30:57.0000000+00:00</time></trkpt><trkpt lat="39.46087511" lon="-0.3729558"><ele>20.0</ele><time>2022-11-06T14:31:33.0000000+00:00</time></trkpt><trkpt lat="39.46088551" lon="-0.37309854"><ele>19.9</ele><time>2022-11-06T14:31:42.0000000+00:00</time></trkpt><trkpt lat="39.46111383" lon="-0.37301498"><ele>18.3</ele><time>2022-11-06T14:32:08.0000000+00:00</time></trkpt><trkpt lat="39.46063715" lon="-0.37313526"><ele>22.8</ele><time>2022-11-06T14:33:05.0000000+00:00</time></trkpt><trkpt lat="39.46090093" lon="-0.37319401"><ele>19.7</ele><time>2022-11-06T14:35:23.0000000+00:00</time></trkpt><trkpt lat="39.46079456" lon="-0.37314163"><ele>22.3</ele><time>2022-11-06T14:35:39.0000000+00:00</time></trkpt><trkpt lat="39.4610104" lon="-0.37292697"><ele>18.4</ele><time>2022-11-06T14:36:31.0000000+00:00</time></trkpt><trkpt lat="39.46062902" lon="-0.37311656"><ele>22.5</ele><time>2022-11-06T14:42:04.0000000+00:00</time></trkpt><trkpt lat="39.46080546" lon="-0.37284583"><ele>20.9</ele><time>2022-11-06T14:42:38.0000000+00:00</time></trkpt><trkpt lat="39.46092222" lon="-0.37295203"><ele>19.0</ele><time>2022-11-06T14:43:19.0000000+00:00</time></trkpt><trkpt lat="39.46079548" lon="-0.37306233"><ele>22.0</ele><time>2022-11-06T14:44:33.0000000+00:00</time></trkpt><trkpt lat="39.46102574" lon="-0.37291079"><ele>18.5</ele><time>2022-11-06T14:45:00.0000000+00:00</time></trkpt><trkpt lat="39.46091258" lon="-0.37280861"><ele>19.3</ele><time>2022-11-06T14:45:50.0000000+00:00</time></trkpt><trkpt lat="39.46102188" lon="-0.37300995"><ele>18.1</ele><time>2022-11-06T14:47:21.0000000+00:00</time></trkpt><trkpt lat="39.46080864" lon="-0.37315051"><ele>21.9</ele><time>2022-11-06T14:47:23.0000000+00:00</time></trkpt><trkpt lat="39.46079515" lon="-0.37295722"><ele>21.5</ele><time>2022-11-06T14:47:32.0000000+00:00</time></trkpt><trkpt lat="39.46092884" lon="-0.37287676"><ele>19.0</ele><time>2022-11-06T14:47:42.0000000+00:00</time></trkpt><trkpt lat="39.46084024" lon="-0.3730905"><ele>21.0</ele><time>2022-11-06T14:48:20.0000000+00:00</time></trkpt><trkpt lat="39.46109614" lon="-0.37296334"><ele>18.6</ele><time>2022-11-06T14:48:42.0000000+00:00</time></trkpt><trkpt lat="39.46084385" lon="-0.37298547"><ele>20.6</ele><time>2022-11-06T14:48:46.0000000+00:00</time></trkpt><trkpt lat="39.46098953" lon="-0.37304532"><ele>17.9</ele><time>2022-11-06T14:49:04.0000000+00:00</time></trkpt><trkpt lat="39.46057797" lon="-0.37347866"><ele>21.6</ele><time>2022-11-06T14:50:25.0000000+00:00</time></trkpt><trkpt lat="39.46091141" lon="-0.37309821"><ele>19.2</ele><time>2022-11-06T14:50:54.0000000+00:00</time></trkpt><trkpt lat="39.46087696" lon="-0.37289327"><ele>19.9</ele><time>2022-11-06T14:51:53.0000000+00:00</time></trkpt><trkpt lat="39.46107024" lon="-0.37291045"><ele>18.8</ele><time>2022-11-06T14:52:06.0000000+00:00</time></trkpt><trkpt lat="39.46044428" lon="-0.3729843"><ele>17.3</ele><time>2022-11-06T14:55:54.0000000+00:00</time></trkpt><trkpt lat="39.46100067" lon="-0.37289084"><ele>18.4</ele><time>2022-11-06T14:58:27.0000000+00:00</time></trkpt><trkpt lat="39.4608384" lon="-0.3728931"><ele>20.5</ele><time>2022-11-06T14:59:36.0000000+00:00</time></trkpt><trkpt lat="39.46093337" lon="-0.37284968"><ele>18.9</ele><time>2022-11-06T14:59:43.0000000+00:00</time></trkpt><trkpt lat="39.46084527" lon="-0.37294029"><ele>20.5</ele><time>2022-11-06T15:00:29.0000000+00:00</time></trkpt><trkpt lat="39.46097561" lon="-0.37310232"><ele>17.7</ele><time>2022-11-06T15:01:21.0000000+00:00</time></trkpt><trkpt lat="39.46107368" lon="-0.37301062"><ele>18.2</ele><time>2022-11-06T15:01:41.0000000+00:00</time></trkpt><trkpt lat="39.46109061" lon="-0.37329837"><ele>17.9</ele><time>2022-11-06T15:02:09.0000000+00:00</time></trkpt><trkpt lat="39.46169872" lon="-0.37349199"><ele>22.3</ele><time>2022-11-06T15:03:18.0000000+00:00</time></trkpt><trkpt lat="39.46218872" lon="-0.37421091"><ele>21.2</ele><time>2022-11-06T15:04:46.0000000+00:00</time></trkpt><trkpt lat="39.46296296" lon="-0.37436429"><ele>21.7</ele><time>2022-11-06T15:06:04.0000000+00:00</time></trkpt><trkpt lat="39.46331869" lon="-0.3748476"><ele>20.6</ele><time>2022-11-06T15:07:16.0000000+00:00</time></trkpt><trkpt lat="39.46460858" lon="-0.37553734"><ele>26.4</ele><time>2022-11-06T15:09:34.0000000+00:00</time></trkpt><trkpt lat="39.46465761" lon="-0.37578687"><ele>28.4</ele><time>2022-11-06T15:09:43.0000000+00:00</time></trkpt><trkpt lat="39.46425696" lon="-0.37582694"><ele>15.7</ele><time>2022-11-06T15:10:06.0000000+00:00</time></trkpt><trkpt lat="39.46423701" lon="-0.37619046"><ele>20.9</ele><time>2022-11-06T15:10:33.0000000+00:00</time></trkpt><trkpt lat="39.46443759" lon="-0.37634603"><ele>24.5</ele><time>2022-11-06T15:10:43.0000000+00:00</time></trkpt><trkpt lat="39.46364231" lon="-0.37650302"><ele>24.3</ele><time>2022-11-06T15:11:33.0000000+00:00</time></trkpt><trkpt lat="39.46405487" lon="-0.37712412"><ele>19.3</ele><time>2022-11-06T15:12:18.0000000+00:00</time></trkpt><trkpt lat="39.46377534" lon="-0.37716963"><ele>14.8</ele><time>2022-11-06T15:12:33.0000000+00:00</time></trkpt><trkpt lat="39.46394499" lon="-0.37733669"><ele>17.7</ele><time>2022-11-06T15:12:48.0000000+00:00</time></trkpt><trkpt lat="39.4637258" lon="-0.37744012"><ele>15.4</ele><time>2022-11-06T15:12:57.0000000+00:00</time></trkpt><trkpt lat="39.46386997" lon="-0.37769057"><ele>17.8</ele><time>2022-11-06T15:13:17.0000000+00:00</time></trkpt><trkpt lat="39.46337728" lon="-0.37767355"><ele>12.8</ele><time>2022-11-06T15:13:30.0000000+00:00</time></trkpt><trkpt lat="39.46310487" lon="-0.37921289"><ele>13.6</ele><time>2022-11-06T15:15:46.0000000+00:00</time></trkpt><trkpt lat="39.46296942" lon="-0.37920032"><ele>13.1</ele><time>2022-11-06T15:15:47.0000000+00:00</time></trkpt><trkpt lat="39.46296782" lon="-0.37897216"><ele>12.6</ele><time>2022-11-06T15:15:48.0000000+00:00</time></trkpt><trkpt lat="39.46301669" lon="-0.37931926"><ele>13.9</ele><time>2022-11-06T15:16:17.0000000+00:00</time></trkpt><trkpt lat="39.4628224" lon="-0.37947441"><ele>15.5</ele><time>2022-11-06T15:16:42.0000000+00:00</time></trkpt><trkpt lat="39.46166134" lon="-0.37982594"><ele>12.1</ele><time>2022-11-06T15:18:50.0000000+00:00</time></trkpt><trkpt lat="39.46131039" lon="-0.38014689"><ele>12.4</ele><time>2022-11-06T15:19:35.0000000+00:00</time></trkpt><trkpt lat="39.46023507" lon="-0.38265785"><ele>11.9</ele><time>2022-11-06T15:23:25.0000000+00:00</time></trkpt><trkpt lat="39.45994279" lon="-0.38279012"><ele>13.2</ele><time>2022-11-06T15:24:04.0000000+00:00</time></trkpt><trkpt lat="39.4600738" lon="-0.38315389"><ele>14.0</ele><time>2022-11-06T15:24:59.0000000+00:00</time></trkpt><trkpt lat="39.4597288" lon="-0.38397901"><ele>23.7</ele><time>2022-11-06T15:26:26.0000000+00:00</time></trkpt><trkpt lat="39.45946804" lon="-0.38416819"><ele>21.9</ele><time>2022-11-06T15:26:43.0000000+00:00</time></trkpt><trkpt lat="39.4594729" lon="-0.38458016"><ele>22.8</ele><time>2022-11-06T15:32:57.0000000+00:00</time></trkpt><trkpt lat="39.45930535" lon="-0.38467932"><ele>20.8</ele><time>2022-11-06T15:36:25.0000000+00:00</time></trkpt></trkseg><trkseg><trkpt lat="39.48187346" lon="-0.37609826"><ele>17.8</ele><time>2022-11-09T16:18:41.0000000+00:00</time></trkpt><trkpt lat="39.48148118" lon="-0.3757422"><ele>14.5</ele><time>2022-11-09T16:18:49.0000000+00:00</time></trkpt><trkpt lat="39.48118589" lon="-0.37468541"><ele>12.5</ele><time>2022-11-09T16:19:04.0000000+00:00</time></trkpt><trkpt lat="39.48004914" lon="-0.37318295"><ele>9.6</ele><time>2022-11-09T16:19:29.0000000+00:00</time></trkpt><trkpt lat="39.47952468" lon="-0.37214946"><ele>10.9</ele><time>2022-11-09T16:19:46.0000000+00:00</time></trkpt><trkpt lat="39.47880786" lon="-0.37150372"><ele>10.5</ele><time>2022-11-09T16:20:11.0000000+00:00</time></trkpt><trkpt lat="39.47956667" lon="-0.37230352"><ele>10.3</ele><time>2022-11-09T16:20:46.0000000+00:00</time></trkpt><trkpt lat="39.48027612" lon="-0.3736023"><ele>10.6</ele><time>2022-11-09T16:21:15.0000000+00:00</time></trkpt><trkpt lat="39.48082865" lon="-0.37332997"><ele>25.6</ele><time>2022-11-09T16:22:32.0000000+00:00</time></trkpt><trkpt lat="39.48093401" lon="-0.37352149"><ele>28.0</ele><time>2022-11-09T16:22:39.0000000+00:00</time></trkpt><trkpt lat="39.48118916" lon="-0.37291121"><ele>23.4</ele><time>2022-11-09T16:22:47.0000000+00:00</time></trkpt><trkpt lat="39.48205434" lon="-0.3725901"><ele>17.6</ele><time>2022-11-09T16:23:04.0000000+00:00</time></trkpt><trkpt lat="39.48467393" lon="-0.37098496"><ele>20.2</ele><time>2022-11-09T16:24:00.0000000+00:00</time></trkpt><trkpt lat="39.485045" lon="-0.3704968"><ele>16.5</ele><time>2022-11-09T16:24:15.0000000+00:00</time></trkpt><trkpt lat="39.48600364" lon="-0.37011014"><ele>15.5</ele><time>2022-11-09T16:24:42.0000000+00:00</time></trkpt><trkpt lat="39.48667713" lon="-0.36959021"><ele>16.8</ele><time>2022-11-09T16:24:56.0000000+00:00</time></trkpt><trkpt lat="39.48736033" lon="-0.3687366"><ele>20.1</ele><time>2022-11-09T16:25:13.0000000+00:00</time></trkpt><trkpt lat="39.48788202" lon="-0.36799128"><ele>18.5</ele><time>2022-11-09T16:26:10.0000000+00:00</time></trkpt><trkpt lat="39.48770324" lon="-0.36779489"><ele>26.1</ele><time>2022-11-09T16:26:27.0000000+00:00</time></trkpt><trkpt lat="39.48776015" lon="-0.36761234"><ele>25.3</ele><time>2022-11-09T16:26:31.0000000+00:00</time></trkpt><trkpt lat="39.48806852" lon="-0.36719676"><ele>16.9</ele><time>2022-11-09T16:26:39.0000000+00:00</time></trkpt><trkpt lat="39.48833758" lon="-0.36724278"><ele>13.1</ele><time>2022-11-09T16:26:46.0000000+00:00</time></trkpt><trkpt lat="39.48846993" lon="-0.36707925"><ele>12.6</ele><time>2022-11-09T16:26:50.0000000+00:00</time></trkpt><trkpt lat="39.48991933" lon="-0.36414525"><ele>16.2</ele><time>2022-11-09T16:27:35.0000000+00:00</time></trkpt><trkpt lat="39.49162211" lon="-0.36135709"><ele>14.6</ele><time>2022-11-09T16:28:15.0000000+00:00</time></trkpt><trkpt lat="39.49284336" lon="-0.35983737"><ele>11.7</ele><time>2022-11-09T16:28:43.0000000+00:00</time></trkpt><trkpt lat="39.49370166" lon="-0.35812746"><ele>9.7</ele><time>2022-11-09T16:29:11.0000000+00:00</time></trkpt><trkpt lat="39.49364534" lon="-0.35686883"><ele>9.9</ele><time>2022-11-09T16:29:38.0000000+00:00</time></trkpt><trkpt lat="39.49463767" lon="-0.35670647"><ele>10.3</ele><time>2022-11-09T16:30:23.0000000+00:00</time></trkpt><trkpt lat="39.4957927" lon="-0.35465534"><ele>8.3</ele><time>2022-11-09T16:31:05.0000000+00:00</time></trkpt><trkpt lat="39.49648487" lon="-0.3536273"><ele>11.7</ele><time>2022-11-09T16:31:21.0000000+00:00</time></trkpt><trkpt lat="39.49668445" lon="-0.35369888"><ele>8.5</ele><time>2022-11-09T16:31:50.0000000+00:00</time></trkpt><trkpt lat="39.49681328" lon="-0.3533823"><ele>12.5</ele><time>2022-11-09T16:32:01.0000000+00:00</time></trkpt><trkpt lat="39.49676885" lon="-0.35308826"><ele>13.6</ele><time>2022-11-09T16:32:25.0000000+00:00</time></trkpt><trkpt lat="39.4966065" lon="-0.35305775"><ele>15.1</ele><time>2022-11-09T16:32:45.0000000+00:00</time></trkpt><trkpt lat="39.49630391" lon="-0.35250278"><ele>18.9</ele><time>2022-11-09T16:33:01.0000000+00:00</time></trkpt><trkpt lat="39.49606268" lon="-0.35121348"><ele>15.0</ele><time>2022-11-09T16:33:16.0000000+00:00</time></trkpt><trkpt lat="39.49563294" lon="-0.35034578"><ele>14.1</ele><time>2022-11-09T16:33:34.0000000+00:00</time></trkpt><trkpt lat="39.49563998" lon="-0.34953618"><ele>16.1</ele><time>2022-11-09T16:33:44.0000000+00:00</time></trkpt><trkpt lat="39.49535709" lon="-0.34841241"><ele>17.7</ele><time>2022-11-09T16:34:04.0000000+00:00</time></trkpt><trkpt lat="39.49564828" lon="-0.34756224"><ele>6.6</ele><time>2022-11-09T16:34:31.0000000+00:00</time></trkpt><trkpt lat="39.49732633" lon="-0.3469408"><ele>5.9</ele><time>2022-11-09T16:35:05.0000000+00:00</time></trkpt><trkpt lat="39.49765633" lon="-0.34700065"><ele>6.6</ele><time>2022-11-09T16:35:15.0000000+00:00</time></trkpt><trkpt lat="39.50094815" lon="-0.34601519"><ele>7.3</ele><time>2022-11-09T16:36:15.0000000+00:00</time></trkpt><trkpt lat="39.50135618" lon="-0.34631459"><ele>8.0</ele><time>2022-11-09T16:36:33.0000000+00:00</time></trkpt><trkpt lat="39.50172239" lon="-0.34609264"><ele>7.2</ele><time>2022-11-09T16:36:43.0000000+00:00</time></trkpt><trkpt lat="39.50289468" lon="-0.34613312"><ele>8.3</ele><time>2022-11-09T16:37:11.0000000+00:00</time></trkpt><trkpt lat="39.50328327" lon="-0.34591461"><ele>6.7</ele><time>2022-11-09T16:37:22.0000000+00:00</time></trkpt><trkpt lat="39.51735715" lon="-0.34777715"><ele>8.6</ele><time>2022-11-09T16:41:41.0000000+00:00</time></trkpt><trkpt lat="39.51955229" lon="-0.34779567"><ele>9.6</ele><time>2022-11-09T16:42:21.0000000+00:00</time></trkpt><trkpt lat="39.52081293" lon="-0.34762351"><ele>9.4</ele><time>2022-11-09T16:42:44.0000000+00:00</time></trkpt><trkpt lat="39.52289776" lon="-0.34697626"><ele>11.3</ele><time>2022-11-09T16:43:29.0000000+00:00</time></trkpt><trkpt lat="39.52846862" lon="-0.34474592"><ele>16.2</ele><time>2022-11-09T16:45:19.0000000+00:00</time></trkpt><trkpt lat="39.53721631" lon="-0.34366281"><ele>14.0</ele><time>2022-11-09T16:49:13.0000000+00:00</time></trkpt><trkpt lat="39.53775996" lon="-0.34416061"><ele>14.2</ele><time>2022-11-09T16:49:33.0000000+00:00</time></trkpt><trkpt lat="39.53829875" lon="-0.34399431"><ele>15.1</ele><time>2022-11-09T16:49:49.0000000+00:00</time></trkpt><trkpt lat="39.53881055" lon="-0.34351805"><ele>15.3</ele><time>2022-11-09T16:50:01.0000000+00:00</time></trkpt><trkpt lat="39.54243933" lon="-0.34270928"><ele>16.3</ele><time>2022-11-09T16:51:03.0000000+00:00</time></trkpt><trkpt lat="39.54250119" lon="-0.34197335"><ele>15.6</ele><time>2022-11-09T16:51:24.0000000+00:00</time></trkpt><trkpt lat="39.54266824" lon="-0.34172692"><ele>15.2</ele><time>2022-11-09T16:51:32.0000000+00:00</time></trkpt><trkpt lat="39.54350752" lon="-0.34183354"><ele>16.1</ele><time>2022-11-09T16:51:56.0000000+00:00</time></trkpt><trkpt lat="39.54542597" lon="-0.34100667"><ele>15.6</ele><time>2022-11-09T16:52:31.0000000+00:00</time></trkpt><trkpt lat="39.54947996" lon="-0.33861372"><ele>15.5</ele><time>2022-11-09T16:53:43.0000000+00:00</time></trkpt><trkpt lat="39.55000542" lon="-0.33805364"><ele>15.5</ele><time>2022-11-09T16:54:09.0000000+00:00</time></trkpt><trkpt lat="39.54994767" lon="-0.33826646"><ele>15.4</ele><time>2022-11-09T16:54:16.0000000+00:00</time></trkpt><trkpt lat="39.55009854" lon="-0.3385221"><ele>15.8</ele><time>2022-11-09T16:54:24.0000000+00:00</time></trkpt><trkpt lat="39.55053541" lon="-0.33869209"><ele>16.2</ele><time>2022-11-09T16:54:36.0000000+00:00</time></trkpt><trkpt lat="39.55105215" lon="-0.33795641"><ele>15.7</ele><time>2022-11-09T16:54:51.0000000+00:00</time></trkpt><trkpt lat="39.55539297" lon="-0.33537512"><ele>15.5</ele><time>2022-11-09T16:56:13.0000000+00:00</time></trkpt><trkpt lat="39.55603503" lon="-0.33531812"><ele>16.1</ele><time>2022-11-09T16:56:28.0000000+00:00</time></trkpt><trkpt lat="39.55646829" lon="-0.33476567"><ele>15.8</ele><time>2022-11-09T16:56:40.0000000+00:00</time></trkpt><trkpt lat="39.56011098" lon="-0.33261412"><ele>13.9</ele><time>2022-11-09T16:57:42.0000000+00:00</time></trkpt><trkpt lat="39.56060425" lon="-0.332622"><ele>15.3</ele><time>2022-11-09T16:57:53.0000000+00:00</time></trkpt><trkpt lat="39.56099887" lon="-0.332047"><ele>14.5</ele><time>2022-11-09T16:58:05.0000000+00:00</time></trkpt><trkpt lat="39.56248155" lon="-0.33121602"><ele>14.1</ele><time>2022-11-09T16:58:39.0000000+00:00</time></trkpt><trkpt lat="39.56253192" lon="-0.3314078"><ele>14.4</ele><time>2022-11-09T16:58:47.0000000+00:00</time></trkpt><trkpt lat="39.56233495" lon="-0.3316041"><ele>16.5</ele><time>2022-11-09T16:58:57.0000000+00:00</time></trkpt><trkpt lat="39.56239061" lon="-0.33201523"><ele>19.4</ele><time>2022-11-09T16:59:27.0000000+00:00</time></trkpt><trkpt lat="39.56252396" lon="-0.33209821"><ele>17.9</ele><time>2022-11-09T17:01:33.0000000+00:00</time></trkpt><trkpt lat="39.56231316" lon="-0.33190627"><ele>18.8</ele><time>2022-11-09T17:01:42.0000000+00:00</time></trkpt><trkpt lat="39.56256051" lon="-0.33246961"><ele>17.8</ele><time>2022-11-09T17:02:56.0000000+00:00</time></trkpt><trkpt lat="39.56269453" lon="-0.3319584"><ele>15.0</ele><time>2022-11-09T17:03:10.0000000+00:00</time></trkpt><trkpt lat="39.56245967" lon="-0.33202537"><ele>18.4</ele><time>2022-11-09T17:04:42.0000000+00:00</time></trkpt><trkpt lat="39.56234836" lon="-0.33158675"><ele>16.4</ele><time>2022-11-09T17:06:33.0000000+00:00</time></trkpt><trkpt lat="39.5626978" lon="-0.33131727"><ele>14.4</ele><time>2022-11-09T17:06:46.0000000+00:00</time></trkpt><trkpt lat="39.56251717" lon="-0.33121627"><ele>14.2</ele><time>2022-11-09T17:06:55.0000000+00:00</time></trkpt><trkpt lat="39.5625771" lon="-0.33110538"><ele>14.1</ele><time>2022-11-09T17:06:59.0000000+00:00</time></trkpt><trkpt lat="39.56336098" lon="-0.33121585"><ele>14.3</ele><time>2022-11-09T17:07:19.0000000+00:00</time></trkpt><trkpt lat="39.56370589" lon="-0.3306411"><ele>13.7</ele><time>2022-11-09T17:07:35.0000000+00:00</time></trkpt><trkpt lat="39.56379969" lon="-0.33076515"><ele>13.8</ele><time>2022-11-09T17:07:44.0000000+00:00</time></trkpt><trkpt lat="39.56494097" lon="-0.33002621"><ele>14.6</ele><time>2022-11-09T17:08:10.0000000+00:00</time></trkpt><trkpt lat="39.56828945" lon="-0.3286131"><ele>13.2</ele><time>2022-11-09T17:09:08.0000000+00:00</time></trkpt><trkpt lat="39.56882036" lon="-0.32866457"><ele>15.0</ele><time>2022-11-09T17:09:20.0000000+00:00</time></trkpt><trkpt lat="39.56919914" lon="-0.32818059"><ele>13.7</ele><time>2022-11-09T17:09:31.0000000+00:00</time></trkpt><trkpt lat="39.5734636" lon="-0.326367"><ele>12.5</ele><time>2022-11-09T17:10:49.0000000+00:00</time></trkpt><trkpt lat="39.57393014" lon="-0.32623306"><ele>13.2</ele><time>2022-11-09T17:10:57.0000000+00:00</time></trkpt><trkpt lat="39.5742774" lon="-0.32659164"><ele>13.7</ele><time>2022-11-09T17:11:08.0000000+00:00</time></trkpt><trkpt lat="39.57453548" lon="-0.32596174"><ele>13.5</ele><time>2022-11-09T17:11:24.0000000+00:00</time></trkpt><trkpt lat="39.57452224" lon="-0.32559964"><ele>11.9</ele><time>2022-11-09T17:11:35.0000000+00:00</time></trkpt><trkpt lat="39.5780128" lon="-0.32415309"><ele>11.1</ele><time>2022-11-09T17:12:36.0000000+00:00</time></trkpt><trkpt lat="39.57838638" lon="-0.32366786"><ele>10.6</ele><time>2022-11-09T17:12:50.0000000+00:00</time></trkpt><trkpt lat="39.5789369" lon="-0.32375327"><ele>11.5</ele><time>2022-11-09T17:13:03.0000000+00:00</time></trkpt><trkpt lat="39.58076642" lon="-0.32281827"><ele>11.5</ele><time>2022-11-09T17:13:44.0000000+00:00</time></trkpt><trkpt lat="39.58090405" lon="-0.32325824"><ele>12.7</ele><time>2022-11-09T17:14:00.0000000+00:00</time></trkpt><trkpt lat="39.58134561" lon="-0.32333837"><ele>13.9</ele><time>2022-11-09T17:14:13.0000000+00:00</time></trkpt><trkpt lat="39.58174216" lon="-0.32283437"><ele>13.7</ele><time>2022-11-09T17:14:26.0000000+00:00</time></trkpt><trkpt lat="39.58345709" lon="-0.32193951"><ele>14.1</ele><time>2022-11-09T17:15:08.0000000+00:00</time></trkpt><trkpt lat="39.58598566" lon="-0.32102002"><ele>13.2</ele><time>2022-11-09T17:16:00.0000000+00:00</time></trkpt><trkpt lat="39.58641968" lon="-0.32111465"><ele>13.1</ele><time>2022-11-09T17:16:11.0000000+00:00</time></trkpt><trkpt lat="39.58672344" lon="-0.32062674"><ele>12.7</ele><time>2022-11-09T17:16:23.0000000+00:00</time></trkpt><trkpt lat="39.58895453" lon="-0.31971504"><ele>13.1</ele><time>2022-11-09T17:18:02.0000000+00:00</time></trkpt><trkpt lat="39.58989197" lon="-0.31967003"><ele>13.1</ele><time>2022-11-09T17:18:23.0000000+00:00</time></trkpt><trkpt lat="39.59007335" lon="-0.31938429"><ele>12.4</ele><time>2022-11-09T17:18:32.0000000+00:00</time></trkpt><trkpt lat="39.5911671" lon="-0.32000329"><ele>14.1</ele><time>2022-11-09T17:18:58.0000000+00:00</time></trkpt><trkpt lat="39.59174126" lon="-0.32003397"><ele>14.1</ele><time>2022-11-09T17:20:01.0000000+00:00</time></trkpt><trkpt lat="39.59145385" lon="-0.31994814"><ele>14.1</ele><time>2022-11-09T17:20:13.0000000+00:00</time></trkpt><trkpt lat="39.59115445" lon="-0.31879043"><ele>12.7</ele><time>2022-11-09T17:20:38.0000000+00:00</time></trkpt><trkpt lat="39.61334914" lon="-0.30951468"><ele>17.4</ele><time>2022-11-09T17:28:12.0000000+00:00</time></trkpt><trkpt lat="39.61355802" lon="-0.30925049"><ele>17.0</ele><time>2022-11-09T17:28:28.0000000+00:00</time></trkpt><trkpt lat="39.61488244" lon="-0.30860558"><ele>17.9</ele><time>2022-11-09T17:29:01.0000000+00:00</time></trkpt><trkpt lat="39.616245" lon="-0.30817358"><ele>19.0</ele><time>2022-11-09T17:29:31.0000000+00:00</time></trkpt><trkpt lat="39.61749089" lon="-0.3074446"><ele>20.1</ele><time>2022-11-09T17:30:17.0000000+00:00</time></trkpt><trkpt lat="39.61840385" lon="-0.30656224"><ele>17.0</ele><time>2022-11-09T17:30:50.0000000+00:00</time></trkpt><trkpt lat="39.62026262" lon="-0.30419201"><ele>11.4</ele><time>2022-11-09T17:31:37.0000000+00:00</time></trkpt><trkpt lat="39.62034166" lon="-0.30327126"><ele>11.0</ele><time>2022-11-09T17:32:12.0000000+00:00</time></trkpt><trkpt lat="39.62051366" lon="-0.30313153"><ele>10.6</ele><time>2022-11-09T17:32:51.0000000+00:00</time></trkpt></trkseg><trkseg><trkpt lat="39.48339921" lon="-0.38542849"><ele>21.2</ele><time>2022-11-10T14:57:51.0000000+00:00</time></trkpt><trkpt lat="39.48344037" lon="-0.38520344"><ele>20.2</ele><time>2022-11-10T14:57:57.0000000+00:00</time></trkpt><trkpt lat="39.48277225" lon="-0.38453012"><ele>22.8</ele><time>2022-11-10T14:58:22.0000000+00:00</time></trkpt><trkpt lat="39.48168361" lon="-0.38402016"><ele>14.9</ele><time>2022-11-10T14:59:19.0000000+00:00</time></trkpt><trkpt lat="39.48026128" lon="-0.38302632"><ele>22.7</ele><time>2022-11-10T14:59:54.0000000+00:00</time></trkpt><trkpt lat="39.47833629" lon="-0.38374096"><ele>24.4</ele><time>2022-11-10T15:00:44.0000000+00:00</time></trkpt><trkpt lat="39.47617644" lon="-0.38415654"><ele>24.0</ele><time>2022-11-10T15:01:24.0000000+00:00</time></trkpt><trkpt lat="39.47575727" lon="-0.38409392"><ele>21.1</ele><time>2022-11-10T15:01:36.0000000+00:00</time></trkpt><trkpt lat="39.47547589" lon="-0.38384372"><ele>23.5</ele><time>2022-11-10T15:02:01.0000000+00:00</time></trkpt><trkpt lat="39.47552123" lon="-0.38399753"><ele>22.1</ele><time>2022-11-10T15:02:10.0000000+00:00</time></trkpt><trkpt lat="39.47478094" lon="-0.38420976"><ele>22.5</ele><time>2022-11-10T15:02:27.0000000+00:00</time></trkpt><trkpt lat="39.47399749" lon="-0.38396099"><ele>23.0</ele><time>2022-11-10T15:02:39.0000000+00:00</time></trkpt><trkpt lat="39.47242739" lon="-0.38394087"><ele>24.2</ele><time>2022-11-10T15:03:18.0000000+00:00</time></trkpt><trkpt lat="39.47056468" lon="-0.38349646"><ele>21.1</ele><time>2022-11-10T15:03:53.0000000+00:00</time></trkpt><trkpt lat="39.46970218" lon="-0.38381347"><ele>22.7</ele><time>2022-11-10T15:04:41.0000000+00:00</time></trkpt><trkpt lat="39.46889123" lon="-0.38435712"><ele>24.7</ele><time>2022-11-10T15:05:04.0000000+00:00</time></trkpt><trkpt lat="39.4683164" lon="-0.38447337"><ele>25.6</ele><time>2022-11-10T15:05:12.0000000+00:00</time></trkpt><trkpt lat="39.4670918" lon="-0.38615621"><ele>26.8</ele><time>2022-11-10T15:05:45.0000000+00:00</time></trkpt><trkpt lat="39.46680774" lon="-0.38633206"><ele>23.9</ele><time>2022-11-10T15:05:48.0000000+00:00</time></trkpt><trkpt lat="39.46640759" lon="-0.38606904"><ele>26.6</ele><time>2022-11-10T15:06:23.0000000+00:00</time></trkpt><trkpt lat="39.46647431" lon="-0.38668745"><ele>22.2</ele><time>2022-11-10T15:07:50.0000000+00:00</time></trkpt><trkpt lat="39.46490505" lon="-0.38746655"><ele>27.4</ele><time>2022-11-10T15:09:07.0000000+00:00</time></trkpt><trkpt lat="39.46465703" lon="-0.38775832"><ele>22.2</ele><time>2022-11-10T15:09:16.0000000+00:00</time></trkpt><trkpt lat="39.46463381" lon="-0.3881993"><ele>18.8</ele><time>2022-11-10T15:09:30.0000000+00:00</time></trkpt><trkpt lat="39.46412696" lon="-0.38776428"><ele>16.9</ele><time>2022-11-10T15:10:02.0000000+00:00</time></trkpt><trkpt lat="39.46382663" lon="-0.38789026"><ele>25.1</ele><time>2022-11-10T15:10:32.0000000+00:00</time></trkpt><trkpt lat="39.46296958" lon="-0.38668561"><ele>18.9</ele><time>2022-11-10T15:11:18.0000000+00:00</time></trkpt><trkpt lat="39.46232468" lon="-0.38657555"><ele>19.0</ele><time>2022-11-10T15:11:42.0000000+00:00</time></trkpt><trkpt lat="39.46173409" lon="-0.38596544"><ele>25.2</ele><time>2022-11-10T15:11:59.0000000+00:00</time></trkpt><trkpt lat="39.46059256" lon="-0.38579989"><ele>17.4</ele><time>2022-11-10T15:12:15.0000000+00:00</time></trkpt><trkpt lat="39.46001731" lon="-0.38488325"><ele>26.7</ele><time>2022-11-10T15:13:02.0000000+00:00</time></trkpt><trkpt lat="39.45884862" lon="-0.38404967"><ele>17.1</ele><time>2022-11-10T15:13:37.0000000+00:00</time></trkpt><trkpt lat="39.45882415" lon="-0.3847825"><ele>16.5</ele><time>2022-11-10T15:14:02.0000000+00:00</time></trkpt><trkpt lat="39.45860521" lon="-0.38511576"><ele>24.1</ele><time>2022-11-10T15:14:07.0000000+00:00</time></trkpt><trkpt lat="39.45873773" lon="-0.38547115"><ele>23.6</ele><time>2022-11-10T15:14:19.0000000+00:00</time></trkpt><trkpt lat="39.45810716" lon="-0.38587743"><ele>23.1</ele><time>2022-11-10T15:14:41.0000000+00:00</time></trkpt><trkpt lat="39.45811889" lon="-0.38540569"><ele>24.4</ele><time>2022-11-10T15:15:08.0000000+00:00</time></trkpt><trkpt lat="39.4579852" lon="-0.38535188"><ele>26.5</ele><time>2022-11-10T15:15:15.0000000+00:00</time></trkpt><trkpt lat="39.45801512" lon="-0.38421772"><ele>21.5</ele><time>2022-11-10T15:15:40.0000000+00:00</time></trkpt><trkpt lat="39.457375" lon="-0.38328507"><ele>15.5</ele><time>2022-11-10T15:19:39.0000000+00:00</time></trkpt><trkpt lat="39.45648115" lon="-0.38386736"><ele>20.6</ele><time>2022-11-10T15:20:09.0000000+00:00</time></trkpt><trkpt lat="39.45619516" lon="-0.38385806"><ele>20.5</ele><time>2022-11-10T15:20:29.0000000+00:00</time></trkpt><trkpt lat="39.45643254" lon="-0.38453993"><ele>19.9</ele><time>2022-11-10T15:20:45.0000000+00:00</time></trkpt><trkpt lat="39.45672859" lon="-0.3868053"><ele>23.2</ele><time>2022-11-10T15:21:34.0000000+00:00</time></trkpt><trkpt lat="39.45556752" lon="-0.38670254"><ele>21.7</ele><time>2022-11-10T15:22:03.0000000+00:00</time></trkpt><trkpt lat="39.4531988" lon="-0.38853793"><ele>15.6</ele><time>2022-11-10T15:23:26.0000000+00:00</time></trkpt><trkpt lat="39.45303485" lon="-0.38837347"><ele>15.8</ele><time>2022-11-10T15:24:27.0000000+00:00</time></trkpt><trkpt lat="39.44784218" lon="-0.38954258"><ele>15.5</ele><time>2022-11-10T15:26:09.0000000+00:00</time></trkpt><trkpt lat="39.44744454" lon="-0.38919037"><ele>15.6</ele><time>2022-11-10T15:26:30.0000000+00:00</time></trkpt><trkpt lat="39.44615708" lon="-0.38280043"><ele>18.2</ele><time>2022-11-10T15:30:15.0000000+00:00</time></trkpt><trkpt lat="39.44601576" lon="-0.38125782"><ele>16.0</ele><time>2022-11-10T15:30:30.0000000+00:00</time></trkpt><trkpt lat="39.44615968" lon="-0.38018905"><ele>13.2</ele><time>2022-11-10T15:30:53.0000000+00:00</time></trkpt><trkpt lat="39.44564402" lon="-0.37433211"><ele>10.0</ele><time>2022-11-10T15:32:11.0000000+00:00</time></trkpt><trkpt lat="39.44544084" lon="-0.37400295"><ele>11.2</ele><time>2022-11-10T15:32:16.0000000+00:00</time></trkpt><trkpt lat="39.44535418" lon="-0.37323492"><ele>11.4</ele><time>2022-11-10T15:32:27.0000000+00:00</time></trkpt><trkpt lat="39.44547077" lon="-0.37256395"><ele>7.3</ele><time>2022-11-10T15:32:38.0000000+00:00</time></trkpt><trkpt lat="39.445353" lon="-0.3724901"><ele>7.6</ele><time>2022-11-10T15:32:41.0000000+00:00</time></trkpt><trkpt lat="39.44558543" lon="-0.37179792"><ele>9.3</ele><time>2022-11-10T15:32:54.0000000+00:00</time></trkpt><trkpt lat="39.44553849" lon="-0.37138042"><ele>6.6</ele><time>2022-11-10T15:33:00.0000000+00:00</time></trkpt><trkpt lat="39.4461948" lon="-0.36972315"><ele>10.7</ele><time>2022-11-10T15:33:34.0000000+00:00</time></trkpt><trkpt lat="39.44560572" lon="-0.36939366"><ele>6.6</ele><time>2022-11-10T15:34:18.0000000+00:00</time></trkpt><trkpt lat="39.44485637" lon="-0.37121446"><ele>7.3</ele><time>2022-11-10T15:34:59.0000000+00:00</time></trkpt><trkpt lat="39.44430728" lon="-0.37140121"><ele>6.0</ele><time>2022-11-10T15:35:14.0000000+00:00</time></trkpt><trkpt lat="39.44513817" lon="-0.37957097"><ele>11.9</ele><time>2022-11-10T15:37:27.0000000+00:00</time></trkpt><trkpt lat="39.44473467" lon="-0.37983835"><ele>10.9</ele><time>2022-11-10T15:37:42.0000000+00:00</time></trkpt><trkpt lat="39.4436897" lon="-0.37953987"><ele>9.4</ele><time>2022-11-10T15:38:05.0000000+00:00</time></trkpt><trkpt lat="39.43994734" lon="-0.38077871"><ele>8.2</ele><time>2022-11-10T15:39:41.0000000+00:00</time></trkpt><trkpt lat="39.43948307" lon="-0.38052114"><ele>8.1</ele><time>2022-11-10T15:40:04.0000000+00:00</time></trkpt><trkpt lat="39.43916741" lon="-0.38077528"><ele>8.4</ele><time>2022-11-10T15:40:13.0000000+00:00</time></trkpt><trkpt lat="39.43926171" lon="-0.38149595"><ele>9.0</ele><time>2022-11-10T15:40:34.0000000+00:00</time></trkpt><trkpt lat="39.43974811" lon="-0.38169025"><ele>9.2</ele><time>2022-11-10T15:40:52.0000000+00:00</time></trkpt><trkpt lat="39.44010476" lon="-0.38509606"><ele>10.4</ele><time>2022-11-10T15:41:46.0000000+00:00</time></trkpt><trkpt lat="39.44003116" lon="-0.38539304"><ele>10.6</ele><time>2022-11-10T15:41:55.0000000+00:00</time></trkpt><trkpt lat="39.43983268" lon="-0.3855046"><ele>10.5</ele><time>2022-11-10T15:42:01.0000000+00:00</time></trkpt><trkpt lat="39.43857766" lon="-0.38585999"><ele>9.9</ele><time>2022-11-10T15:42:35.0000000+00:00</time></trkpt><trkpt lat="39.43881445" lon="-0.38595026"><ele>9.9</ele><time>2022-11-10T15:42:42.0000000+00:00</time></trkpt><trkpt lat="39.44036678" lon="-0.38539354"><ele>10.7</ele><time>2022-11-10T15:43:26.0000000+00:00</time></trkpt><trkpt lat="39.4406992" lon="-0.38507226"><ele>10.3</ele><time>2022-11-10T15:43:39.0000000+00:00</time></trkpt><trkpt lat="39.44090313" lon="-0.38535272"><ele>11.9</ele><time>2022-11-10T15:43:47.0000000+00:00</time></trkpt><trkpt lat="39.44081621" lon="-0.38596409"><ele>12.9</ele><time>2022-11-10T15:44:00.0000000+00:00</time></trkpt><trkpt lat="39.43864924" lon="-0.38679994"><ele>13.9</ele><time>2022-11-10T15:44:47.0000000+00:00</time></trkpt><trkpt lat="39.43893163" lon="-0.3887116"><ele>11.2</ele><time>2022-11-10T15:45:15.0000000+00:00</time></trkpt><trkpt lat="39.43881705" lon="-0.38884135"><ele>11.9</ele><time>2022-11-10T15:45:19.0000000+00:00</time></trkpt><trkpt lat="39.4387567" lon="-0.38866659"><ele>11.7</ele><time>2022-11-10T15:45:27.0000000+00:00</time></trkpt><trkpt lat="39.43887295" lon="-0.38906045"><ele>12.8</ele><time>2022-11-10T15:45:48.0000000+00:00</time></trkpt><trkpt lat="39.43937352" lon="-0.38922323"><ele>20.9</ele><time>2022-11-10T15:46:05.0000000+00:00</time></trkpt><trkpt lat="39.4398274" lon="-0.38888837"><ele>17.8</ele><time>2022-11-10T15:48:01.0000000+00:00</time></trkpt><trkpt lat="39.42983567" lon="-0.39291102"><ele>12.7</ele><time>2022-11-10T15:52:09.0000000+00:00</time></trkpt><trkpt lat="39.42974573" lon="-0.39319701"><ele>12.4</ele><time>2022-11-10T15:52:16.0000000+00:00</time></trkpt><trkpt lat="39.4298982" lon="-0.39342927"><ele>11.2</ele><time>2022-11-10T15:52:29.0000000+00:00</time></trkpt><trkpt lat="39.42959217" lon="-0.39353924"><ele>11.7</ele><time>2022-11-10T15:52:43.0000000+00:00</time></trkpt><trkpt lat="39.42922094" lon="-0.39313481"><ele>11.0</ele><time>2022-11-10T15:52:56.0000000+00:00</time></trkpt><trkpt lat="39.42942512" lon="-0.39252981"><ele>10.7</ele><time>2022-11-10T15:53:12.0000000+00:00</time></trkpt><trkpt lat="39.42933192" lon="-0.39058168"><ele>10.4</ele><time>2022-11-10T15:53:47.0000000+00:00</time></trkpt><trkpt lat="39.4295946" lon="-0.3903972"><ele>12.2</ele><time>2022-11-10T15:53:57.0000000+00:00</time></trkpt><trkpt lat="39.4297868" lon="-0.39061077"><ele>10.4</ele><time>2022-11-10T15:54:05.0000000+00:00</time></trkpt><trkpt lat="39.42952353" lon="-0.39046811"><ele>11.7</ele><time>2022-11-10T15:54:21.0000000+00:00</time></trkpt><trkpt lat="39.42930954" lon="-0.39064757"><ele>10.3</ele><time>2022-11-10T15:54:27.0000000+00:00</time></trkpt><trkpt lat="39.42943526" lon="-0.39253366"><ele>10.7</ele><time>2022-11-10T15:54:58.0000000+00:00</time></trkpt><trkpt lat="39.42953434" lon="-0.39070062"><ele>12.2</ele><time>2022-11-10T15:55:36.0000000+00:00</time></trkpt><trkpt lat="39.42837764" lon="-0.38681486"><ele>17.1</ele><time>2022-11-10T15:56:57.0000000+00:00</time></trkpt><trkpt lat="39.42854888" lon="-0.38656734"><ele>13.3</ele><time>2022-11-10T15:57:48.0000000+00:00</time></trkpt><trkpt lat="39.42787372" lon="-0.38430288"><ele>8.5</ele><time>2022-11-10T15:58:30.0000000+00:00</time></trkpt><trkpt lat="39.4270942" lon="-0.38241788"><ele>7.7</ele><time>2022-11-10T15:59:03.0000000+00:00</time></trkpt><trkpt lat="39.4268611" lon="-0.38225234"><ele>11.8</ele><time>2022-11-10T15:59:19.0000000+00:00</time></trkpt><trkpt lat="39.42647503" lon="-0.38134441"><ele>12.5</ele><time>2022-11-10T15:59:48.0000000+00:00</time></trkpt><trkpt lat="39.42557682" lon="-0.3803017"><ele>9.7</ele><time>2022-11-10T16:00:21.0000000+00:00</time></trkpt><trkpt lat="39.42522168" lon="-0.37957097"><ele>15.1</ele><time>2022-11-10T16:00:40.0000000+00:00</time></trkpt><trkpt lat="39.42380464" lon="-0.37576986"><ele>5.1</ele><time>2022-11-10T16:02:38.0000000+00:00</time></trkpt><trkpt lat="39.42281063" lon="-0.37593464"><ele>6.2</ele><time>2022-11-10T16:03:09.0000000+00:00</time></trkpt><trkpt lat="39.42220629" lon="-0.37496419"><ele>5.6</ele><time>2022-11-10T16:04:08.0000000+00:00</time></trkpt><trkpt lat="39.4226455" lon="-0.37594219"><ele>7.6</ele><time>2022-11-10T16:04:36.0000000+00:00</time></trkpt><trkpt lat="39.42376063" lon="-0.37586373"><ele>4.9</ele><time>2022-11-10T16:05:24.0000000+00:00</time></trkpt><trkpt lat="39.42222549" lon="-0.37193178"><ele>3.0</ele><time>2022-11-10T16:06:34.0000000+00:00</time></trkpt><trkpt lat="39.42366885" lon="-0.37062362"><ele>3.1</ele><time>2022-11-10T16:07:57.0000000+00:00</time></trkpt><trkpt lat="39.42374521" lon="-0.37098781"><ele>4.4</ele><time>2022-11-10T16:08:04.0000000+00:00</time></trkpt><trkpt lat="39.42267207" lon="-0.37170187"><ele>3.5</ele><time>2022-11-10T16:08:25.0000000+00:00</time></trkpt><trkpt lat="39.42245146" lon="-0.37216933"><ele>3.4</ele><time>2022-11-10T16:08:33.0000000+00:00</time></trkpt><trkpt lat="39.42208886" lon="-0.37214544"><ele>2.3</ele><time>2022-11-10T16:08:39.0000000+00:00</time></trkpt><trkpt lat="39.42143172" lon="-0.37256462"><ele>3.6</ele><time>2022-11-10T16:08:50.0000000+00:00</time></trkpt><trkpt lat="39.418805" lon="-0.37479362"><ele>3.3</ele><time>2022-11-10T16:09:41.0000000+00:00</time></trkpt><trkpt lat="39.41722359" lon="-0.37540776"><ele>2.3</ele><time>2022-11-10T16:10:08.0000000+00:00</time></trkpt><trkpt lat="39.41703214" lon="-0.3756567"><ele>2.4</ele><time>2022-11-10T16:10:21.0000000+00:00</time></trkpt><trkpt lat="39.41680902" lon="-0.37556819"><ele>2.0</ele><time>2022-11-10T16:10:29.0000000+00:00</time></trkpt><trkpt lat="39.41569842" lon="-0.37599097"><ele>2.4</ele><time>2022-11-10T16:10:51.0000000+00:00</time></trkpt><trkpt lat="39.41309508" lon="-0.37622038"><ele>2.7</ele><time>2022-11-10T16:11:34.0000000+00:00</time></trkpt><trkpt lat="39.41247239" lon="-0.37645399"><ele>2.5</ele><time>2022-11-10T16:11:45.0000000+00:00</time></trkpt><trkpt lat="39.4105712" lon="-0.37761262"><ele>1.9</ele><time>2022-11-10T16:12:19.0000000+00:00</time></trkpt><trkpt lat="39.40959865" lon="-0.37921876"><ele>3.3</ele><time>2022-11-10T16:12:55.0000000+00:00</time></trkpt><trkpt lat="39.40596677" lon="-0.38014865"><ele>1.4</ele><time>2022-11-10T16:14:09.0000000+00:00</time></trkpt><trkpt lat="39.40287176" lon="-0.38133611"><ele>2.3</ele><time>2022-11-10T16:15:10.0000000+00:00</time></trkpt><trkpt lat="39.4024701" lon="-0.37950944"><ele>2.0</ele><time>2022-11-10T16:15:57.0000000+00:00</time></trkpt><trkpt lat="39.40334341" lon="-0.38302054"><ele>3.8</ele><time>2022-11-10T16:16:55.0000000+00:00</time></trkpt><trkpt lat="39.40352412" lon="-0.38428092"><ele>3.8</ele><time>2022-11-10T16:17:12.0000000+00:00</time></trkpt><trkpt lat="39.40341549" lon="-0.3847856"><ele>5.1</ele><time>2022-11-10T16:17:21.0000000+00:00</time></trkpt><trkpt lat="39.4022546" lon="-0.38545364"><ele>5.3</ele><time>2022-11-10T16:17:49.0000000+00:00</time></trkpt><trkpt lat="39.40211135" lon="-0.38485324"><ele>3.4</ele><time>2022-11-10T16:19:07.0000000+00:00</time></trkpt><trkpt lat="39.40205486" lon="-0.38533704"><ele>2.9</ele><time>2022-11-10T16:20:14.0000000+00:00</time></trkpt><trkpt lat="39.40189728" lon="-0.38543184"><ele>3.6</ele><time>2022-11-10T16:20:22.0000000+00:00</time></trkpt><trkpt lat="39.40170692" lon="-0.38543033"><ele>4.3</ele><time>2022-11-10T16:20:30.0000000+00:00</time></trkpt><trkpt lat="39.40158589" lon="-0.38501945"><ele>5.0</ele><time>2022-11-10T16:21:03.0000000+00:00</time></trkpt><trkpt lat="39.4010875" lon="-0.38109102"><ele>3.9</ele><time>2022-11-10T16:22:19.0000000+00:00</time></trkpt><trkpt lat="39.39961413" lon="-0.3751356"><ele>3.1</ele><time>2022-11-10T16:23:50.0000000+00:00</time></trkpt><trkpt lat="39.3987176" lon="-0.37213664"><ele>2.9</ele><time>2022-11-10T16:24:33.0000000+00:00</time></trkpt><trkpt lat="39.39852792" lon="-0.37186582"><ele>1.8</ele><time>2022-11-10T16:24:54.0000000+00:00</time></trkpt><trkpt lat="39.3976738" lon="-0.37255582"><ele>0.7</ele><time>2022-11-10T16:25:22.0000000+00:00</time></trkpt><trkpt lat="39.39769778" lon="-0.37297374"><ele>2.9</ele><time>2022-11-10T16:25:38.0000000+00:00</time></trkpt><trkpt lat="39.38438379" lon="-0.38138355"><ele>-0.1</ele><time>2022-11-10T16:40:52.0000000+00:00</time></trkpt><trkpt lat="39.38295459" lon="-0.38204321"><ele>-0.0</ele><time>2022-11-10T16:41:20.0000000+00:00</time></trkpt><trkpt lat="39.38217566" lon="-0.38174179"><ele>-0.0</ele><time>2022-11-10T16:41:37.0000000+00:00</time></trkpt><trkpt lat="39.37735029" lon="-0.38331064"><ele>0.1</ele><time>2022-11-10T16:43:19.0000000+00:00</time></trkpt><trkpt lat="39.37534165" lon="-0.38427883"><ele>0.2</ele><time>2022-11-10T16:44:05.0000000+00:00</time></trkpt><trkpt lat="39.37176777" lon="-0.38642485"><ele>-0.1</ele><time>2022-11-10T16:47:28.0000000+00:00</time></trkpt><trkpt lat="39.37348405" lon="-0.39372808"><ele>1.2</ele><time>2022-11-10T16:53:00.0000000+00:00</time></trkpt><trkpt lat="39.37332169" lon="-0.39451389"><ele>2.0</ele><time>2022-11-10T16:53:13.0000000+00:00</time></trkpt><trkpt lat="39.37356108" lon="-0.39768367"><ele>2.8</ele><time>2022-11-10T16:53:57.0000000+00:00</time></trkpt><trkpt lat="39.37313419" lon="-0.39838649"><ele>2.3</ele><time>2022-11-10T16:54:10.0000000+00:00</time></trkpt><trkpt lat="39.37308415" lon="-0.40036722"><ele>3.8</ele><time>2022-11-10T16:54:41.0000000+00:00</time></trkpt><trkpt lat="39.3726006" lon="-0.40324984"><ele>3.5</ele><time>2022-11-10T16:55:21.0000000+00:00</time></trkpt><trkpt lat="39.37238149" lon="-0.40340683"><ele>3.1</ele><time>2022-11-10T16:55:26.0000000+00:00</time></trkpt><trkpt lat="39.36315042" lon="-0.40449841"><ele>6.1</ele><time>2022-11-10T16:58:30.0000000+00:00</time></trkpt><trkpt lat="39.36396531" lon="-0.4075107"><ele>8.3</ele><time>2022-11-10T16:59:29.0000000+00:00</time></trkpt><trkpt lat="39.36292461" lon="-0.40783416"><ele>9.4</ele><time>2022-11-10T17:00:03.0000000+00:00</time></trkpt><trkpt lat="39.36309217" lon="-0.40889103"><ele>12.1</ele><time>2022-11-10T17:00:32.0000000+00:00</time></trkpt><trkpt lat="39.36186011" lon="-0.40944289"><ele>12.8</ele><time>2022-11-10T17:01:05.0000000+00:00</time></trkpt><trkpt lat="39.36135376" lon="-0.41060186"><ele>11.2</ele><time>2022-11-10T17:01:33.0000000+00:00</time></trkpt><trkpt lat="39.36101412" lon="-0.41066313"><ele>11.8</ele><time>2022-11-10T17:02:00.0000000+00:00</time></trkpt><trkpt lat="39.36076351" lon="-0.41123092"><ele>12.0</ele><time>2022-11-10T17:02:13.0000000+00:00</time></trkpt><trkpt lat="39.35958711" lon="-0.41232845"><ele>11.9</ele><time>2022-11-10T17:03:08.0000000+00:00</time></trkpt><trkpt lat="39.36121068" lon="-0.41512826"><ele>12.5</ele><time>2022-11-10T17:04:19.0000000+00:00</time></trkpt><trkpt lat="39.36168158" lon="-0.41482098"><ele>14.1</ele><time>2022-11-10T17:04:46.0000000+00:00</time></trkpt><trkpt lat="39.36191116" lon="-0.41502323"><ele>12.4</ele><time>2022-11-10T17:05:39.0000000+00:00</time></trkpt></trkseg><trkseg><trkpt lat="38.99077775" lon="-0.52394346"><ele>119.2</ele><time>2022-11-13T12:27:06.0000000+00:00</time></trkpt><trkpt lat="38.99055907" lon="-0.52371305"><ele>119.1</ele><time>2022-11-13T12:27:22.0000000+00:00</time></trkpt><trkpt lat="38.99031121" lon="-0.52390315"><ele>119.3</ele><time>2022-11-13T12:27:37.0000000+00:00</time></trkpt><trkpt lat="38.9900378" lon="-0.52381841"><ele>117.6</ele><time>2022-11-13T12:27:59.0000000+00:00</time></trkpt><trkpt lat="38.98965399" lon="-0.52336805"><ele>117.7</ele><time>2022-11-13T12:28:57.0000000+00:00</time></trkpt><trkpt lat="38.98950119" lon="-0.52375043"><ele>121.3</ele><time>2022-11-13T12:31:16.0000000+00:00</time></trkpt><trkpt lat="38.98854481" lon="-0.52380902"><ele>120.8</ele><time>2022-11-13T12:31:17.0000000+00:00</time></trkpt><trkpt lat="38.98957855" lon="-0.52358262"><ele>119.8</ele><time>2022-11-13T12:31:24.0000000+00:00</time></trkpt><trkpt lat="38.98953094" lon="-0.52378463"><ele>121.4</ele><time>2022-11-13T12:32:18.0000000+00:00</time></trkpt><trkpt lat="38.98925736" lon="-0.52366954"><ele>122.1</ele><time>2022-11-13T12:33:23.0000000+00:00</time></trkpt><trkpt lat="38.98912383" lon="-0.5240277"><ele>121.7</ele><time>2022-11-13T12:34:00.0000000+00:00</time></trkpt><trkpt lat="38.98910472" lon="-0.52386493"><ele>120.7</ele><time>2022-11-13T12:34:22.0000000+00:00</time></trkpt><trkpt lat="38.98919759" lon="-0.52404597"><ele>122.0</ele><time>2022-11-13T12:34:44.0000000+00:00</time></trkpt><trkpt lat="38.9881092" lon="-0.52412862"><ele>123.0</ele><time>2022-11-13T12:36:20.0000000+00:00</time></trkpt><trkpt lat="38.98770117" lon="-0.52403256"><ele>121.6</ele><time>2022-11-13T12:36:55.0000000+00:00</time></trkpt><trkpt lat="38.98756354" lon="-0.52371237"><ele>121.6</ele><time>2022-11-13T12:37:16.0000000+00:00</time></trkpt><trkpt lat="38.98723221" lon="-0.52390834"><ele>129.6</ele><time>2022-11-13T12:37:43.0000000+00:00</time></trkpt><trkpt lat="38.98706239" lon="-0.52364951"><ele>133.4</ele><time>2022-11-13T12:38:14.0000000+00:00</time></trkpt><trkpt lat="38.9871623" lon="-0.52345597"><ele>131.5</ele><time>2022-11-13T12:38:23.0000000+00:00</time></trkpt><trkpt lat="38.98707856" lon="-0.5231637"><ele>134.1</ele><time>2022-11-13T12:39:11.0000000+00:00</time></trkpt><trkpt lat="38.9867821" lon="-0.5232191"><ele>131.2</ele><time>2022-11-13T12:39:38.0000000+00:00</time></trkpt><trkpt lat="38.98658529" lon="-0.52273681"><ele>134.4</ele><time>2022-11-13T12:40:15.0000000+00:00</time></trkpt><trkpt lat="38.98621179" lon="-0.52247278"><ele>136.8</ele><time>2022-11-13T12:40:44.0000000+00:00</time></trkpt><trkpt lat="38.98591868" lon="-0.52272499"><ele>137.8</ele><time>2022-11-13T12:41:24.0000000+00:00</time></trkpt><trkpt lat="38.98545784" lon="-0.52257487"><ele>145.2</ele><time>2022-11-13T12:42:08.0000000+00:00</time></trkpt><trkpt lat="38.98534552" lon="-0.52200423"><ele>150.0</ele><time>2022-11-13T12:42:51.0000000+00:00</time></trkpt><trkpt lat="38.98504335" lon="-0.52159569"><ele>162.4</ele><time>2022-11-13T12:44:47.0000000+00:00</time></trkpt><trkpt lat="38.98573461" lon="-0.52077862"><ele>155.7</ele><time>2022-11-13T12:46:10.0000000+00:00</time></trkpt><trkpt lat="38.98628614" lon="-0.51891843"><ele>175.2</ele><time>2022-11-13T12:49:52.0000000+00:00</time></trkpt><trkpt lat="38.98640516" lon="-0.51822592"><ele>173.3</ele><time>2022-11-13T12:50:59.0000000+00:00</time></trkpt><trkpt lat="38.98600099" lon="-0.5179276"><ele>184.0</ele><time>2022-11-13T12:53:10.0000000+00:00</time></trkpt><trkpt lat="38.98606653" lon="-0.51729695"><ele>181.4</ele><time>2022-11-13T12:56:13.0000000+00:00</time></trkpt><trkpt lat="38.98624549" lon="-0.5170149"><ele>177.5</ele><time>2022-11-13T12:56:39.0000000+00:00</time></trkpt><trkpt lat="38.9863376" lon="-0.51735194"><ele>169.3</ele><time>2022-11-13T12:57:13.0000000+00:00</time></trkpt><trkpt lat="38.98655352" lon="-0.51708262"><ele>162.7</ele><time>2022-11-13T12:57:52.0000000+00:00</time></trkpt><trkpt lat="38.98654799" lon="-0.51730885"><ele>159.8</ele><time>2022-11-13T12:58:52.0000000+00:00</time></trkpt><trkpt lat="38.98683205" lon="-0.5174687"><ele>149.6</ele><time>2022-11-13T12:59:18.0000000+00:00</time></trkpt><trkpt lat="38.9869556" lon="-0.51720517"><ele>148.2</ele><time>2022-11-13T12:59:40.0000000+00:00</time></trkpt><trkpt lat="38.98712433" lon="-0.51720114"><ele>144.3</ele><time>2022-11-13T12:59:57.0000000+00:00</time></trkpt><trkpt lat="38.98721586" lon="-0.51624846"><ele>142.2</ele><time>2022-11-13T13:00:55.0000000+00:00</time></trkpt><trkpt lat="38.9877036" lon="-0.5147595"><ele>135.2</ele><time>2022-11-13T13:02:31.0000000+00:00</time></trkpt><trkpt lat="38.9877922" lon="-0.51322075"><ele>123.9</ele><time>2022-11-13T13:04:14.0000000+00:00</time></trkpt><trkpt lat="38.98808506" lon="-0.51350825"><ele>124.1</ele><time>2022-11-13T13:04:51.0000000+00:00</time></trkpt><trkpt lat="38.98827667" lon="-0.51325788"><ele>120.7</ele><time>2022-11-13T13:05:12.0000000+00:00</time></trkpt><trkpt lat="38.98829746" lon="-0.51263192"><ele>120.1</ele><time>2022-11-13T13:05:48.0000000+00:00</time></trkpt><trkpt lat="38.98899995" lon="-0.51175819"><ele>120.8</ele><time>2022-11-13T13:07:09.0000000+00:00</time></trkpt><trkpt lat="38.98920748" lon="-0.51085051"><ele>123.5</ele><time>2022-11-13T13:08:14.0000000+00:00</time></trkpt><trkpt lat="38.98971828" lon="-0.51028666"><ele>117.0</ele><time>2022-11-13T13:09:00.0000000+00:00</time></trkpt><trkpt lat="38.99036628" lon="-0.50600343"><ele>117.9</ele><time>2022-11-13T13:13:23.0000000+00:00</time></trkpt><trkpt lat="38.99033208" lon="-0.50418598"><ele>115.1</ele><time>2022-11-13T13:15:12.0000000+00:00</time></trkpt><trkpt lat="38.99024022" lon="-0.50384508"><ele>113.6</ele><time>2022-11-13T13:16:05.0000000+00:00</time></trkpt><trkpt lat="38.98999706" lon="-0.50363537"><ele>116.8</ele><time>2022-11-13T13:16:32.0000000+00:00</time></trkpt><trkpt lat="38.990088" lon="-0.50285962"><ele>116.8</ele><time>2022-11-13T13:17:27.0000000+00:00</time></trkpt><trkpt lat="38.98994912" lon="-0.50101284"><ele>117.6</ele><time>2022-11-13T13:19:26.0000000+00:00</time></trkpt><trkpt lat="38.98948995" lon="-0.50023265"><ele>112.4</ele><time>2022-11-13T13:20:27.0000000+00:00</time></trkpt><trkpt lat="38.98916314" lon="-0.49916857"><ele>111.7</ele><time>2022-11-13T13:22:01.0000000+00:00</time></trkpt><trkpt lat="38.9892535" lon="-0.49785906"><ele>111.4</ele><time>2022-11-13T13:24:16.0000000+00:00</time></trkpt><trkpt lat="38.98907815" lon="-0.49686673"><ele>121.7</ele><time>2022-11-13T13:25:50.0000000+00:00</time></trkpt><trkpt lat="38.98958174" lon="-0.49517451"><ele>117.9</ele><time>2022-11-13T13:28:27.0000000+00:00</time></trkpt><trkpt lat="38.98959029" lon="-0.49404999"><ele>117.8</ele><time>2022-11-13T13:29:46.0000000+00:00</time></trkpt><trkpt lat="38.98924193" lon="-0.49266698"><ele>120.1</ele><time>2022-11-13T13:31:19.0000000+00:00</time></trkpt><trkpt lat="38.98923783" lon="-0.49186483"><ele>113.9</ele><time>2022-11-13T13:32:14.0000000+00:00</time></trkpt><trkpt lat="38.988663" lon="-0.491203"><ele>113.7</ele><time>2022-11-13T13:33:21.0000000+00:00</time></trkpt><trkpt lat="38.98840793" lon="-0.48974614"><ele>113.4</ele><time>2022-11-13T13:35:02.0000000+00:00</time></trkpt><trkpt lat="38.98757511" lon="-0.48928538"><ele>111.2</ele><time>2022-11-13T13:36:18.0000000+00:00</time></trkpt><trkpt lat="38.98625923" lon="-0.48900794"><ele>119.0</ele><time>2022-11-13T13:38:18.0000000+00:00</time></trkpt><trkpt lat="38.9846997" lon="-0.48756114"><ele>122.5</ele><time>2022-11-13T13:41:07.0000000+00:00</time></trkpt><trkpt lat="38.98453499" lon="-0.48690517"><ele>122.3</ele><time>2022-11-13T13:42:07.0000000+00:00</time></trkpt><trkpt lat="38.98401012" lon="-0.48612155"><ele>127.6</ele><time>2022-11-13T13:43:24.0000000+00:00</time></trkpt><trkpt lat="38.98301292" lon="-0.48509485"><ele>132.5</ele><time>2022-11-13T13:45:55.0000000+00:00</time></trkpt><trkpt lat="38.98223123" lon="-0.48468405"><ele>131.5</ele><time>2022-11-13T13:47:48.0000000+00:00</time></trkpt><trkpt lat="38.98155849" lon="-0.48461482"><ele>116.8</ele><time>2022-11-13T13:48:54.0000000+00:00</time></trkpt><trkpt lat="38.98111819" lon="-0.48505277"><ele>102.4</ele><time>2022-11-13T13:49:46.0000000+00:00</time></trkpt><trkpt lat="38.98058485" lon="-0.48679797"><ele>104.6</ele><time>2022-11-13T13:52:38.0000000+00:00</time></trkpt><trkpt lat="38.97997649" lon="-0.48749476"><ele>110.4</ele><time>2022-11-13T13:54:10.0000000+00:00</time></trkpt><trkpt lat="38.9796206" lon="-0.4875961"><ele>106.7</ele><time>2022-11-13T13:54:48.0000000+00:00</time></trkpt><trkpt lat="38.97891308" lon="-0.48831191"><ele>104.2</ele><time>2022-11-13T13:56:14.0000000+00:00</time></trkpt><trkpt lat="38.97852391" lon="-0.48916326"><ele>117.3</ele><time>2022-11-13T13:57:35.0000000+00:00</time></trkpt><trkpt lat="38.97834756" lon="-0.48934339"><ele>117.9</ele><time>2022-11-13T13:59:30.0000000+00:00</time></trkpt><trkpt lat="38.97834236" lon="-0.4888921"><ele>109.4</ele><time>2022-11-13T14:00:21.0000000+00:00</time></trkpt><trkpt lat="38.97806634" lon="-0.48877216"><ele>100.1</ele><time>2022-11-13T14:00:43.0000000+00:00</time></trkpt><trkpt lat="38.97783081" lon="-0.48949166"><ele>99.8</ele><time>2022-11-13T14:02:04.0000000+00:00</time></trkpt><trkpt lat="38.97729605" lon="-0.49000514"><ele>99.8</ele><time>2022-11-13T14:03:10.0000000+00:00</time></trkpt><trkpt lat="38.97716085" lon="-0.49036254"><ele>104.5</ele><time>2022-11-13T14:03:41.0000000+00:00</time></trkpt><trkpt lat="38.9760365" lon="-0.49064686"><ele>101.4</ele><time>2022-11-13T14:06:33.0000000+00:00</time></trkpt><trkpt lat="38.9755252" lon="-0.49100602"><ele>100.4</ele><time>2022-11-13T14:07:56.0000000+00:00</time></trkpt><trkpt lat="38.97555395" lon="-0.49143559"><ele>102.6</ele><time>2022-11-13T14:10:00.0000000+00:00</time></trkpt><trkpt lat="38.97512983" lon="-0.49109386"><ele>98.9</ele><time>2022-11-13T14:10:48.0000000+00:00</time></trkpt><trkpt lat="38.97466564" lon="-0.49115229"><ele>116.4</ele><time>2022-11-13T14:11:35.0000000+00:00</time></trkpt><trkpt lat="38.97447025" lon="-0.49067485"><ele>112.3</ele><time>2022-11-13T14:12:50.0000000+00:00</time></trkpt><trkpt lat="38.97415987" lon="-0.49041015"><ele>110.1</ele><time>2022-11-13T14:13:42.0000000+00:00</time></trkpt><trkpt lat="38.97325345" lon="-0.49029616"><ele>122.6</ele><time>2022-11-13T14:14:58.0000000+00:00</time></trkpt><trkpt lat="38.97283335" lon="-0.48970808"><ele>104.8</ele><time>2022-11-13T14:15:48.0000000+00:00</time></trkpt><trkpt lat="38.97255071" lon="-0.48965419"><ele>104.9</ele><time>2022-11-13T14:16:15.0000000+00:00</time></trkpt><trkpt lat="38.97152226" lon="-0.49068231"><ele>112.4</ele><time>2022-11-13T14:18:04.0000000+00:00</time></trkpt><trkpt lat="38.97064685" lon="-0.4911584"><ele>115.4</ele><time>2022-11-13T14:19:38.0000000+00:00</time></trkpt><trkpt lat="38.9700566" lon="-0.4909098"><ele>108.8</ele><time>2022-11-13T14:21:14.0000000+00:00</time></trkpt><trkpt lat="38.96960674" lon="-0.49234587"><ele>105.8</ele><time>2022-11-13T14:22:54.0000000+00:00</time></trkpt><trkpt lat="38.96930365" lon="-0.49291684"><ele>106.0</ele><time>2022-11-13T14:23:41.0000000+00:00</time></trkpt><trkpt lat="38.96904088" lon="-0.49297862"><ele>103.0</ele><time>2022-11-13T14:23:59.0000000+00:00</time></trkpt><trkpt lat="38.96886419" lon="-0.49526327"><ele>111.5</ele><time>2022-11-13T14:26:18.0000000+00:00</time></trkpt><trkpt lat="38.96828148" lon="-0.49568136"><ele>111.8</ele><time>2022-11-13T14:27:49.0000000+00:00</time></trkpt><trkpt lat="38.96771528" lon="-0.49530644"><ele>109.7</ele><time>2022-11-13T14:29:11.0000000+00:00</time></trkpt><trkpt lat="38.96775635" lon="-0.49488315"><ele>104.1</ele><time>2022-11-13T14:31:10.0000000+00:00</time></trkpt><trkpt lat="38.96810479" lon="-0.49488391"><ele>106.7</ele><time>2022-11-13T14:34:10.0000000+00:00</time></trkpt><trkpt lat="38.96776364" lon="-0.49487452"><ele>104.1</ele><time>2022-11-13T14:34:57.0000000+00:00</time></trkpt><trkpt lat="38.96769055" lon="-0.49526034"><ele>108.8</ele><time>2022-11-13T14:35:52.0000000+00:00</time></trkpt><trkpt lat="38.96702461" lon="-0.49550425"><ele>107.3</ele><time>2022-11-13T14:37:08.0000000+00:00</time></trkpt><trkpt lat="38.9668594" lon="-0.49582285"><ele>107.4</ele><time>2022-11-13T14:37:31.0000000+00:00</time></trkpt><trkpt lat="38.96595223" lon="-0.49596677"><ele>107.2</ele><time>2022-11-13T14:39:19.0000000+00:00</time></trkpt><trkpt lat="38.9654763" lon="-0.49621881"><ele>110.0</ele><time>2022-11-13T14:40:23.0000000+00:00</time></trkpt><trkpt lat="38.96534714" lon="-0.49648619"><ele>124.6</ele><time>2022-11-13T14:46:21.0000000+00:00</time></trkpt><trkpt lat="38.96521269" lon="-0.49641436"><ele>123.4</ele><time>2022-11-13T14:47:05.0000000+00:00</time></trkpt><trkpt lat="38.96444759" lon="-0.49586752"><ele>112.2</ele><time>2022-11-13T14:48:32.0000000+00:00</time></trkpt><trkpt lat="38.96377763" lon="-0.49476354"><ele>133.9</ele><time>2022-11-13T14:50:10.0000000+00:00</time></trkpt><trkpt lat="38.96398944" lon="-0.493735"><ele>121.8</ele><time>2022-11-13T14:51:20.0000000+00:00</time></trkpt><trkpt lat="38.96383722" lon="-0.49310326"><ele>123.3</ele><time>2022-11-13T14:52:25.0000000+00:00</time></trkpt><trkpt lat="38.96382205" lon="-0.49109043"><ele>113.1</ele><time>2022-11-13T14:55:55.0000000+00:00</time></trkpt><trkpt lat="38.96338158" lon="-0.49059036"><ele>110.3</ele><time>2022-11-13T14:57:46.0000000+00:00</time></trkpt><trkpt lat="38.96378274" lon="-0.49124708"><ele>115.9</ele><time>2022-11-13T14:59:56.0000000+00:00</time></trkpt><trkpt lat="38.96377302" lon="-0.49264728"><ele>125.1</ele><time>2022-11-13T15:01:34.0000000+00:00</time></trkpt><trkpt lat="38.9628314" lon="-0.49256455"><ele>151.1</ele><time>2022-11-13T15:06:45.0000000+00:00</time></trkpt><trkpt lat="38.96251758" lon="-0.49204898"><ele>152.1</ele><time>2022-11-13T15:08:19.0000000+00:00</time></trkpt><trkpt lat="38.96240668" lon="-0.49223892"><ele>160.5</ele><time>2022-11-13T15:09:32.0000000+00:00</time></trkpt><trkpt lat="38.96219445" lon="-0.49219835"><ele>164.9</ele><time>2022-11-13T15:11:31.0000000+00:00</time></trkpt><trkpt lat="38.96173228" lon="-0.49455944"><ele>232.0</ele><time>2022-11-13T15:17:56.0000000+00:00</time></trkpt><trkpt lat="38.96185951" lon="-0.49682608"><ele>253.6</ele><time>2022-11-13T15:23:53.0000000+00:00</time></trkpt><trkpt lat="38.96261355" lon="-0.49717284"><ele>244.3</ele><time>2022-11-13T15:36:15.0000000+00:00</time></trkpt><trkpt lat="38.96309635" lon="-0.49778128"><ele>233.8</ele><time>2022-11-13T15:39:14.0000000+00:00</time></trkpt><trkpt lat="38.96319198" lon="-0.49813894"><ele>226.3</ele><time>2022-11-13T15:40:49.0000000+00:00</time></trkpt><trkpt lat="38.96380588" lon="-0.49823457"><ele>219.0</ele><time>2022-11-13T15:41:59.0000000+00:00</time></trkpt><trkpt lat="38.96429882" lon="-0.49809627"><ele>218.9</ele><time>2022-11-13T15:42:59.0000000+00:00</time></trkpt><trkpt lat="38.96444676" lon="-0.49824824"><ele>223.0</ele><time>2022-11-13T15:43:30.0000000+00:00</time></trkpt><trkpt lat="38.96473501" lon="-0.49798127"><ele>217.9</ele><time>2022-11-13T15:45:37.0000000+00:00</time></trkpt><trkpt lat="38.96446159" lon="-0.49831437"><ele>223.0</ele><time>2022-11-13T15:47:17.0000000+00:00</time></trkpt><trkpt lat="38.96437584" lon="-0.49940419"><ele>208.2</ele><time>2022-11-13T15:50:13.0000000+00:00</time></trkpt><trkpt lat="38.96454717" lon="-0.50007356"><ele>205.9</ele><time>2022-11-13T15:51:41.0000000+00:00</time></trkpt><trkpt lat="38.9643771" lon="-0.50098283"><ele>185.0</ele><time>2022-11-13T15:54:44.0000000+00:00</time></trkpt><trkpt lat="38.96473627" lon="-0.50139061"><ele>181.3</ele><time>2022-11-13T15:57:01.0000000+00:00</time></trkpt><trkpt lat="38.96482746" lon="-0.50196687"><ele>169.5</ele><time>2022-11-13T15:57:53.0000000+00:00</time></trkpt><trkpt lat="38.96462755" lon="-0.50339808"><ele>172.8</ele><time>2022-11-13T16:03:28.0000000+00:00</time></trkpt><trkpt lat="38.9642181" lon="-0.50432797"><ele>155.8</ele><time>2022-11-13T16:05:59.0000000+00:00</time></trkpt><trkpt lat="38.9644543" lon="-0.50451011"><ele>157.8</ele><time>2022-11-13T16:07:28.0000000+00:00</time></trkpt><trkpt lat="38.96439009" lon="-0.50479199"><ele>151.0</ele><time>2022-11-13T16:08:15.0000000+00:00</time></trkpt><trkpt lat="38.96461741" lon="-0.5059709"><ele>144.1</ele><time>2022-11-13T16:11:03.0000000+00:00</time></trkpt><trkpt lat="38.96432505" lon="-0.5064107"><ele>152.4</ele><time>2022-11-13T16:11:46.0000000+00:00</time></trkpt><trkpt lat="38.96384535" lon="-0.50842764"><ele>152.4</ele><time>2022-11-13T16:14:02.0000000+00:00</time></trkpt><trkpt lat="38.96356565" lon="-0.50879426"><ele>155.9</ele><time>2022-11-13T16:14:32.0000000+00:00</time></trkpt><trkpt lat="38.9634048" lon="-0.50948091"><ele>152.6</ele><time>2022-11-13T16:15:16.0000000+00:00</time></trkpt><trkpt lat="38.96276233" lon="-0.50995566"><ele>156.8</ele><time>2022-11-13T16:16:23.0000000+00:00</time></trkpt><trkpt lat="38.96220493" lon="-0.51070266"><ele>158.9</ele><time>2022-11-13T16:17:26.0000000+00:00</time></trkpt><trkpt lat="38.96193202" lon="-0.51173355"><ele>158.4</ele><time>2022-11-13T16:18:37.0000000+00:00</time></trkpt><trkpt lat="38.96204492" lon="-0.51276293"><ele>156.8</ele><time>2022-11-13T16:22:02.0000000+00:00</time></trkpt><trkpt lat="38.96189497" lon="-0.5129397"><ele>159.2</ele><time>2022-11-13T16:22:29.0000000+00:00</time></trkpt><trkpt lat="38.96208884" lon="-0.51312595"><ele>157.0</ele><time>2022-11-13T16:22:56.0000000+00:00</time></trkpt><trkpt lat="38.96192523" lon="-0.51393497"><ele>157.8</ele><time>2022-11-13T16:24:09.0000000+00:00</time></trkpt><trkpt lat="38.96227852" lon="-0.51394419"><ele>152.6</ele><time>2022-11-13T16:25:00.0000000+00:00</time></trkpt><trkpt lat="38.96197451" lon="-0.51371553"><ele>157.8</ele><time>2022-11-13T16:27:02.0000000+00:00</time></trkpt><trkpt lat="38.96210049" lon="-0.51323726"><ele>156.9</ele><time>2022-11-13T16:27:33.0000000+00:00</time></trkpt><trkpt lat="38.96207669" lon="-0.51301849"><ele>157.1</ele><time>2022-11-13T16:27:49.0000000+00:00</time></trkpt><trkpt lat="38.96191718" lon="-0.51296325"><ele>158.9</ele><time>2022-11-13T16:28:10.0000000+00:00</time></trkpt><trkpt lat="38.9620585" lon="-0.5125486"><ele>156.2</ele><time>2022-11-13T16:28:44.0000000+00:00</time></trkpt><trkpt lat="38.96197476" lon="-0.51157462"><ele>157.7</ele><time>2022-11-13T16:29:55.0000000+00:00</time></trkpt><trkpt lat="38.96239009" lon="-0.51039496"><ele>158.1</ele><time>2022-11-13T16:31:26.0000000+00:00</time></trkpt><trkpt lat="38.96310942" lon="-0.50967696"><ele>153.2</ele><time>2022-11-13T16:33:40.0000000+00:00</time></trkpt><trkpt lat="38.96339868" lon="-0.50970932"><ele>150.2</ele><time>2022-11-13T16:34:07.0000000+00:00</time></trkpt><trkpt lat="38.96321755" lon="-0.51118814"><ele>140.4</ele><time>2022-11-13T16:35:32.0000000+00:00</time></trkpt><trkpt lat="38.96335744" lon="-0.5114934"><ele>143.9</ele><time>2022-11-13T16:35:52.0000000+00:00</time></trkpt><trkpt lat="38.96505956" lon="-0.51157094"><ele>159.8</ele><time>2022-11-13T16:38:04.0000000+00:00</time></trkpt><trkpt lat="38.96630284" lon="-0.51113633"><ele>175.6</ele><time>2022-11-13T16:39:49.0000000+00:00</time></trkpt><trkpt lat="38.96665363" lon="-0.51128134"><ele>177.0</ele><time>2022-11-13T16:40:21.0000000+00:00</time></trkpt><trkpt lat="38.96706853" lon="-0.51205239"><ele>185.6</ele><time>2022-11-13T16:41:18.0000000+00:00</time></trkpt><trkpt lat="38.96738864" lon="-0.51227527"><ele>182.8</ele><time>2022-11-13T16:41:48.0000000+00:00</time></trkpt><trkpt lat="38.9684979" lon="-0.51191962"><ele>186.5</ele><time>2022-11-13T16:43:25.0000000+00:00</time></trkpt><trkpt lat="38.96870585" lon="-0.51202222"><ele>190.2</ele><time>2022-11-13T16:43:48.0000000+00:00</time></trkpt><trkpt lat="38.96911807" lon="-0.51167202"><ele>190.6</ele><time>2022-11-13T16:44:31.0000000+00:00</time></trkpt><trkpt lat="38.97065691" lon="-0.51143507"><ele>175.9</ele><time>2022-11-13T16:46:40.0000000+00:00</time></trkpt><trkpt lat="38.97222173" lon="-0.51085194"><ele>160.3</ele><time>2022-11-13T16:48:54.0000000+00:00</time></trkpt><trkpt lat="38.97412743" lon="-0.51060392"><ele>138.9</ele><time>2022-11-13T16:51:36.0000000+00:00</time></trkpt><trkpt lat="38.97484635" lon="-0.51031457"><ele>134.4</ele><time>2022-11-13T16:52:45.0000000+00:00</time></trkpt><trkpt lat="38.97599677" lon="-0.51038674"><ele>147.2</ele><time>2022-11-13T16:54:27.0000000+00:00</time></trkpt><trkpt lat="38.97756921" lon="-0.50990218"><ele>172.5</ele><time>2022-11-13T16:57:25.0000000+00:00</time></trkpt><trkpt lat="38.97823147" lon="-0.50931889"><ele>177.1</ele><time>2022-11-13T16:58:30.0000000+00:00</time></trkpt><trkpt lat="38.97865676" lon="-0.50856284"><ele>175.1</ele><time>2022-11-13T16:59:30.0000000+00:00</time></trkpt><trkpt lat="38.97941667" lon="-0.50783621"><ele>180.7</ele><time>2022-11-13T17:00:54.0000000+00:00</time></trkpt><trkpt lat="38.9801738" lon="-0.50733506"><ele>186.2</ele><time>2022-11-13T17:02:10.0000000+00:00</time></trkpt><trkpt lat="38.98158465" lon="-0.5068065"><ele>201.9</ele><time>2022-11-13T17:04:25.0000000+00:00</time></trkpt><trkpt lat="38.9820003" lon="-0.50529926"><ele>213.2</ele><time>2022-11-13T17:06:01.0000000+00:00</time></trkpt><trkpt lat="38.98258444" lon="-0.50499458"><ele>215.3</ele><time>2022-11-13T17:07:00.0000000+00:00</time></trkpt><trkpt lat="38.9833073" lon="-0.50502408"><ele>201.1</ele><time>2022-11-13T17:08:02.0000000+00:00</time></trkpt><trkpt lat="38.98362212" lon="-0.50543035"><ele>200.4</ele><time>2022-11-13T17:08:36.0000000+00:00</time></trkpt><trkpt lat="38.98374089" lon="-0.5059207"><ele>203.2</ele><time>2022-11-13T17:09:06.0000000+00:00</time></trkpt><trkpt lat="38.98409352" lon="-0.50612446"><ele>192.8</ele><time>2022-11-13T17:09:57.0000000+00:00</time></trkpt><trkpt lat="38.98431187" lon="-0.50712903"><ele>175.7</ele><time>2022-11-13T17:11:42.0000000+00:00</time></trkpt><trkpt lat="38.98480606" lon="-0.50812371"><ele>170.7</ele><time>2022-11-13T17:13:26.0000000+00:00</time></trkpt><trkpt lat="38.98611129" lon="-0.50929098"><ele>157.6</ele><time>2022-11-13T17:15:44.0000000+00:00</time></trkpt><trkpt lat="38.98703875" lon="-0.51078756"><ele>137.5</ele><time>2022-11-13T17:18:16.0000000+00:00</time></trkpt><trkpt lat="38.98710773" lon="-0.51279159"><ele>125.0</ele><time>2022-11-13T17:21:05.0000000+00:00</time></trkpt><trkpt lat="38.98821322" lon="-0.51269252"><ele>121.0</ele><time>2022-11-13T17:22:45.0000000+00:00</time></trkpt><trkpt lat="38.98829143" lon="-0.51280936"><ele>119.8</ele><time>2022-11-13T17:22:52.0000000+00:00</time></trkpt><trkpt lat="38.98836929" lon="-0.5137649"><ele>122.4</ele><time>2022-11-13T17:23:58.0000000+00:00</time></trkpt><trkpt lat="38.98858789" lon="-0.51405952"><ele>117.6</ele><time>2022-11-13T17:24:24.0000000+00:00</time></trkpt><trkpt lat="38.98834222" lon="-0.51456017"><ele>124.0</ele><time>2022-11-13T17:24:58.0000000+00:00</time></trkpt><trkpt lat="38.98855956" lon="-0.51473108"><ele>120.7</ele><time>2022-11-13T17:25:13.0000000+00:00</time></trkpt><trkpt lat="38.98871563" lon="-0.51539401"><ele>118.9</ele><time>2022-11-13T17:26:16.0000000+00:00</time></trkpt><trkpt lat="38.98899039" lon="-0.51545293"><ele>118.3</ele><time>2022-11-13T17:26:28.0000000+00:00</time></trkpt><trkpt lat="38.98892828" lon="-0.51565879"><ele>118.2</ele><time>2022-11-13T17:26:47.0000000+00:00</time></trkpt><trkpt lat="38.98871807" lon="-0.5157012"><ele>119.2</ele><time>2022-11-13T17:27:05.0000000+00:00</time></trkpt><trkpt lat="38.989081" lon="-0.51563951"><ele>117.3</ele><time>2022-11-13T17:27:44.0000000+00:00</time></trkpt><trkpt lat="38.98904739" lon="-0.51591167"><ele>117.2</ele><time>2022-11-13T17:27:53.0000000+00:00</time></trkpt><trkpt lat="38.989195" lon="-0.51596649"><ele>115.3</ele><time>2022-11-13T17:28:01.0000000+00:00</time></trkpt><trkpt lat="38.98995155" lon="-0.51561789"><ele>111.7</ele><time>2022-11-13T17:28:50.0000000+00:00</time></trkpt><trkpt lat="38.99022413" lon="-0.51613011"><ele>115.0</ele><time>2022-11-13T17:29:27.0000000+00:00</time></trkpt><trkpt lat="38.99022195" lon="-0.51834142"><ele>115.3</ele><time>2022-11-13T17:31:53.0000000+00:00</time></trkpt><trkpt lat="38.99007317" lon="-0.51931489"><ele>112.3</ele><time>2022-11-13T17:32:50.0000000+00:00</time></trkpt><trkpt lat="38.9902491" lon="-0.51942168"><ele>112.4</ele><time>2022-11-13T17:33:20.0000000+00:00</time></trkpt><trkpt lat="38.98981257" lon="-0.52073311"><ele>115.4</ele><time>2022-11-13T17:34:51.0000000+00:00</time></trkpt><trkpt lat="38.99003889" lon="-0.52076848"><ele>115.9</ele><time>2022-11-13T17:35:06.0000000+00:00</time></trkpt><trkpt lat="38.98986412" lon="-0.5209528"><ele>118.1</ele><time>2022-11-13T17:35:09.0000000+00:00</time></trkpt><trkpt lat="38.98981291" lon="-0.52182687"><ele>120.8</ele><time>2022-11-13T17:36:02.0000000+00:00</time></trkpt><trkpt lat="38.98968835" lon="-0.52200791"><ele>120.2</ele><time>2022-11-13T17:36:16.0000000+00:00</time></trkpt><trkpt lat="38.98962189" lon="-0.52254972"><ele>116.5</ele><time>2022-11-13T17:36:56.0000000+00:00</time></trkpt><trkpt lat="38.98978047" lon="-0.52302187"><ele>118.6</ele><time>2022-11-13T17:37:28.0000000+00:00</time></trkpt><trkpt lat="38.98968358" lon="-0.52346301"><ele>118.2</ele><time>2022-11-13T17:38:01.0000000+00:00</time></trkpt><trkpt lat="38.99000016" lon="-0.52341498"><ele>120.5</ele><time>2022-11-13T17:38:26.0000000+00:00</time></trkpt><trkpt lat="38.99059335" lon="-0.52379075"><ele>119.6</ele><time>2022-11-13T17:39:23.0000000+00:00</time></trkpt><trkpt lat="38.99209916" lon="-0.52408529"><ele>102.8</ele><time>2022-11-13T17:41:26.0000000+00:00</time></trkpt><trkpt lat="38.99230083" lon="-0.52437597"><ele>100.5</ele><time>2022-11-13T17:41:56.0000000+00:00</time></trkpt><trkpt lat="38.99221935" lon="-0.52406039"><ele>101.8</ele><time>2022-11-13T17:42:10.0000000+00:00</time></trkpt><trkpt lat="38.99209572" lon="-0.52418914"><ele>102.9</ele><time>2022-11-13T17:42:30.0000000+00:00</time></trkpt><trkpt lat="38.99212866" lon="-0.52450866"><ele>99.5</ele><time>2022-11-13T17:43:02.0000000+00:00</time></trkpt><trkpt lat="38.9922999" lon="-0.52438469"><ele>100.5</ele><time>2022-11-13T17:43:15.0000000+00:00</time></trkpt><trkpt lat="38.99221617" lon="-0.52418822"><ele>101.7</ele><time>2022-11-13T17:43:36.0000000+00:00</time></trkpt><trkpt lat="38.99242605" lon="-0.52412183"><ele>99.9</ele><time>2022-11-13T17:44:26.0000000+00:00</time></trkpt><trkpt lat="38.99228641" lon="-0.52416349"><ele>101.1</ele><time>2022-11-13T17:44:43.0000000+00:00</time></trkpt><trkpt lat="38.99224919" lon="-0.52458728"><ele>99.7</ele><time>2022-11-13T17:45:23.0000000+00:00</time></trkpt><trkpt lat="38.9924025" lon="-0.52413424"><ele>100.1</ele><time>2022-11-13T17:46:10.0000000+00:00</time></trkpt><trkpt lat="38.99229194" lon="-0.52421009"><ele>100.9</ele><time>2022-11-13T17:46:32.0000000+00:00</time></trkpt></trkseg><trkseg><trkpt lat="39.4832242" lon="-0.38446155"><ele>20.7</ele><time>2022-11-14T16:00:13.0000000+00:00</time></trkpt><trkpt lat="39.4828704" lon="-0.38448075"><ele>25.1</ele><time>2022-11-14T16:00:16.0000000+00:00</time></trkpt><trkpt lat="39.48275004" lon="-0.38423164"><ele>23.0</ele><time>2022-11-14T16:00:23.0000000+00:00</time></trkpt><trkpt lat="39.4822374" lon="-0.38397415"><ele>18.9</ele><time>2022-11-14T16:00:38.0000000+00:00</time></trkpt><trkpt lat="39.48193833" lon="-0.38405654"><ele>15.7</ele><time>2022-11-14T16:01:00.0000000+00:00</time></trkpt><trkpt lat="39.48138353" lon="-0.38510629"><ele>17.1</ele><time>2022-11-14T16:01:28.0000000+00:00</time></trkpt><trkpt lat="39.48152578" lon="-0.38480613"><ele>16.5</ele><time>2022-11-14T16:01:37.0000000+00:00</time></trkpt><trkpt lat="39.48140893" lon="-0.38396325"><ele>15.2</ele><time>2022-11-14T16:01:45.0000000+00:00</time></trkpt><trkpt lat="39.48127977" lon="-0.3835294"><ele>14.3</ele><time>2022-11-14T16:01:50.0000000+00:00</time></trkpt><trkpt lat="39.48087115" lon="-0.38312523"><ele>15.7</ele><time>2022-11-14T16:02:06.0000000+00:00</time></trkpt><trkpt lat="39.48130533" lon="-0.38232853"><ele>15.2</ele><time>2022-11-14T16:02:19.0000000+00:00</time></trkpt><trkpt lat="39.48214863" lon="-0.37989736"><ele>14.3</ele><time>2022-11-14T16:02:49.0000000+00:00</time></trkpt><trkpt lat="39.48209382" lon="-0.37928808"><ele>12.8</ele><time>2022-11-14T16:02:56.0000000+00:00</time></trkpt><trkpt lat="39.48171856" lon="-0.3788228"><ele>14.6</ele><time>2022-11-14T16:03:07.0000000+00:00</time></trkpt><trkpt lat="39.48167791" lon="-0.37792719"><ele>12.5</ele><time>2022-11-14T16:03:18.0000000+00:00</time></trkpt><trkpt lat="39.48097215" lon="-0.37694936"><ele>12.3</ele><time>2022-11-14T16:03:34.0000000+00:00</time></trkpt><trkpt lat="39.47998912" lon="-0.37489554"><ele>9.5</ele><time>2022-11-14T16:03:59.0000000+00:00</time></trkpt><trkpt lat="39.47940465" lon="-0.3742855"><ele>9.3</ele><time>2022-11-14T16:04:10.0000000+00:00</time></trkpt><trkpt lat="39.47776306" lon="-0.37134606"><ele>11.4</ele><time>2022-11-14T16:04:46.0000000+00:00</time></trkpt><trkpt lat="39.47607729" lon="-0.36885009"><ele>15.6</ele><time>2022-11-14T16:05:21.0000000+00:00</time></trkpt><trkpt lat="39.47594066" lon="-0.36824827"><ele>12.1</ele><time>2022-11-14T16:05:30.0000000+00:00</time></trkpt><trkpt lat="39.47471246" lon="-0.36717363"><ele>11.7</ele><time>2022-11-14T16:05:54.0000000+00:00</time></trkpt><trkpt lat="39.47445321" lon="-0.36671748"><ele>11.9</ele><time>2022-11-14T16:06:01.0000000+00:00</time></trkpt><trkpt lat="39.47358199" lon="-0.36609136"><ele>8.9</ele><time>2022-11-14T16:06:18.0000000+00:00</time></trkpt><trkpt lat="39.47342333" lon="-0.36554771"><ele>8.8</ele><time>2022-11-14T16:06:28.0000000+00:00</time></trkpt><trkpt lat="39.47358761" lon="-0.36528619"><ele>9.8</ele><time>2022-11-14T16:06:30.0000000+00:00</time></trkpt><trkpt lat="39.47349859" lon="-0.36504027"><ele>10.3</ele><time>2022-11-14T16:06:35.0000000+00:00</time></trkpt><trkpt lat="39.4727521" lon="-0.36431423"><ele>10.2</ele><time>2022-11-14T16:06:54.0000000+00:00</time></trkpt><trkpt lat="39.47146749" lon="-0.36368768"><ele>9.3</ele><time>2022-11-14T16:07:18.0000000+00:00</time></trkpt><trkpt lat="39.47160001" lon="-0.36393369"><ele>9.5</ele><time>2022-11-14T16:07:29.0000000+00:00</time></trkpt><trkpt lat="39.47049754" lon="-0.36291327"><ele>9.1</ele><time>2022-11-14T16:07:50.0000000+00:00</time></trkpt><trkpt lat="39.4683998" lon="-0.3618243"><ele>9.1</ele><time>2022-11-14T16:08:23.0000000+00:00</time></trkpt><trkpt lat="39.46773738" lon="-0.36118987"><ele>12.4</ele><time>2022-11-14T16:08:45.0000000+00:00</time></trkpt><trkpt lat="39.46800719" lon="-0.36122256"><ele>10.0</ele><time>2022-11-14T16:08:54.0000000+00:00</time></trkpt><trkpt lat="39.46818388" lon="-0.36098435"><ele>9.5</ele><time>2022-11-14T16:09:01.0000000+00:00</time></trkpt><trkpt lat="39.46807106" lon="-0.36022386"><ele>15.1</ele><time>2022-11-14T16:10:42.0000000+00:00</time></trkpt><trkpt lat="39.46818623" lon="-0.36007307"><ele>16.4</ele><time>2022-11-14T16:11:09.0000000+00:00</time></trkpt><trkpt lat="39.46799076" lon="-0.35896204"><ele>14.0</ele><time>2022-11-14T16:11:27.0000000+00:00</time></trkpt><trkpt lat="39.46771944" lon="-0.35851085"><ele>12.9</ele><time>2022-11-14T16:11:33.0000000+00:00</time></trkpt><trkpt lat="39.46736111" lon="-0.35719757"><ele>22.2</ele><time>2022-11-14T16:11:59.0000000+00:00</time></trkpt><trkpt lat="39.46735877" lon="-0.35680538"><ele>20.5</ele><time>2022-11-14T16:12:04.0000000+00:00</time></trkpt><trkpt lat="39.46700111" lon="-0.35644923"><ele>14.7</ele><time>2022-11-14T16:12:51.0000000+00:00</time></trkpt><trkpt lat="39.46691528" lon="-0.35563309"><ele>15.9</ele><time>2022-11-14T16:13:02.0000000+00:00</time></trkpt><trkpt lat="39.4665883" lon="-0.35462709"><ele>15.4</ele><time>2022-11-14T16:13:21.0000000+00:00</time></trkpt><trkpt lat="39.46671504" lon="-0.35411789"><ele>13.0</ele><time>2022-11-14T16:13:28.0000000+00:00</time></trkpt><trkpt lat="39.46612026" lon="-0.35271417"><ele>11.6</ele><time>2022-11-14T16:13:47.0000000+00:00</time></trkpt><trkpt lat="39.46597047" lon="-0.35139562"><ele>17.7</ele><time>2022-11-14T16:14:07.0000000+00:00</time></trkpt><trkpt lat="39.46567191" lon="-0.35144071"><ele>9.8</ele><time>2022-11-14T16:15:05.0000000+00:00</time></trkpt><trkpt lat="39.46575053" lon="-0.35059213"><ele>16.0</ele><time>2022-11-14T16:15:27.0000000+00:00</time></trkpt><trkpt lat="39.46515575" lon="-0.34887149"><ele>14.5</ele><time>2022-11-14T16:15:53.0000000+00:00</time></trkpt><trkpt lat="39.46484042" lon="-0.34721883"><ele>15.0</ele><time>2022-11-14T16:16:15.0000000+00:00</time></trkpt><trkpt lat="39.46431563" lon="-0.34569701"><ele>8.4</ele><time>2022-11-14T16:16:36.0000000+00:00</time></trkpt><trkpt lat="39.4638009" lon="-0.3450506"><ele>10.2</ele><time>2022-11-14T16:16:46.0000000+00:00</time></trkpt><trkpt lat="39.46333705" lon="-0.34302771"><ele>11.4</ele><time>2022-11-14T16:17:13.0000000+00:00</time></trkpt><trkpt lat="39.46237153" lon="-0.34007753"><ele>7.9</ele><time>2022-11-14T16:18:04.0000000+00:00</time></trkpt><trkpt lat="39.4624204" lon="-0.33944814"><ele>8.8</ele><time>2022-11-14T16:18:12.0000000+00:00</time></trkpt><trkpt lat="39.46217783" lon="-0.33866569"><ele>7.3</ele><time>2022-11-14T16:18:28.0000000+00:00</time></trkpt><trkpt lat="39.46183526" lon="-0.33814274"><ele>6.7</ele><time>2022-11-14T16:18:51.0000000+00:00</time></trkpt><trkpt lat="39.46178799" lon="-0.33749566"><ele>12.4</ele><time>2022-11-14T16:18:59.0000000+00:00</time></trkpt><trkpt lat="39.46109656" lon="-0.33583009"><ele>6.0</ele><time>2022-11-14T16:19:20.0000000+00:00</time></trkpt><trkpt lat="39.46020532" lon="-0.3330711"><ele>3.0</ele><time>2022-11-14T16:19:55.0000000+00:00</time></trkpt><trkpt lat="39.46007598" lon="-0.33220718"><ele>3.7</ele><time>2022-11-14T16:21:27.0000000+00:00</time></trkpt><trkpt lat="39.46065785" lon="-0.33187349"><ele>2.9</ele><time>2022-11-14T16:21:45.0000000+00:00</time></trkpt><trkpt lat="39.4617796" lon="-0.33062065"><ele>6.1</ele><time>2022-11-14T16:22:10.0000000+00:00</time></trkpt><trkpt lat="39.46209543" lon="-0.33005571"><ele>3.1</ele><time>2022-11-14T16:22:19.0000000+00:00</time></trkpt><trkpt lat="39.46178505" lon="-0.32937108"><ele>0.8</ele><time>2022-11-14T16:22:31.0000000+00:00</time></trkpt><trkpt lat="39.46159411" lon="-0.32588781"><ele>0.4</ele><time>2022-11-14T16:23:44.0000000+00:00</time></trkpt><trkpt lat="39.46213366" lon="-0.32573719"><ele>3.0</ele><time>2022-11-14T16:24:04.0000000+00:00</time></trkpt><trkpt lat="39.46192545" lon="-0.32414789"><ele>3.1</ele><time>2022-11-14T16:24:36.0000000+00:00</time></trkpt><trkpt lat="39.46247539" lon="-0.32301743"><ele>3.4</ele><time>2022-11-14T16:25:04.0000000+00:00</time></trkpt><trkpt lat="39.46271251" lon="-0.32116075"><ele>3.4</ele><time>2022-11-14T16:25:31.0000000+00:00</time></trkpt><trkpt lat="39.46269415" lon="-0.3196189"><ele>3.0</ele><time>2022-11-14T16:25:54.0000000+00:00</time></trkpt><trkpt lat="39.46236751" lon="-0.31912495"><ele>2.2</ele><time>2022-11-14T16:26:07.0000000+00:00</time></trkpt><trkpt lat="39.46256541" lon="-0.3188113"><ele>2.7</ele><time>2022-11-14T16:26:15.0000000+00:00</time></trkpt><trkpt lat="39.46259575" lon="-0.31649245"><ele>0.3</ele><time>2022-11-14T16:26:46.0000000+00:00</time></trkpt><trkpt lat="39.46235737" lon="-0.31245413"><ele>0.8</ele><time>2022-11-14T16:27:35.0000000+00:00</time></trkpt><trkpt lat="39.46212159" lon="-0.31190378"><ele>2.2</ele><time>2022-11-14T16:27:43.0000000+00:00</time></trkpt><trkpt lat="39.4613502" lon="-0.31115997"><ele>1.3</ele><time>2022-11-14T16:27:59.0000000+00:00</time></trkpt><trkpt lat="39.4610446" lon="-0.31117162"><ele>0.9</ele><time>2022-11-14T16:28:45.0000000+00:00</time></trkpt><trkpt lat="39.4610026" lon="-0.31081455"><ele>0.2</ele><time>2022-11-14T16:29:34.0000000+00:00</time></trkpt><trkpt lat="39.4608778" lon="-0.31113566"><ele>0.2</ele><time>2022-11-14T16:30:54.0000000+00:00</time></trkpt><trkpt lat="39.46100738" lon="-0.3109272"><ele>0.4</ele><time>2022-11-14T16:32:37.0000000+00:00</time></trkpt><trkpt lat="39.46090009" lon="-0.31112686"><ele>0.3</ele><time>2022-11-14T16:37:09.0000000+00:00</time></trkpt><trkpt lat="39.46103328" lon="-0.31120632"><ele>0.8</ele><time>2022-11-14T16:37:49.0000000+00:00</time></trkpt><trkpt lat="39.46097712" lon="-0.3109671"><ele>0.1</ele><time>2022-11-14T16:50:24.0000000+00:00</time></trkpt><trkpt lat="39.46229149" lon="-0.31190872"><ele>0.3</ele><time>2022-11-14T16:51:13.0000000+00:00</time></trkpt><trkpt lat="39.46246415" lon="-0.31315067"><ele>1.3</ele><time>2022-11-14T16:51:44.0000000+00:00</time></trkpt><trkpt lat="39.46261478" lon="-0.31890049"><ele>2.7</ele><time>2022-11-14T16:53:57.0000000+00:00</time></trkpt><trkpt lat="39.46242996" lon="-0.31916586"><ele>2.3</ele><time>2022-11-14T16:54:06.0000000+00:00</time></trkpt><trkpt lat="39.46268401" lon="-0.31959753"><ele>3.0</ele><time>2022-11-14T16:54:19.0000000+00:00</time></trkpt><trkpt lat="39.46273464" lon="-0.32122051"><ele>3.3</ele><time>2022-11-14T16:54:49.0000000+00:00</time></trkpt><trkpt lat="39.46260111" lon="-0.32260051"><ele>3.1</ele><time>2022-11-14T16:55:12.0000000+00:00</time></trkpt><trkpt lat="39.46209694" lon="-0.32417656"><ele>2.8</ele><time>2022-11-14T16:55:42.0000000+00:00</time></trkpt><trkpt lat="39.46229316" lon="-0.32648225"><ele>4.0</ele><time>2022-11-14T16:56:26.0000000+00:00</time></trkpt><trkpt lat="39.46235427" lon="-0.32585629"><ele>2.2</ele><time>2022-11-14T16:56:44.0000000+00:00</time></trkpt><trkpt lat="39.46301761" lon="-0.32544608"><ele>6.1</ele><time>2022-11-14T16:57:06.0000000+00:00</time></trkpt><trkpt lat="39.46307595" lon="-0.32483303"><ele>6.6</ele><time>2022-11-14T16:57:18.0000000+00:00</time></trkpt><trkpt lat="39.46322121" lon="-0.32466707"><ele>4.1</ele><time>2022-11-14T16:57:26.0000000+00:00</time></trkpt><trkpt lat="39.46568976" lon="-0.32466992"><ele>2.5</ele><time>2022-11-14T16:58:41.0000000+00:00</time></trkpt><trkpt lat="39.46575732" lon="-0.32318163"><ele>2.3</ele><time>2022-11-14T16:59:12.0000000+00:00</time></trkpt><trkpt lat="39.46787727" lon="-0.323448"><ele>1.5</ele><time>2022-11-14T16:59:59.0000000+00:00</time></trkpt><trkpt lat="39.46816536" lon="-0.32324709"><ele>0.1</ele><time>2022-11-14T17:00:11.0000000+00:00</time></trkpt><trkpt lat="39.46838949" lon="-0.3234641"><ele>1.0</ele><time>2022-11-14T17:00:20.0000000+00:00</time></trkpt><trkpt lat="39.4684899" lon="-0.32403105"><ele>2.0</ele><time>2022-11-14T17:00:33.0000000+00:00</time></trkpt><trkpt lat="39.47105502" lon="-0.32396978"><ele>0.4</ele><time>2022-11-14T17:02:09.0000000+00:00</time></trkpt><trkpt lat="39.47131176" lon="-0.32429759"><ele>1.3</ele><time>2022-11-14T17:02:22.0000000+00:00</time></trkpt><trkpt lat="39.47184619" lon="-0.32441997"><ele>1.1</ele><time>2022-11-14T17:02:35.0000000+00:00</time></trkpt><trkpt lat="39.47364301" lon="-0.32442718"><ele>1.7</ele><time>2022-11-14T17:03:05.0000000+00:00</time></trkpt><trkpt lat="39.4735348" lon="-0.32548439"><ele>1.8</ele><time>2022-11-14T17:03:53.0000000+00:00</time></trkpt><trkpt lat="39.47429932" lon="-0.32559813"><ele>5.3</ele><time>2022-11-14T17:04:29.0000000+00:00</time></trkpt><trkpt lat="39.47435665" lon="-0.32574238"><ele>3.8</ele><time>2022-11-14T17:04:36.0000000+00:00</time></trkpt><trkpt lat="39.47433771" lon="-0.32770995"><ele>2.7</ele><time>2022-11-14T17:05:15.0000000+00:00</time></trkpt><trkpt lat="39.47507079" lon="-0.32917536"><ele>2.5</ele><time>2022-11-14T17:05:40.0000000+00:00</time></trkpt><trkpt lat="39.47607209" lon="-0.33300765"><ele>3.1</ele><time>2022-11-14T17:06:41.0000000+00:00</time></trkpt><trkpt lat="39.47644936" lon="-0.3328494"><ele>2.6</ele><time>2022-11-14T17:07:33.0000000+00:00</time></trkpt><trkpt lat="39.47679847" lon="-0.33313539"><ele>2.0</ele><time>2022-11-14T17:08:30.0000000+00:00</time></trkpt><trkpt lat="39.47675387" lon="-0.3337321"><ele>2.7</ele><time>2022-11-14T17:08:43.0000000+00:00</time></trkpt><trkpt lat="39.48016531" lon="-0.34546752"><ele>6.0</ele><time>2022-11-14T17:11:27.0000000+00:00</time></trkpt><trkpt lat="39.47973976" lon="-0.34570288"><ele>10.2</ele><time>2022-11-14T17:12:56.0000000+00:00</time></trkpt><trkpt lat="39.48107399" lon="-0.35051912"><ele>7.5</ele><time>2022-11-14T17:14:14.0000000+00:00</time></trkpt><trkpt lat="39.48092069" lon="-0.35162821"><ele>7.3</ele><time>2022-11-14T17:14:45.0000000+00:00</time></trkpt><trkpt lat="39.48164136" lon="-0.35242986"><ele>10.1</ele><time>2022-11-14T17:16:15.0000000+00:00</time></trkpt><trkpt lat="39.48226489" lon="-0.35442383"><ele>7.4</ele><time>2022-11-14T17:16:47.0000000+00:00</time></trkpt><trkpt lat="39.48244628" lon="-0.35456783"><ele>7.3</ele><time>2022-11-14T17:16:55.0000000+00:00</time></trkpt><trkpt lat="39.48295975" lon="-0.35625184"><ele>9.6</ele><time>2022-11-14T17:17:21.0000000+00:00</time></trkpt><trkpt lat="39.48246866" lon="-0.35660363"><ele>12.9</ele><time>2022-11-14T17:17:33.0000000+00:00</time></trkpt><trkpt lat="39.48332554" lon="-0.35798287"><ele>15.7</ele><time>2022-11-14T17:18:25.0000000+00:00</time></trkpt><trkpt lat="39.48458584" lon="-0.36174601"><ele>13.1</ele><time>2022-11-14T17:19:30.0000000+00:00</time></trkpt><trkpt lat="39.484901" lon="-0.36227005"><ele>13.0</ele><time>2022-11-14T17:19:39.0000000+00:00</time></trkpt><trkpt lat="39.48550584" lon="-0.36502484"><ele>16.8</ele><time>2022-11-14T17:21:41.0000000+00:00</time></trkpt><trkpt lat="39.4860033" lon="-0.36579547"><ele>18.9</ele><time>2022-11-14T17:22:32.0000000+00:00</time></trkpt><trkpt lat="39.48615133" lon="-0.36714924"><ele>18.8</ele><time>2022-11-14T17:23:00.0000000+00:00</time></trkpt><trkpt lat="39.48648434" lon="-0.36794233"><ele>16.9</ele><time>2022-11-14T17:23:24.0000000+00:00</time></trkpt><trkpt lat="39.48638217" lon="-0.36870198"><ele>18.0</ele><time>2022-11-14T17:23:36.0000000+00:00</time></trkpt><trkpt lat="39.48688542" lon="-0.36931789"><ele>20.2</ele><time>2022-11-14T17:24:00.0000000+00:00</time></trkpt><trkpt lat="39.48605167" lon="-0.36999699"><ele>16.9</ele><time>2022-11-14T17:24:21.0000000+00:00</time></trkpt><trkpt lat="39.48476085" lon="-0.37070928"><ele>21.3</ele><time>2022-11-14T17:24:48.0000000+00:00</time></trkpt><trkpt lat="39.48412266" lon="-0.37133977"><ele>18.5</ele><time>2022-11-14T17:25:10.0000000+00:00</time></trkpt><trkpt lat="39.48244276" lon="-0.37211258"><ele>24.0</ele><time>2022-11-14T17:25:53.0000000+00:00</time></trkpt><trkpt lat="39.4823866" lon="-0.37237234"><ele>19.9</ele><time>2022-11-14T17:25:59.0000000+00:00</time></trkpt><trkpt lat="39.48192962" lon="-0.37277048"><ele>16.9</ele><time>2022-11-14T17:26:09.0000000+00:00</time></trkpt><trkpt lat="39.48075313" lon="-0.37340985"><ele>24.2</ele><time>2022-11-14T17:26:43.0000000+00:00</time></trkpt><trkpt lat="39.48298817" lon="-0.37717198"><ele>24.2</ele><time>2022-11-14T17:28:03.0000000+00:00</time></trkpt><trkpt lat="39.48306017" lon="-0.3785767"><ele>20.4</ele><time>2022-11-14T17:28:27.0000000+00:00</time></trkpt><trkpt lat="39.48395401" lon="-0.37892296"><ele>27.1</ele><time>2022-11-14T17:28:47.0000000+00:00</time></trkpt><trkpt lat="39.48453236" lon="-0.3786653"><ele>32.1</ele><time>2022-11-14T17:29:05.0000000+00:00</time></trkpt><trkpt lat="39.48521256" lon="-0.37873546"><ele>23.5</ele><time>2022-11-14T17:29:26.0000000+00:00</time></trkpt><trkpt lat="39.48553861" lon="-0.37850051"><ele>24.3</ele><time>2022-11-14T17:30:28.0000000+00:00</time></trkpt><trkpt lat="39.48571983" lon="-0.37907182"><ele>20.2</ele><time>2022-11-14T17:31:15.0000000+00:00</time></trkpt><trkpt lat="39.4854475" lon="-0.38010866"><ele>22.9</ele><time>2022-11-14T17:31:32.0000000+00:00</time></trkpt><trkpt lat="39.48552101" lon="-0.38062206"><ele>18.6</ele><time>2022-11-14T17:31:41.0000000+00:00</time></trkpt><trkpt lat="39.48570717" lon="-0.38083286"><ele>18.0</ele><time>2022-11-14T17:31:44.0000000+00:00</time></trkpt><trkpt lat="39.48589032" lon="-0.3830663"><ele>21.1</ele><time>2022-11-14T17:32:36.0000000+00:00</time></trkpt><trkpt lat="39.48563408" lon="-0.38315549"><ele>27.2</ele><time>2022-11-14T17:32:59.0000000+00:00</time></trkpt><trkpt lat="39.48465533" lon="-0.38279657"><ele>29.4</ele><time>2022-11-14T17:33:28.0000000+00:00</time></trkpt><trkpt lat="39.48479958" lon="-0.38280378"><ele>25.4</ele><time>2022-11-14T17:33:30.0000000+00:00</time></trkpt><trkpt lat="39.4840354" lon="-0.38341139"><ele>19.1</ele><time>2022-11-14T17:33:49.0000000+00:00</time></trkpt><trkpt lat="39.48364112" lon="-0.38404598"><ele>22.3</ele><time>2022-11-14T17:34:39.0000000+00:00</time></trkpt><trkpt lat="39.48353106" lon="-0.38487629"><ele>22.8</ele><time>2022-11-14T17:34:54.0000000+00:00</time></trkpt><trkpt lat="39.48331062" lon="-0.38492994"><ele>20.6</ele><time>2022-11-14T17:35:15.0000000+00:00</time></trkpt><trkpt lat="39.48334716" lon="-0.38525901"><ele>20.3</ele><time>2022-11-14T17:35:31.0000000+00:00</time></trkpt><trkpt lat="39.48258164" lon="-0.38702709"><ele>19.1</ele><time>2022-11-14T17:36:09.0000000+00:00</time></trkpt><trkpt lat="39.48257787" lon="-0.38721551"><ele>19.9</ele><time>2022-11-14T17:36:20.0000000+00:00</time></trkpt><trkpt lat="39.48287082" lon="-0.38722565"><ele>19.1</ele><time>2022-11-14T17:36:25.0000000+00:00</time></trkpt><trkpt lat="39.48296403" lon="-0.38747761"><ele>20.2</ele><time>2022-11-14T17:36:42.0000000+00:00</time></trkpt></trkseg><trkseg><trkpt lat="39.48381504" lon="-0.38877019"><ele>18.0</ele><time>2022-11-17T17:57:55.0000000+00:00</time></trkpt><trkpt lat="39.48317098" lon="-0.38919104"><ele>18.8</ele><time>2022-11-17T17:58:54.0000000+00:00</time></trkpt><trkpt lat="39.48279195" lon="-0.39001423"><ele>19.4</ele><time>2022-11-17T17:59:42.0000000+00:00</time></trkpt><trkpt lat="39.48250939" lon="-0.39010325"><ele>19.8</ele><time>2022-11-17T17:59:53.0000000+00:00</time></trkpt><trkpt lat="39.48227026" lon="-0.39097136"><ele>20.5</ele><time>2022-11-17T18:00:44.0000000+00:00</time></trkpt><trkpt lat="39.48186155" lon="-0.39159363"><ele>21.7</ele><time>2022-11-17T18:01:20.0000000+00:00</time></trkpt><trkpt lat="39.4819157" lon="-0.39200292"><ele>18.9</ele><time>2022-11-17T18:01:38.0000000+00:00</time></trkpt><trkpt lat="39.48169325" lon="-0.3924257"><ele>19.2</ele><time>2022-11-17T18:02:00.0000000+00:00</time></trkpt><trkpt lat="39.48188025" lon="-0.39311017"><ele>19.4</ele><time>2022-11-17T18:02:33.0000000+00:00</time></trkpt><trkpt lat="39.48158629" lon="-0.39324772"><ele>19.7</ele><time>2022-11-17T18:02:54.0000000+00:00</time></trkpt><trkpt lat="39.4815163" lon="-0.39347495"><ele>21.0</ele><time>2022-11-17T18:03:23.0000000+00:00</time></trkpt><trkpt lat="39.48191109" lon="-0.39387259"><ele>21.9</ele><time>2022-11-17T18:04:12.0000000+00:00</time></trkpt><trkpt lat="39.48268172" lon="-0.39382297"><ele>22.4</ele><time>2022-11-17T18:05:00.0000000+00:00</time></trkpt><trkpt lat="39.48284257" lon="-0.39405833"><ele>21.0</ele><time>2022-11-17T18:05:21.0000000+00:00</time></trkpt><trkpt lat="39.48337952" lon="-0.3942574"><ele>21.3</ele><time>2022-11-17T18:05:54.0000000+00:00</time></trkpt><trkpt lat="39.48348773" lon="-0.39491194"><ele>21.2</ele><time>2022-11-17T18:06:31.0000000+00:00</time></trkpt><trkpt lat="39.48409567" lon="-0.39511479"><ele>23.2</ele><time>2022-11-17T18:07:18.0000000+00:00</time></trkpt><trkpt lat="39.48379937" lon="-0.39525552"><ele>22.4</ele><time>2022-11-17T18:07:29.0000000+00:00</time></trkpt><trkpt lat="39.4842271" lon="-0.39541083"><ele>25.4</ele><time>2022-11-17T18:08:06.0000000+00:00</time></trkpt><trkpt lat="39.48365662" lon="-0.39576002"><ele>23.1</ele><time>2022-11-17T18:08:15.0000000+00:00</time></trkpt><trkpt lat="39.48475817" lon="-0.39569716"><ele>24.8</ele><time>2022-11-17T18:08:50.0000000+00:00</time></trkpt><trkpt lat="39.4846166" lon="-0.39586564"><ele>27.9</ele><time>2022-11-17T18:08:57.0000000+00:00</time></trkpt><trkpt lat="39.48505514" lon="-0.39631734"><ele>39.4</ele><time>2022-11-17T18:09:19.0000000+00:00</time></trkpt><trkpt lat="39.48465625" lon="-0.39651238"><ele>35.3</ele><time>2022-11-17T19:34:11.0000000+00:00</time></trkpt><trkpt lat="39.48518179" lon="-0.39641566"><ele>41.3</ele><time>2022-11-17T19:34:38.0000000+00:00</time></trkpt><trkpt lat="39.4847508" lon="-0.3957498"><ele>26.1</ele><time>2022-11-17T19:35:35.0000000+00:00</time></trkpt><trkpt lat="39.48382577" lon="-0.39517405"><ele>22.6</ele><time>2022-11-17T19:37:23.0000000+00:00</time></trkpt><trkpt lat="39.48374338" lon="-0.39530212"><ele>21.8</ele><time>2022-11-17T19:37:35.0000000+00:00</time></trkpt><trkpt lat="39.48258651" lon="-0.39417601"><ele>22.3</ele><time>2022-11-17T19:39:51.0000000+00:00</time></trkpt><trkpt lat="39.48117164" lon="-0.39331997"><ele>20.3</ele><time>2022-11-17T19:41:57.0000000+00:00</time></trkpt><trkpt lat="39.48091775" lon="-0.39335006"><ele>22.2</ele><time>2022-11-17T19:42:17.0000000+00:00</time></trkpt><trkpt lat="39.48103418" lon="-0.39351393"><ele>22.5</ele><time>2022-11-17T19:42:29.0000000+00:00</time></trkpt><trkpt lat="39.48062355" lon="-0.39369405"><ele>26.2</ele><time>2022-11-17T19:42:57.0000000+00:00</time></trkpt><trkpt lat="39.48064962" lon="-0.39436008"><ele>29.1</ele><time>2022-11-17T19:43:26.0000000+00:00</time></trkpt><trkpt lat="39.48019071" lon="-0.39501362"><ele>26.6</ele><time>2022-11-17T19:45:20.0000000+00:00</time></trkpt><trkpt lat="39.48047209" lon="-0.39556473"><ele>28.7</ele><time>2022-11-17T19:46:03.0000000+00:00</time></trkpt><trkpt lat="39.48058248" lon="-0.39552659"><ele>28.8</ele><time>2022-11-17T19:46:08.0000000+00:00</time></trkpt><trkpt lat="39.48050293" lon="-0.39561812"><ele>29.2</ele><time>2022-11-17T19:46:51.0000000+00:00</time></trkpt><trkpt lat="39.48031509" lon="-0.3952033"><ele>27.7</ele><time>2022-11-17T19:47:19.0000000+00:00</time></trkpt><trkpt lat="39.48039841" lon="-0.39531729"><ele>27.7</ele><time>2022-11-17T19:47:30.0000000+00:00</time></trkpt><trkpt lat="39.48042456" lon="-0.39518855"><ele>30.3</ele><time>2022-11-17T19:47:39.0000000+00:00</time></trkpt><trkpt lat="39.48034309" lon="-0.39547605"><ele>26.8</ele><time>2022-11-17T19:47:56.0000000+00:00</time></trkpt><trkpt lat="39.48045231" lon="-0.3956058"><ele>28.8</ele><time>2022-11-17T19:48:05.0000000+00:00</time></trkpt><trkpt lat="39.4802985" lon="-0.39524018"><ele>26.8</ele><time>2022-11-17T19:48:32.0000000+00:00</time></trkpt><trkpt lat="39.4797546" lon="-0.39666644"><ele>31.4</ele><time>2022-11-17T19:50:11.0000000+00:00</time></trkpt><trkpt lat="39.47950607" lon="-0.39672948"><ele>29.8</ele><time>2022-11-17T19:51:01.0000000+00:00</time></trkpt><trkpt lat="39.47937381" lon="-0.39554067"><ele>24.2</ele><time>2022-11-17T19:53:23.0000000+00:00</time></trkpt><trkpt lat="39.47914607" lon="-0.39569297"><ele>24.1</ele><time>2022-11-17T19:53:34.0000000+00:00</time></trkpt><trkpt lat="39.47922369" lon="-0.39578509"><ele>24.3</ele><time>2022-11-17T19:53:43.0000000+00:00</time></trkpt><trkpt lat="39.47915194" lon="-0.39566405"><ele>23.9</ele><time>2022-11-17T19:53:54.0000000+00:00</time></trkpt><trkpt lat="39.47931086" lon="-0.39545132"><ele>23.7</ele><time>2022-11-17T19:54:21.0000000+00:00</time></trkpt><trkpt lat="39.47887341" lon="-0.39550823"><ele>25.0</ele><time>2022-11-17T19:55:09.0000000+00:00</time></trkpt><trkpt lat="39.47848775" lon="-0.39593554"><ele>24.8</ele><time>2022-11-17T19:56:00.0000000+00:00</time></trkpt><trkpt lat="39.47737816" lon="-0.39484765"><ele>15.6</ele><time>2022-11-17T19:58:17.0000000+00:00</time></trkpt><trkpt lat="39.4773603" lon="-0.39497464"><ele>15.7</ele><time>2022-11-17T19:58:51.0000000+00:00</time></trkpt><trkpt lat="39.47731555" lon="-0.39472419"><ele>15.3</ele><time>2022-11-17T19:59:15.0000000+00:00</time></trkpt><trkpt lat="39.47756248" lon="-0.39538946"><ele>34.6</ele><time>2022-11-17T20:30:49.0000000+00:00</time></trkpt><trkpt lat="39.47745292" lon="-0.39530162"><ele>29.4</ele><time>2022-11-17T20:31:10.0000000+00:00</time></trkpt><trkpt lat="39.47767966" lon="-0.39483986"><ele>18.4</ele><time>2022-11-17T20:31:36.0000000+00:00</time></trkpt><trkpt lat="39.47750204" lon="-0.39424416"><ele>14.7</ele><time>2022-11-17T20:32:36.0000000+00:00</time></trkpt><trkpt lat="39.47774755" lon="-0.39397703"><ele>18.6</ele><time>2022-11-17T20:32:52.0000000+00:00</time></trkpt><trkpt lat="39.47845926" lon="-0.39237642"><ele>17.6</ele><time>2022-11-17T20:34:36.0000000+00:00</time></trkpt><trkpt lat="39.47817352" lon="-0.39206402"><ele>16.2</ele><time>2022-11-17T20:35:17.0000000+00:00</time></trkpt><trkpt lat="39.47779281" lon="-0.39115073"><ele>15.6</ele><time>2022-11-17T20:36:14.0000000+00:00</time></trkpt><trkpt lat="39.47779893" lon="-0.38992203"><ele>16.5</ele><time>2022-11-17T20:37:20.0000000+00:00</time></trkpt><trkpt lat="39.47771075" lon="-0.38999923"><ele>16.8</ele><time>2022-11-17T20:37:22.0000000+00:00</time></trkpt><trkpt lat="39.47767287" lon="-0.38985028"><ele>16.7</ele><time>2022-11-17T20:37:33.0000000+00:00</time></trkpt><trkpt lat="39.47926224" lon="-0.38541047"><ele>17.7</ele><time>2022-11-17T20:43:10.0000000+00:00</time></trkpt><trkpt lat="39.48032549" lon="-0.38337048"><ele>16.6</ele><time>2022-11-17T20:45:34.0000000+00:00</time></trkpt><trkpt lat="39.48027218" lon="-0.38302599"><ele>22.4</ele><time>2022-11-17T20:45:57.0000000+00:00</time></trkpt><trkpt lat="39.48060318" lon="-0.3826524"><ele>21.9</ele><time>2022-11-17T20:46:34.0000000+00:00</time></trkpt><trkpt lat="39.48055523" lon="-0.38246247"><ele>21.6</ele><time>2022-11-17T20:46:50.0000000+00:00</time></trkpt><trkpt lat="39.48083519" lon="-0.38204824"><ele>21.8</ele><time>2022-11-17T20:47:28.0000000+00:00</time></trkpt><trkpt lat="39.48118514" lon="-0.38077503"><ele>16.5</ele><time>2022-11-17T20:48:50.0000000+00:00</time></trkpt><trkpt lat="39.48085413" lon="-0.3807306"><ele>20.1</ele><time>2022-11-17T20:49:20.0000000+00:00</time></trkpt><trkpt lat="39.47976465" lon="-0.38115112"><ele>21.5</ele><time>2022-11-17T20:51:01.0000000+00:00</time></trkpt><trkpt lat="39.47997571" lon="-0.38092665"><ele>22.9</ele><time>2022-11-17T20:51:20.0000000+00:00</time></trkpt><trkpt lat="39.47978259" lon="-0.38075591"><ele>22.7</ele><time>2022-11-17T20:51:32.0000000+00:00</time></trkpt><trkpt lat="39.479896" lon="-0.38066187"><ele>23.1</ele><time>2022-11-17T20:51:37.0000000+00:00</time></trkpt><trkpt lat="39.47968938" lon="-0.38066522"><ele>22.0</ele><time>2022-11-17T20:51:46.0000000+00:00</time></trkpt><trkpt lat="39.47984135" lon="-0.38036926"><ele>24.1</ele><time>2022-11-17T20:51:56.0000000+00:00</time></trkpt><trkpt lat="39.47958637" lon="-0.38018846"><ele>24.1</ele><time>2022-11-17T20:52:10.0000000+00:00</time></trkpt><trkpt lat="39.47956156" lon="-0.37963484"><ele>25.2</ele><time>2022-11-17T20:52:45.0000000+00:00</time></trkpt><trkpt lat="39.47905521" lon="-0.37975227"><ele>24.9</ele><time>2022-11-17T20:53:15.0000000+00:00</time></trkpt><trkpt lat="39.4785554" lon="-0.38013498"><ele>25.0</ele><time>2022-11-17T20:54:30.0000000+00:00</time></trkpt><trkpt lat="39.47803714" lon="-0.37994312"><ele>25.3</ele><time>2022-11-17T20:55:10.0000000+00:00</time></trkpt><trkpt lat="39.47768217" lon="-0.38019952"><ele>22.7</ele><time>2022-11-17T20:56:51.0000000+00:00</time></trkpt><trkpt lat="39.47771436" lon="-0.37997087"><ele>22.9</ele><time>2022-11-17T20:56:52.0000000+00:00</time></trkpt><trkpt lat="39.47756977" lon="-0.37998168"><ele>22.0</ele><time>2022-11-17T20:56:54.0000000+00:00</time></trkpt><trkpt lat="39.47767203" lon="-0.38006214"><ele>22.8</ele><time>2022-11-17T20:56:58.0000000+00:00</time></trkpt><trkpt lat="39.47738763" lon="-0.38035878"><ele>21.1</ele><time>2022-11-17T20:57:17.0000000+00:00</time></trkpt><trkpt lat="39.47735511" lon="-0.38018083"><ele>20.5</ele><time>2022-11-17T20:57:20.0000000+00:00</time></trkpt><trkpt lat="39.47711228" lon="-0.38010179"><ele>24.2</ele><time>2022-11-17T20:57:31.0000000+00:00</time></trkpt><trkpt lat="39.47724698" lon="-0.38007841"><ele>22.0</ele><time>2022-11-17T20:57:32.0000000+00:00</time></trkpt><trkpt lat="39.47719359" lon="-0.37997724"><ele>22.2</ele><time>2022-11-17T20:57:40.0000000+00:00</time></trkpt><trkpt lat="39.47680023" lon="-0.37994237"><ele>28.1</ele><time>2022-11-17T20:58:08.0000000+00:00</time></trkpt><trkpt lat="39.47673284" lon="-0.3797547"><ele>28.7</ele><time>2022-11-17T20:58:13.0000000+00:00</time></trkpt><trkpt lat="39.47633109" lon="-0.38004069"><ele>27.9</ele><time>2022-11-17T20:59:37.0000000+00:00</time></trkpt><trkpt lat="39.47652999" lon="-0.37987087"><ele>27.9</ele><time>2022-11-17T21:00:17.0000000+00:00</time></trkpt><trkpt lat="39.4762658" lon="-0.37946359"><ele>25.2</ele><time>2022-11-17T21:02:08.0000000+00:00</time></trkpt><trkpt lat="39.47688782" lon="-0.37997154"><ele>26.7</ele><time>2022-11-17T21:02:12.0000000+00:00</time></trkpt><trkpt lat="39.47631785" lon="-0.3794993"><ele>26.5</ele><time>2022-11-17T21:06:17.0000000+00:00</time></trkpt><trkpt lat="39.47667961" lon="-0.3797697"><ele>28.6</ele><time>2022-11-17T21:06:29.0000000+00:00</time></trkpt><trkpt lat="39.47629932" lon="-0.37978755"><ele>27.7</ele><time>2022-11-17T21:07:32.0000000+00:00</time></trkpt><trkpt lat="39.47643947" lon="-0.38005519"><ele>26.8</ele><time>2022-11-17T21:07:38.0000000+00:00</time></trkpt><trkpt lat="39.47630016" lon="-0.38006466"><ele>27.9</ele><time>2022-11-17T21:07:43.0000000+00:00</time></trkpt><trkpt lat="39.47652354" lon="-0.3801204"><ele>25.1</ele><time>2022-11-17T21:07:55.0000000+00:00</time></trkpt><trkpt lat="39.47630578" lon="-0.3802043"><ele>26.2</ele><time>2022-11-17T21:08:18.0000000+00:00</time></trkpt><trkpt lat="39.47613118" lon="-0.38004706"><ele>28.9</ele><time>2022-11-17T21:08:43.0000000+00:00</time></trkpt><trkpt lat="39.47590957" lon="-0.38041729"><ele>28.9</ele><time>2022-11-17T21:10:09.0000000+00:00</time></trkpt><trkpt lat="39.47633394" lon="-0.38011193"><ele>27.0</ele><time>2022-11-17T21:12:15.0000000+00:00</time></trkpt><trkpt lat="39.47625473" lon="-0.37991529"><ele>28.8</ele><time>2022-11-17T21:12:32.0000000+00:00</time></trkpt><trkpt lat="39.4764279" lon="-0.37952696"><ele>28.6</ele><time>2022-11-17T21:13:01.0000000+00:00</time></trkpt><trkpt lat="39.47620075" lon="-0.37885909"><ele>26.2</ele><time>2022-11-17T21:13:32.0000000+00:00</time></trkpt><trkpt lat="39.47669788" lon="-0.37855047"><ele>28.2</ele><time>2022-11-17T21:14:00.0000000+00:00</time></trkpt><trkpt lat="39.47649261" lon="-0.37834419"><ele>28.0</ele><time>2022-11-17T21:14:18.0000000+00:00</time></trkpt><trkpt lat="39.47670677" lon="-0.37817622"><ele>28.5</ele><time>2022-11-17T21:14:25.0000000+00:00</time></trkpt><trkpt lat="39.4765771" lon="-0.37801914"><ele>29.5</ele><time>2022-11-17T21:14:37.0000000+00:00</time></trkpt><trkpt lat="39.47669772" lon="-0.37801352"><ele>29.3</ele><time>2022-11-17T21:14:43.0000000+00:00</time></trkpt><trkpt lat="39.47662806" lon="-0.37785016"><ele>29.7</ele><time>2022-11-17T21:14:48.0000000+00:00</time></trkpt><trkpt lat="39.47695093" lon="-0.37736108"><ele>31.6</ele><time>2022-11-17T21:15:19.0000000+00:00</time></trkpt><trkpt lat="39.47667207" lon="-0.37676043"><ele>30.4</ele><time>2022-11-17T21:15:59.0000000+00:00</time></trkpt><trkpt lat="39.47632003" lon="-0.37667133"><ele>32.4</ele><time>2022-11-17T21:16:16.0000000+00:00</time></trkpt><trkpt lat="39.47645573" lon="-0.37610429"><ele>27.8</ele><time>2022-11-17T21:16:52.0000000+00:00</time></trkpt><trkpt lat="39.47624417" lon="-0.37566927"><ele>27.2</ele><time>2022-11-17T21:17:27.0000000+00:00</time></trkpt><trkpt lat="39.47649647" lon="-0.37519092"><ele>23.5</ele><time>2022-11-17T21:18:04.0000000+00:00</time></trkpt><trkpt lat="39.47716417" lon="-0.37533416"><ele>32.4</ele><time>2022-11-17T21:18:33.0000000+00:00</time></trkpt><trkpt lat="39.47767496" lon="-0.37471097"><ele>29.2</ele><time>2022-11-17T21:19:24.0000000+00:00</time></trkpt><trkpt lat="39.47796405" lon="-0.3748605"><ele>27.1</ele><time>2022-11-17T21:20:01.0000000+00:00</time></trkpt><trkpt lat="39.47847728" lon="-0.3745497"><ele>27.3</ele><time>2022-11-17T21:20:36.0000000+00:00</time></trkpt><trkpt lat="39.47919033" lon="-0.37486889"><ele>16.2</ele><time>2022-11-17T21:21:52.0000000+00:00</time></trkpt><trkpt lat="39.47942343" lon="-0.37464953"><ele>12.4</ele><time>2022-11-17T21:23:10.0000000+00:00</time></trkpt><trkpt lat="39.47961127" lon="-0.37470519"><ele>11.5</ele><time>2022-11-17T21:23:24.0000000+00:00</time></trkpt><trkpt lat="39.47971419" lon="-0.37445641"><ele>10.2</ele><time>2022-11-17T21:24:00.0000000+00:00</time></trkpt><trkpt lat="39.48015668" lon="-0.37457133"><ele>9.9</ele><time>2022-11-17T21:24:38.0000000+00:00</time></trkpt><trkpt lat="39.4805673" lon="-0.37525948"><ele>10.5</ele><time>2022-11-17T21:25:41.0000000+00:00</time></trkpt><trkpt lat="39.48178394" lon="-0.37898432"><ele>14.2</ele><time>2022-11-17T21:29:47.0000000+00:00</time></trkpt><trkpt lat="39.48227931" lon="-0.37925069"><ele>12.5</ele><time>2022-11-17T21:30:38.0000000+00:00</time></trkpt><trkpt lat="39.4823182" lon="-0.38019986"><ele>14.3</ele><time>2022-11-17T21:31:38.0000000+00:00</time></trkpt><trkpt lat="39.48252699" lon="-0.38034839"><ele>15.0</ele><time>2022-11-17T21:32:03.0000000+00:00</time></trkpt><trkpt lat="39.48259086" lon="-0.38065734"><ele>14.1</ele><time>2022-11-17T21:32:20.0000000+00:00</time></trkpt><trkpt lat="39.48253026" lon="-0.38138397"><ele>12.6</ele><time>2022-11-17T21:33:10.0000000+00:00</time></trkpt><trkpt lat="39.48268374" lon="-0.38108289"><ele>13.2</ele><time>2022-11-17T21:33:45.0000000+00:00</time></trkpt><trkpt lat="39.48262297" lon="-0.38141968"><ele>12.8</ele><time>2022-11-17T21:34:10.0000000+00:00</time></trkpt><trkpt lat="39.48287275" lon="-0.38159754"><ele>16.9</ele><time>2022-11-17T21:34:33.0000000+00:00</time></trkpt><trkpt lat="39.48279748" lon="-0.38177415"><ele>16.6</ele><time>2022-11-17T21:34:45.0000000+00:00</time></trkpt><trkpt lat="39.48306545" lon="-0.38217221"><ele>25.4</ele><time>2022-11-17T21:35:20.0000000+00:00</time></trkpt><trkpt lat="39.48313694" lon="-0.38274477"><ele>28.8</ele><time>2022-11-17T21:35:45.0000000+00:00</time></trkpt><trkpt lat="39.48383189" lon="-0.38375915"><ele>21.5</ele><time>2022-11-17T21:38:07.0000000+00:00</time></trkpt><trkpt lat="39.4838391" lon="-0.38409979"><ele>22.2</ele><time>2022-11-17T21:38:24.0000000+00:00</time></trkpt><trkpt lat="39.48341807" lon="-0.38452903"><ele>23.6</ele><time>2022-11-17T21:38:56.0000000+00:00</time></trkpt><trkpt lat="39.48338178" lon="-0.38486338"><ele>21.8</ele><time>2022-11-17T21:39:21.0000000+00:00</time></trkpt></trkseg></trk></gpx>